<?xml version="1.0" encoding="UTF-8" standalone="no" ?>
<gpx xmlns="http://www.topografix.com/GPX/1/1" xmlns:xsi="http://www.w3.org/2001/XMLSchema-instance" xsi:schemaLocation="http://www.topografix.com/GPX/1/1 http://www.topografix.com/GPX/1/1/gpx.xsd" version="1.1" creator="VisuGPX - https://www.visugpx.com">
  <metadata>
    <name>83-M-Lorgues</name>
    <desc><![CDATA[83-M-Lorgues : Berne - Table ronde
2021-06-16]]></desc>
  </metadata>
  <trk>
    <name><![CDATA[2021-06-16-M-berne]]></name>
    <extensions>
      <line xmlns="http://www.topografix.com/GPX/gpx_style/0/2">
        <width>4</width>
      </line>
    </extensions>
    <trkseg>
      <trkpt lat="43.50072" lon="6.37368">
        <ele>285.4</ele>
        <time>2021-06-16T06:32:50.000Z</time>
      </trkpt>
      <trkpt lat="43.50071" lon="6.37368">
        <ele>285.4</ele>
        <time>2021-06-16T06:32:51.000Z</time>
      </trkpt>
      <trkpt lat="43.50072" lon="6.37362">
        <ele>285.4</ele>
        <time>2021-06-16T06:33:11.000Z</time>
      </trkpt>
      <trkpt lat="43.50077" lon="6.37362">
        <ele>285.3</ele>
        <time>2021-06-16T06:33:16.000Z</time>
      </trkpt>
      <trkpt lat="43.50081" lon="6.3736">
        <ele>285</ele>
        <time>2021-06-16T06:33:22.000Z</time>
      </trkpt>
      <trkpt lat="43.50077" lon="6.3736">
        <ele>284.5</ele>
        <time>2021-06-16T06:33:41.000Z</time>
      </trkpt>
      <trkpt lat="43.50072" lon="6.37363">
        <ele>284.6</ele>
        <time>2021-06-16T06:33:49.000Z</time>
      </trkpt>
      <trkpt lat="43.50071" lon="6.37369">
        <ele>284.4</ele>
        <time>2021-06-16T06:34:36.000Z</time>
      </trkpt>
      <trkpt lat="43.50076" lon="6.37371">
        <ele>284.1</ele>
        <time>2021-06-16T06:34:49.000Z</time>
      </trkpt>
      <trkpt lat="43.50081" lon="6.37372">
        <ele>284</ele>
        <time>2021-06-16T06:34:55.000Z</time>
      </trkpt>
      <trkpt lat="43.50086" lon="6.37372">
        <ele>283.8</ele>
        <time>2021-06-16T06:35:01.000Z</time>
      </trkpt>
      <trkpt lat="43.50091" lon="6.37369">
        <ele>283.5</ele>
        <time>2021-06-16T06:35:05.000Z</time>
      </trkpt>
      <trkpt lat="43.50093" lon="6.37363">
        <ele>283.4</ele>
        <time>2021-06-16T06:35:09.000Z</time>
      </trkpt>
      <trkpt lat="43.50094" lon="6.37357">
        <ele>282.7</ele>
        <time>2021-06-16T06:35:16.000Z</time>
      </trkpt>
      <trkpt lat="43.50096" lon="6.37351">
        <ele>282.3</ele>
        <time>2021-06-16T06:35:21.000Z</time>
      </trkpt>
      <trkpt lat="43.50099" lon="6.37345">
        <ele>281.8</ele>
        <time>2021-06-16T06:35:26.000Z</time>
      </trkpt>
      <trkpt lat="43.50101" lon="6.37339">
        <ele>281.3</ele>
        <time>2021-06-16T06:35:31.000Z</time>
      </trkpt>
      <trkpt lat="43.50105" lon="6.37334">
        <ele>280.8</ele>
        <time>2021-06-16T06:35:35.000Z</time>
      </trkpt>
      <trkpt lat="43.50108" lon="6.37328">
        <ele>280.2</ele>
        <time>2021-06-16T06:35:40.000Z</time>
      </trkpt>
      <trkpt lat="43.50113" lon="6.37327">
        <ele>279.9</ele>
        <time>2021-06-16T06:35:44.000Z</time>
      </trkpt>
      <trkpt lat="43.50118" lon="6.37328">
        <ele>279.6</ele>
        <time>2021-06-16T06:35:49.000Z</time>
      </trkpt>
      <trkpt lat="43.50123" lon="6.3733">
        <ele>279.4</ele>
        <time>2021-06-16T06:35:54.000Z</time>
      </trkpt>
      <trkpt lat="43.50127" lon="6.37334">
        <ele>279.3</ele>
        <time>2021-06-16T06:35:59.000Z</time>
      </trkpt>
      <trkpt lat="43.50129" lon="6.3734">
        <ele>279.9</ele>
        <time>2021-06-16T06:36:07.000Z</time>
      </trkpt>
      <trkpt lat="43.50131" lon="6.37346">
        <ele>281.4</ele>
        <time>2021-06-16T06:36:27.000Z</time>
      </trkpt>
      <trkpt lat="43.50131" lon="6.37352">
        <ele>281.7</ele>
        <time>2021-06-16T06:36:34.000Z</time>
      </trkpt>
      <trkpt lat="43.50131" lon="6.37359">
        <ele>282</ele>
        <time>2021-06-16T06:36:41.000Z</time>
      </trkpt>
      <trkpt lat="43.50129" lon="6.37365">
        <ele>282.3</ele>
        <time>2021-06-16T06:36:47.000Z</time>
      </trkpt>
      <trkpt lat="43.50128" lon="6.37372">
        <ele>282.5</ele>
        <time>2021-06-16T06:36:51.000Z</time>
      </trkpt>
      <trkpt lat="43.50126" lon="6.37379">
        <ele>282.7</ele>
        <time>2021-06-16T06:36:55.000Z</time>
      </trkpt>
      <trkpt lat="43.50122" lon="6.37385">
        <ele>283.1</ele>
        <time>2021-06-16T06:37:00.000Z</time>
      </trkpt>
      <trkpt lat="43.50119" lon="6.3739">
        <ele>283.3</ele>
        <time>2021-06-16T06:37:05.000Z</time>
      </trkpt>
      <trkpt lat="43.50118" lon="6.37396">
        <ele>283.5</ele>
        <time>2021-06-16T06:37:09.000Z</time>
      </trkpt>
      <trkpt lat="43.50118" lon="6.37403">
        <ele>283.6</ele>
        <time>2021-06-16T06:37:15.000Z</time>
      </trkpt>
      <trkpt lat="43.50116" lon="6.3741">
        <ele>283.6</ele>
        <time>2021-06-16T06:37:19.000Z</time>
      </trkpt>
      <trkpt lat="43.50117" lon="6.37417">
        <ele>283.7</ele>
        <time>2021-06-16T06:37:24.000Z</time>
      </trkpt>
      <trkpt lat="43.50116" lon="6.37424">
        <ele>283.6</ele>
        <time>2021-06-16T06:37:27.000Z</time>
      </trkpt>
      <trkpt lat="43.50116" lon="6.3743">
        <ele>283.1</ele>
        <time>2021-06-16T06:37:33.000Z</time>
      </trkpt>
      <trkpt lat="43.50115" lon="6.37438">
        <ele>282.7</ele>
        <time>2021-06-16T06:37:37.000Z</time>
      </trkpt>
      <trkpt lat="43.50116" lon="6.37447">
        <ele>282.2</ele>
        <time>2021-06-16T06:37:41.000Z</time>
      </trkpt>
      <trkpt lat="43.50118" lon="6.37454">
        <ele>281.7</ele>
        <time>2021-06-16T06:37:45.000Z</time>
      </trkpt>
      <trkpt lat="43.50119" lon="6.37461">
        <ele>281.1</ele>
        <time>2021-06-16T06:37:49.000Z</time>
      </trkpt>
      <trkpt lat="43.50122" lon="6.37467">
        <ele>280.2</ele>
        <time>2021-06-16T06:37:53.000Z</time>
      </trkpt>
      <trkpt lat="43.50124" lon="6.37474">
        <ele>279.5</ele>
        <time>2021-06-16T06:37:57.000Z</time>
      </trkpt>
      <trkpt lat="43.50128" lon="6.3748">
        <ele>279</ele>
        <time>2021-06-16T06:38:01.000Z</time>
      </trkpt>
      <trkpt lat="43.50132" lon="6.37484">
        <ele>278.4</ele>
        <time>2021-06-16T06:38:06.000Z</time>
      </trkpt>
      <trkpt lat="43.50135" lon="6.3749">
        <ele>278</ele>
        <time>2021-06-16T06:38:10.000Z</time>
      </trkpt>
      <trkpt lat="43.5014" lon="6.37494">
        <ele>277.4</ele>
        <time>2021-06-16T06:38:15.000Z</time>
      </trkpt>
      <trkpt lat="43.50144" lon="6.37499">
        <ele>277.2</ele>
        <time>2021-06-16T06:38:19.000Z</time>
      </trkpt>
      <trkpt lat="43.50148" lon="6.37503">
        <ele>277</ele>
        <time>2021-06-16T06:38:23.000Z</time>
      </trkpt>
      <trkpt lat="43.50152" lon="6.37506">
        <ele>276.9</ele>
        <time>2021-06-16T06:38:27.000Z</time>
      </trkpt>
      <trkpt lat="43.50156" lon="6.3751">
        <ele>276.9</ele>
        <time>2021-06-16T06:38:33.000Z</time>
      </trkpt>
      <trkpt lat="43.50159" lon="6.37514">
        <ele>276.9</ele>
        <time>2021-06-16T06:38:36.000Z</time>
      </trkpt>
      <trkpt lat="43.50164" lon="6.37518">
        <ele>276.9</ele>
        <time>2021-06-16T06:38:39.000Z</time>
      </trkpt>
      <trkpt lat="43.50169" lon="6.37522">
        <ele>276.9</ele>
        <time>2021-06-16T06:38:43.000Z</time>
      </trkpt>
      <trkpt lat="43.50173" lon="6.37525">
        <ele>276.9</ele>
        <time>2021-06-16T06:38:46.000Z</time>
      </trkpt>
      <trkpt lat="43.50178" lon="6.37528">
        <ele>276.9</ele>
        <time>2021-06-16T06:38:49.000Z</time>
      </trkpt>
      <trkpt lat="43.50182" lon="6.37531">
        <ele>276.9</ele>
        <time>2021-06-16T06:38:56.000Z</time>
      </trkpt>
      <trkpt lat="43.50187" lon="6.37535">
        <ele>277.1</ele>
        <time>2021-06-16T06:38:59.000Z</time>
      </trkpt>
      <trkpt lat="43.50192" lon="6.37538">
        <ele>277.1</ele>
        <time>2021-06-16T06:39:02.000Z</time>
      </trkpt>
      <trkpt lat="43.50198" lon="6.37541">
        <ele>277.2</ele>
        <time>2021-06-16T06:39:05.000Z</time>
      </trkpt>
      <trkpt lat="43.50203" lon="6.37544">
        <ele>277.2</ele>
        <time>2021-06-16T06:39:08.000Z</time>
      </trkpt>
      <trkpt lat="43.50208" lon="6.37547">
        <ele>277.2</ele>
        <time>2021-06-16T06:39:11.000Z</time>
      </trkpt>
      <trkpt lat="43.50212" lon="6.3755">
        <ele>277.3</ele>
        <time>2021-06-16T06:39:14.000Z</time>
      </trkpt>
      <trkpt lat="43.50216" lon="6.37552">
        <ele>277.4</ele>
        <time>2021-06-16T06:39:18.000Z</time>
      </trkpt>
      <trkpt lat="43.50222" lon="6.37556">
        <ele>277.6</ele>
        <time>2021-06-16T06:39:22.000Z</time>
      </trkpt>
      <trkpt lat="43.50226" lon="6.37561">
        <ele>277.9</ele>
        <time>2021-06-16T06:39:28.000Z</time>
      </trkpt>
      <trkpt lat="43.5023" lon="6.37563">
        <ele>278.3</ele>
        <time>2021-06-16T06:39:32.000Z</time>
      </trkpt>
      <trkpt lat="43.50235" lon="6.37566">
        <ele>278.7</ele>
        <time>2021-06-16T06:39:37.000Z</time>
      </trkpt>
      <trkpt lat="43.50239" lon="6.3757">
        <ele>279.4</ele>
        <time>2021-06-16T06:39:43.000Z</time>
      </trkpt>
      <trkpt lat="43.50243" lon="6.37574">
        <ele>280</ele>
        <time>2021-06-16T06:39:49.000Z</time>
      </trkpt>
      <trkpt lat="43.50248" lon="6.37577">
        <ele>280.5</ele>
        <time>2021-06-16T06:39:54.000Z</time>
      </trkpt>
      <trkpt lat="43.50253" lon="6.37579">
        <ele>280.9</ele>
        <time>2021-06-16T06:39:58.000Z</time>
      </trkpt>
      <trkpt lat="43.50258" lon="6.37581">
        <ele>281.4</ele>
        <time>2021-06-16T06:40:02.000Z</time>
      </trkpt>
      <trkpt lat="43.50262" lon="6.37584">
        <ele>281.9</ele>
        <time>2021-06-16T06:40:07.000Z</time>
      </trkpt>
      <trkpt lat="43.50261" lon="6.37591">
        <ele>282.7</ele>
        <time>2021-06-16T06:40:12.000Z</time>
      </trkpt>
      <trkpt lat="43.50264" lon="6.37597">
        <ele>284.5</ele>
        <time>2021-06-16T06:40:21.000Z</time>
      </trkpt>
      <trkpt lat="43.50267" lon="6.37603">
        <ele>285.1</ele>
        <time>2021-06-16T06:40:26.000Z</time>
      </trkpt>
      <trkpt lat="43.50271" lon="6.37607">
        <ele>285.6</ele>
        <time>2021-06-16T06:40:30.000Z</time>
      </trkpt>
      <trkpt lat="43.50274" lon="6.37613">
        <ele>286.2</ele>
        <time>2021-06-16T06:40:34.000Z</time>
      </trkpt>
      <trkpt lat="43.5028" lon="6.37616">
        <ele>286.6</ele>
        <time>2021-06-16T06:40:38.000Z</time>
      </trkpt>
      <trkpt lat="43.50284" lon="6.37619">
        <ele>287.3</ele>
        <time>2021-06-16T06:40:44.000Z</time>
      </trkpt>
      <trkpt lat="43.50288" lon="6.37624">
        <ele>288.1</ele>
        <time>2021-06-16T06:40:50.000Z</time>
      </trkpt>
      <trkpt lat="43.50292" lon="6.37629">
        <ele>288.7</ele>
        <time>2021-06-16T06:40:54.000Z</time>
      </trkpt>
      <trkpt lat="43.50295" lon="6.37634">
        <ele>289.5</ele>
        <time>2021-06-16T06:41:00.000Z</time>
      </trkpt>
      <trkpt lat="43.503" lon="6.37638">
        <ele>290.5</ele>
        <time>2021-06-16T06:41:07.000Z</time>
      </trkpt>
      <trkpt lat="43.50304" lon="6.37642">
        <ele>291.2</ele>
        <time>2021-06-16T06:41:12.000Z</time>
      </trkpt>
      <trkpt lat="43.50308" lon="6.37646">
        <ele>291.8</ele>
        <time>2021-06-16T06:41:17.000Z</time>
      </trkpt>
      <trkpt lat="43.50313" lon="6.3765">
        <ele>292.2</ele>
        <time>2021-06-16T06:41:21.000Z</time>
      </trkpt>
      <trkpt lat="43.50317" lon="6.37653">
        <ele>292.6</ele>
        <time>2021-06-16T06:41:24.000Z</time>
      </trkpt>
      <trkpt lat="43.50321" lon="6.37658">
        <ele>293.1</ele>
        <time>2021-06-16T06:41:28.000Z</time>
      </trkpt>
      <trkpt lat="43.50325" lon="6.37661">
        <ele>293.4</ele>
        <time>2021-06-16T06:41:32.000Z</time>
      </trkpt>
      <trkpt lat="43.50329" lon="6.37664">
        <ele>293.9</ele>
        <time>2021-06-16T06:41:36.000Z</time>
      </trkpt>
      <trkpt lat="43.50332" lon="6.37669">
        <ele>294.3</ele>
        <time>2021-06-16T06:41:40.000Z</time>
      </trkpt>
      <trkpt lat="43.50336" lon="6.37674">
        <ele>294.8</ele>
        <time>2021-06-16T06:41:45.000Z</time>
      </trkpt>
      <trkpt lat="43.5034" lon="6.37677">
        <ele>295.1</ele>
        <time>2021-06-16T06:41:49.000Z</time>
      </trkpt>
      <trkpt lat="43.50344" lon="6.37682">
        <ele>295.3</ele>
        <time>2021-06-16T06:41:54.000Z</time>
      </trkpt>
      <trkpt lat="43.50349" lon="6.37685">
        <ele>295.4</ele>
        <time>2021-06-16T06:41:59.000Z</time>
      </trkpt>
      <trkpt lat="43.50352" lon="6.37691">
        <ele>295.4</ele>
        <time>2021-06-16T06:42:03.000Z</time>
      </trkpt>
      <trkpt lat="43.50355" lon="6.37696">
        <ele>295.3</ele>
        <time>2021-06-16T06:42:09.000Z</time>
      </trkpt>
      <trkpt lat="43.50358" lon="6.37702">
        <ele>295.2</ele>
        <time>2021-06-16T06:42:14.000Z</time>
      </trkpt>
      <trkpt lat="43.50363" lon="6.37707">
        <ele>294.9</ele>
        <time>2021-06-16T06:42:18.000Z</time>
      </trkpt>
      <trkpt lat="43.50365" lon="6.37713">
        <ele>294.3</ele>
        <time>2021-06-16T06:42:24.000Z</time>
      </trkpt>
      <trkpt lat="43.50368" lon="6.37718">
        <ele>293.9</ele>
        <time>2021-06-16T06:42:29.000Z</time>
      </trkpt>
      <trkpt lat="43.5037" lon="6.37724">
        <ele>293.6</ele>
        <time>2021-06-16T06:42:34.000Z</time>
      </trkpt>
      <trkpt lat="43.50375" lon="6.37729">
        <ele>293.4</ele>
        <time>2021-06-16T06:42:37.000Z</time>
      </trkpt>
      <trkpt lat="43.5038" lon="6.37731">
        <ele>293</ele>
        <time>2021-06-16T06:42:41.000Z</time>
      </trkpt>
      <trkpt lat="43.50384" lon="6.37734">
        <ele>293</ele>
        <time>2021-06-16T06:42:46.000Z</time>
      </trkpt>
      <trkpt lat="43.50388" lon="6.3774">
        <ele>292.8</ele>
        <time>2021-06-16T06:42:50.000Z</time>
      </trkpt>
      <trkpt lat="43.50393" lon="6.37742">
        <ele>292.8</ele>
        <time>2021-06-16T06:42:53.000Z</time>
      </trkpt>
      <trkpt lat="43.50396" lon="6.37747">
        <ele>292.7</ele>
        <time>2021-06-16T06:42:57.000Z</time>
      </trkpt>
      <trkpt lat="43.50401" lon="6.3775">
        <ele>292.6</ele>
        <time>2021-06-16T06:43:01.000Z</time>
      </trkpt>
      <trkpt lat="43.50404" lon="6.37755">
        <ele>292.6</ele>
        <time>2021-06-16T06:43:05.000Z</time>
      </trkpt>
      <trkpt lat="43.50408" lon="6.3776">
        <ele>292.5</ele>
        <time>2021-06-16T06:43:09.000Z</time>
      </trkpt>
      <trkpt lat="43.50411" lon="6.37766">
        <ele>292.4</ele>
        <time>2021-06-16T06:43:14.000Z</time>
      </trkpt>
      <trkpt lat="43.50412" lon="6.37773">
        <ele>292.4</ele>
        <time>2021-06-16T06:43:18.000Z</time>
      </trkpt>
      <trkpt lat="43.5041" lon="6.37779">
        <ele>292.5</ele>
        <time>2021-06-16T06:43:22.000Z</time>
      </trkpt>
      <trkpt lat="43.50412" lon="6.37786">
        <ele>292.4</ele>
        <time>2021-06-16T06:43:30.000Z</time>
      </trkpt>
      <trkpt lat="43.50412" lon="6.37792">
        <ele>292.2</ele>
        <time>2021-06-16T06:43:34.000Z</time>
      </trkpt>
      <trkpt lat="43.50413" lon="6.37799">
        <ele>291.9</ele>
        <time>2021-06-16T06:43:39.000Z</time>
      </trkpt>
      <trkpt lat="43.50414" lon="6.37806">
        <ele>291.3</ele>
        <time>2021-06-16T06:43:45.000Z</time>
      </trkpt>
      <trkpt lat="43.50412" lon="6.37811">
        <ele>291.1</ele>
        <time>2021-06-16T06:43:49.000Z</time>
      </trkpt>
      <trkpt lat="43.50411" lon="6.37818">
        <ele>290.8</ele>
        <time>2021-06-16T06:43:54.000Z</time>
      </trkpt>
      <trkpt lat="43.50409" lon="6.37826">
        <ele>290.5</ele>
        <time>2021-06-16T06:43:57.000Z</time>
      </trkpt>
      <trkpt lat="43.50407" lon="6.37832">
        <ele>290.3</ele>
        <time>2021-06-16T06:44:01.000Z</time>
      </trkpt>
      <trkpt lat="43.50406" lon="6.37838">
        <ele>289.9</ele>
        <time>2021-06-16T06:44:08.000Z</time>
      </trkpt>
      <trkpt lat="43.50405" lon="6.37845">
        <ele>289.7</ele>
        <time>2021-06-16T06:44:12.000Z</time>
      </trkpt>
      <trkpt lat="43.50402" lon="6.37853">
        <ele>289.6</ele>
        <time>2021-06-16T06:44:16.000Z</time>
      </trkpt>
      <trkpt lat="43.50401" lon="6.3786">
        <ele>289.6</ele>
        <time>2021-06-16T06:44:20.000Z</time>
      </trkpt>
      <trkpt lat="43.50401" lon="6.37868">
        <ele>289.2</ele>
        <time>2021-06-16T06:44:25.000Z</time>
      </trkpt>
      <trkpt lat="43.50401" lon="6.37875">
        <ele>289</ele>
        <time>2021-06-16T06:44:29.000Z</time>
      </trkpt>
      <trkpt lat="43.50402" lon="6.37883">
        <ele>288.8</ele>
        <time>2021-06-16T06:44:34.000Z</time>
      </trkpt>
      <trkpt lat="43.50404" lon="6.3789">
        <ele>288.6</ele>
        <time>2021-06-16T06:44:39.000Z</time>
      </trkpt>
      <trkpt lat="43.50403" lon="6.37897">
        <ele>288.3</ele>
        <time>2021-06-16T06:44:43.000Z</time>
      </trkpt>
      <trkpt lat="43.50402" lon="6.37904">
        <ele>288.1</ele>
        <time>2021-06-16T06:44:47.000Z</time>
      </trkpt>
      <trkpt lat="43.50403" lon="6.37911">
        <ele>287.9</ele>
        <time>2021-06-16T06:44:52.000Z</time>
      </trkpt>
      <trkpt lat="43.50404" lon="6.37918">
        <ele>287.7</ele>
        <time>2021-06-16T06:44:56.000Z</time>
      </trkpt>
      <trkpt lat="43.50404" lon="6.37925">
        <ele>287.4</ele>
        <time>2021-06-16T06:45:00.000Z</time>
      </trkpt>
      <trkpt lat="43.50405" lon="6.37932">
        <ele>287.2</ele>
        <time>2021-06-16T06:45:03.000Z</time>
      </trkpt>
      <trkpt lat="43.50406" lon="6.3794">
        <ele>287</ele>
        <time>2021-06-16T06:45:07.000Z</time>
      </trkpt>
      <trkpt lat="43.50406" lon="6.37947">
        <ele>286.5</ele>
        <time>2021-06-16T06:45:12.000Z</time>
      </trkpt>
      <trkpt lat="43.50408" lon="6.37953">
        <ele>285.9</ele>
        <time>2021-06-16T06:45:18.000Z</time>
      </trkpt>
      <trkpt lat="43.50411" lon="6.37957">
        <ele>285.3</ele>
        <time>2021-06-16T06:45:24.000Z</time>
      </trkpt>
      <trkpt lat="43.50411" lon="6.37964">
        <ele>284.8</ele>
        <time>2021-06-16T06:45:29.000Z</time>
      </trkpt>
      <trkpt lat="43.50412" lon="6.37972">
        <ele>284.2</ele>
        <time>2021-06-16T06:45:34.000Z</time>
      </trkpt>
      <trkpt lat="43.50413" lon="6.37979">
        <ele>283.2</ele>
        <time>2021-06-16T06:45:42.000Z</time>
      </trkpt>
      <trkpt lat="43.50417" lon="6.37984">
        <ele>282.5</ele>
        <time>2021-06-16T06:45:47.000Z</time>
      </trkpt>
      <trkpt lat="43.50419" lon="6.3799">
        <ele>281.7</ele>
        <time>2021-06-16T06:45:53.000Z</time>
      </trkpt>
      <trkpt lat="43.50421" lon="6.37997">
        <ele>281.2</ele>
        <time>2021-06-16T06:45:56.000Z</time>
      </trkpt>
      <trkpt lat="43.50423" lon="6.38003">
        <ele>280.8</ele>
        <time>2021-06-16T06:46:00.000Z</time>
      </trkpt>
      <trkpt lat="43.50425" lon="6.38009">
        <ele>280.4</ele>
        <time>2021-06-16T06:46:04.000Z</time>
      </trkpt>
      <trkpt lat="43.50427" lon="6.38014">
        <ele>280.1</ele>
        <time>2021-06-16T06:46:07.000Z</time>
      </trkpt>
      <trkpt lat="43.50431" lon="6.38019">
        <ele>279.6</ele>
        <time>2021-06-16T06:46:12.000Z</time>
      </trkpt>
      <trkpt lat="43.50435" lon="6.38023">
        <ele>279</ele>
        <time>2021-06-16T06:46:16.000Z</time>
      </trkpt>
      <trkpt lat="43.50439" lon="6.38026">
        <ele>278.2</ele>
        <time>2021-06-16T06:46:21.000Z</time>
      </trkpt>
      <trkpt lat="43.50444" lon="6.38029">
        <ele>277.5</ele>
        <time>2021-06-16T06:46:25.000Z</time>
      </trkpt>
      <trkpt lat="43.50449" lon="6.38033">
        <ele>276.8</ele>
        <time>2021-06-16T06:46:31.000Z</time>
      </trkpt>
      <trkpt lat="43.50452" lon="6.38037">
        <ele>276.5</ele>
        <time>2021-06-16T06:46:35.000Z</time>
      </trkpt>
      <trkpt lat="43.50457" lon="6.3804">
        <ele>275.9</ele>
        <time>2021-06-16T06:46:40.000Z</time>
      </trkpt>
      <trkpt lat="43.50462" lon="6.38044">
        <ele>275.3</ele>
        <time>2021-06-16T06:46:45.000Z</time>
      </trkpt>
      <trkpt lat="43.50466" lon="6.38046">
        <ele>274.8</ele>
        <time>2021-06-16T06:46:49.000Z</time>
      </trkpt>
      <trkpt lat="43.50471" lon="6.38048">
        <ele>274.3</ele>
        <time>2021-06-16T06:46:53.000Z</time>
      </trkpt>
      <trkpt lat="43.50477" lon="6.38051">
        <ele>273.7</ele>
        <time>2021-06-16T06:46:58.000Z</time>
      </trkpt>
      <trkpt lat="43.50481" lon="6.38056">
        <ele>273.3</ele>
        <time>2021-06-16T06:47:02.000Z</time>
      </trkpt>
      <trkpt lat="43.50486" lon="6.3806">
        <ele>272.9</ele>
        <time>2021-06-16T06:47:06.000Z</time>
      </trkpt>
      <trkpt lat="43.5049" lon="6.38063">
        <ele>272</ele>
        <time>2021-06-16T06:47:10.000Z</time>
      </trkpt>
      <trkpt lat="43.50494" lon="6.38065">
        <ele>271.1</ele>
        <time>2021-06-16T06:47:14.000Z</time>
      </trkpt>
      <trkpt lat="43.50499" lon="6.38068">
        <ele>270.1</ele>
        <time>2021-06-16T06:47:20.000Z</time>
      </trkpt>
      <trkpt lat="43.50504" lon="6.38071">
        <ele>269</ele>
        <time>2021-06-16T06:47:27.000Z</time>
      </trkpt>
      <trkpt lat="43.50509" lon="6.38072">
        <ele>268.4</ele>
        <time>2021-06-16T06:47:33.000Z</time>
      </trkpt>
      <trkpt lat="43.50513" lon="6.38075">
        <ele>267.8</ele>
        <time>2021-06-16T06:47:39.000Z</time>
      </trkpt>
      <trkpt lat="43.50518" lon="6.38077">
        <ele>267.1</ele>
        <time>2021-06-16T06:47:44.000Z</time>
      </trkpt>
      <trkpt lat="43.50523" lon="6.38077">
        <ele>266.5</ele>
        <time>2021-06-16T06:47:49.000Z</time>
      </trkpt>
      <trkpt lat="43.50528" lon="6.38075">
        <ele>266</ele>
        <time>2021-06-16T06:47:54.000Z</time>
      </trkpt>
      <trkpt lat="43.50532" lon="6.38073">
        <ele>265.5</ele>
        <time>2021-06-16T06:47:59.000Z</time>
      </trkpt>
      <trkpt lat="43.50538" lon="6.38072">
        <ele>264.4</ele>
        <time>2021-06-16T06:48:07.000Z</time>
      </trkpt>
      <trkpt lat="43.50543" lon="6.38069">
        <ele>263.9</ele>
        <time>2021-06-16T06:48:10.000Z</time>
      </trkpt>
      <trkpt lat="43.50548" lon="6.38069">
        <ele>263.4</ele>
        <time>2021-06-16T06:48:14.000Z</time>
      </trkpt>
      <trkpt lat="43.50553" lon="6.38068">
        <ele>262.6</ele>
        <time>2021-06-16T06:48:19.000Z</time>
      </trkpt>
      <trkpt lat="43.50557" lon="6.38066">
        <ele>262</ele>
        <time>2021-06-16T06:48:23.000Z</time>
      </trkpt>
      <trkpt lat="43.50562" lon="6.38066">
        <ele>261</ele>
        <time>2021-06-16T06:48:29.000Z</time>
      </trkpt>
      <trkpt lat="43.50568" lon="6.38063">
        <ele>260.4</ele>
        <time>2021-06-16T06:48:32.000Z</time>
      </trkpt>
      <trkpt lat="43.50573" lon="6.38061">
        <ele>259.7</ele>
        <time>2021-06-16T06:48:36.000Z</time>
      </trkpt>
      <trkpt lat="43.50578" lon="6.3806">
        <ele>258.9</ele>
        <time>2021-06-16T06:48:42.000Z</time>
      </trkpt>
      <trkpt lat="43.50583" lon="6.38057">
        <ele>258.5</ele>
        <time>2021-06-16T06:48:45.000Z</time>
      </trkpt>
      <trkpt lat="43.50588" lon="6.38057">
        <ele>257.7</ele>
        <time>2021-06-16T06:48:51.000Z</time>
      </trkpt>
      <trkpt lat="43.50593" lon="6.38056">
        <ele>256.8</ele>
        <time>2021-06-16T06:48:57.000Z</time>
      </trkpt>
      <trkpt lat="43.50599" lon="6.38053">
        <ele>256.2</ele>
        <time>2021-06-16T06:49:01.000Z</time>
      </trkpt>
      <trkpt lat="43.50604" lon="6.38051">
        <ele>255.7</ele>
        <time>2021-06-16T06:49:06.000Z</time>
      </trkpt>
      <trkpt lat="43.50609" lon="6.38048">
        <ele>255.4</ele>
        <time>2021-06-16T06:49:09.000Z</time>
      </trkpt>
      <trkpt lat="43.50613" lon="6.38046">
        <ele>254.7</ele>
        <time>2021-06-16T06:49:13.000Z</time>
      </trkpt>
      <trkpt lat="43.50618" lon="6.38044">
        <ele>253.9</ele>
        <time>2021-06-16T06:49:17.000Z</time>
      </trkpt>
      <trkpt lat="43.50623" lon="6.38045">
        <ele>253</ele>
        <time>2021-06-16T06:49:25.000Z</time>
      </trkpt>
      <trkpt lat="43.50627" lon="6.38047">
        <ele>252.3</ele>
        <time>2021-06-16T06:49:30.000Z</time>
      </trkpt>
      <trkpt lat="43.50632" lon="6.38045">
        <ele>251.5</ele>
        <time>2021-06-16T06:49:36.000Z</time>
      </trkpt>
      <trkpt lat="43.50637" lon="6.38043">
        <ele>251</ele>
        <time>2021-06-16T06:49:41.000Z</time>
      </trkpt>
      <trkpt lat="43.50641" lon="6.3804">
        <ele>250.6</ele>
        <time>2021-06-16T06:49:45.000Z</time>
      </trkpt>
      <trkpt lat="43.50647" lon="6.38038">
        <ele>250.1</ele>
        <time>2021-06-16T06:49:50.000Z</time>
      </trkpt>
      <trkpt lat="43.50652" lon="6.38037">
        <ele>249.9</ele>
        <time>2021-06-16T06:49:55.000Z</time>
      </trkpt>
      <trkpt lat="43.50656" lon="6.38035">
        <ele>249.6</ele>
        <time>2021-06-16T06:49:59.000Z</time>
      </trkpt>
      <trkpt lat="43.50661" lon="6.38033">
        <ele>249.1</ele>
        <time>2021-06-16T06:50:03.000Z</time>
      </trkpt>
      <trkpt lat="43.50666" lon="6.38031">
        <ele>248.5</ele>
        <time>2021-06-16T06:50:08.000Z</time>
      </trkpt>
      <trkpt lat="43.50671" lon="6.38029">
        <ele>248.3</ele>
        <time>2021-06-16T06:50:11.000Z</time>
      </trkpt>
      <trkpt lat="43.50677" lon="6.38028">
        <ele>248</ele>
        <time>2021-06-16T06:50:16.000Z</time>
      </trkpt>
      <trkpt lat="43.50681" lon="6.38027">
        <ele>247.9</ele>
        <time>2021-06-16T06:50:22.000Z</time>
      </trkpt>
      <trkpt lat="43.50686" lon="6.38023">
        <ele>247.6</ele>
        <time>2021-06-16T06:50:27.000Z</time>
      </trkpt>
      <trkpt lat="43.50691" lon="6.38023">
        <ele>247.3</ele>
        <time>2021-06-16T06:50:31.000Z</time>
      </trkpt>
      <trkpt lat="43.50696" lon="6.38024">
        <ele>247.1</ele>
        <time>2021-06-16T06:50:37.000Z</time>
      </trkpt>
      <trkpt lat="43.50701" lon="6.38019">
        <ele>246.6</ele>
        <time>2021-06-16T06:50:43.000Z</time>
      </trkpt>
      <trkpt lat="43.50705" lon="6.38018">
        <ele>246.3</ele>
        <time>2021-06-16T06:50:47.000Z</time>
      </trkpt>
      <trkpt lat="43.50709" lon="6.38013">
        <ele>245.9</ele>
        <time>2021-06-16T06:50:52.000Z</time>
      </trkpt>
      <trkpt lat="43.50713" lon="6.38008">
        <ele>245.5</ele>
        <time>2021-06-16T06:50:56.000Z</time>
      </trkpt>
      <trkpt lat="43.50717" lon="6.38004">
        <ele>245.2</ele>
        <time>2021-06-16T06:50:59.000Z</time>
      </trkpt>
      <trkpt lat="43.50721" lon="6.38001">
        <ele>244.7</ele>
        <time>2021-06-16T06:51:03.000Z</time>
      </trkpt>
      <trkpt lat="43.50725" lon="6.37997">
        <ele>244.1</ele>
        <time>2021-06-16T06:51:10.000Z</time>
      </trkpt>
      <trkpt lat="43.5073" lon="6.37994">
        <ele>243.4</ele>
        <time>2021-06-16T06:51:17.000Z</time>
      </trkpt>
      <trkpt lat="43.50734" lon="6.37991">
        <ele>242.9</ele>
        <time>2021-06-16T06:51:24.000Z</time>
      </trkpt>
      <trkpt lat="43.50736" lon="6.37985">
        <ele>242.6</ele>
        <time>2021-06-16T06:51:38.000Z</time>
      </trkpt>
      <trkpt lat="43.5074" lon="6.37987">
        <ele>242.5</ele>
        <time>2021-06-16T06:52:11.000Z</time>
      </trkpt>
      <trkpt lat="43.50745" lon="6.37988">
        <ele>242.5</ele>
        <time>2021-06-16T06:52:38.000Z</time>
      </trkpt>
      <trkpt lat="43.5075" lon="6.37988">
        <ele>242.5</ele>
        <time>2021-06-16T06:52:43.000Z</time>
      </trkpt>
      <trkpt lat="43.50755" lon="6.37989">
        <ele>242.5</ele>
        <time>2021-06-16T06:52:49.000Z</time>
      </trkpt>
      <trkpt lat="43.5076" lon="6.37987">
        <ele>242.5</ele>
        <time>2021-06-16T06:52:53.000Z</time>
      </trkpt>
      <trkpt lat="43.50765" lon="6.37988">
        <ele>242.4</ele>
        <time>2021-06-16T06:52:58.000Z</time>
      </trkpt>
      <trkpt lat="43.5077" lon="6.37989">
        <ele>242.1</ele>
        <time>2021-06-16T06:53:02.000Z</time>
      </trkpt>
      <trkpt lat="43.50775" lon="6.37987">
        <ele>241.9</ele>
        <time>2021-06-16T06:53:05.000Z</time>
      </trkpt>
      <trkpt lat="43.50781" lon="6.37987">
        <ele>241.6</ele>
        <time>2021-06-16T06:53:09.000Z</time>
      </trkpt>
      <trkpt lat="43.50786" lon="6.37987">
        <ele>241.5</ele>
        <time>2021-06-16T06:53:12.000Z</time>
      </trkpt>
      <trkpt lat="43.50791" lon="6.37986">
        <ele>241.6</ele>
        <time>2021-06-16T06:53:15.000Z</time>
      </trkpt>
      <trkpt lat="43.50796" lon="6.37987">
        <ele>241.7</ele>
        <time>2021-06-16T06:53:19.000Z</time>
      </trkpt>
      <trkpt lat="43.50801" lon="6.37987">
        <ele>241.5</ele>
        <time>2021-06-16T06:53:23.000Z</time>
      </trkpt>
      <trkpt lat="43.50805" lon="6.37987">
        <ele>241.5</ele>
        <time>2021-06-16T06:53:26.000Z</time>
      </trkpt>
      <trkpt lat="43.50811" lon="6.37986">
        <ele>241.5</ele>
        <time>2021-06-16T06:53:30.000Z</time>
      </trkpt>
      <trkpt lat="43.50816" lon="6.37987">
        <ele>241.5</ele>
        <time>2021-06-16T06:53:34.000Z</time>
      </trkpt>
      <trkpt lat="43.50821" lon="6.37987">
        <ele>241.3</ele>
        <time>2021-06-16T06:53:37.000Z</time>
      </trkpt>
      <trkpt lat="43.50825" lon="6.3799">
        <ele>241.2</ele>
        <time>2021-06-16T06:53:41.000Z</time>
      </trkpt>
      <trkpt lat="43.5083" lon="6.37991">
        <ele>241</ele>
        <time>2021-06-16T06:53:46.000Z</time>
      </trkpt>
      <trkpt lat="43.50835" lon="6.3799">
        <ele>240.6</ele>
        <time>2021-06-16T06:53:52.000Z</time>
      </trkpt>
      <trkpt lat="43.50839" lon="6.3799">
        <ele>240.8</ele>
        <time>2021-06-16T06:53:56.000Z</time>
      </trkpt>
      <trkpt lat="43.50844" lon="6.37993">
        <ele>241.3</ele>
        <time>2021-06-16T06:54:02.000Z</time>
      </trkpt>
      <trkpt lat="43.50849" lon="6.37995">
        <ele>241.5</ele>
        <time>2021-06-16T06:54:07.000Z</time>
      </trkpt>
      <trkpt lat="43.50854" lon="6.37999">
        <ele>241.9</ele>
        <time>2021-06-16T06:54:12.000Z</time>
      </trkpt>
      <trkpt lat="43.50858" lon="6.38001">
        <ele>242.3</ele>
        <time>2021-06-16T06:54:17.000Z</time>
      </trkpt>
      <trkpt lat="43.50863" lon="6.38002">
        <ele>242.4</ele>
        <time>2021-06-16T06:54:22.000Z</time>
      </trkpt>
      <trkpt lat="43.50868" lon="6.38005">
        <ele>242.6</ele>
        <time>2021-06-16T06:54:26.000Z</time>
      </trkpt>
      <trkpt lat="43.50872" lon="6.38007">
        <ele>242.9</ele>
        <time>2021-06-16T06:54:30.000Z</time>
      </trkpt>
      <trkpt lat="43.50877" lon="6.38009">
        <ele>243.3</ele>
        <time>2021-06-16T06:54:35.000Z</time>
      </trkpt>
      <trkpt lat="43.50882" lon="6.38012">
        <ele>243.5</ele>
        <time>2021-06-16T06:54:40.000Z</time>
      </trkpt>
      <trkpt lat="43.50887" lon="6.38012">
        <ele>244.1</ele>
        <time>2021-06-16T06:54:46.000Z</time>
      </trkpt>
      <trkpt lat="43.50891" lon="6.38013">
        <ele>244.4</ele>
        <time>2021-06-16T06:54:50.000Z</time>
      </trkpt>
      <trkpt lat="43.50896" lon="6.38012">
        <ele>244.4</ele>
        <time>2021-06-16T06:54:54.000Z</time>
      </trkpt>
      <trkpt lat="43.50901" lon="6.38011">
        <ele>244.5</ele>
        <time>2021-06-16T06:54:58.000Z</time>
      </trkpt>
      <trkpt lat="43.50906" lon="6.38012">
        <ele>244.5</ele>
        <time>2021-06-16T06:55:02.000Z</time>
      </trkpt>
      <trkpt lat="43.50911" lon="6.38014">
        <ele>245</ele>
        <time>2021-06-16T06:55:08.000Z</time>
      </trkpt>
      <trkpt lat="43.50916" lon="6.38012">
        <ele>245.6</ele>
        <time>2021-06-16T06:55:13.000Z</time>
      </trkpt>
      <trkpt lat="43.50921" lon="6.3801">
        <ele>245.8</ele>
        <time>2021-06-16T06:55:16.000Z</time>
      </trkpt>
      <trkpt lat="43.50926" lon="6.38009">
        <ele>246</ele>
        <time>2021-06-16T06:55:19.000Z</time>
      </trkpt>
      <trkpt lat="43.50931" lon="6.38007">
        <ele>246.4</ele>
        <time>2021-06-16T06:55:23.000Z</time>
      </trkpt>
      <trkpt lat="43.50937" lon="6.38005">
        <ele>246.8</ele>
        <time>2021-06-16T06:55:27.000Z</time>
      </trkpt>
      <trkpt lat="43.50942" lon="6.38003">
        <ele>246.9</ele>
        <time>2021-06-16T06:55:31.000Z</time>
      </trkpt>
      <trkpt lat="43.50948" lon="6.38">
        <ele>247</ele>
        <time>2021-06-16T06:55:35.000Z</time>
      </trkpt>
      <trkpt lat="43.50953" lon="6.37998">
        <ele>247.2</ele>
        <time>2021-06-16T06:55:39.000Z</time>
      </trkpt>
      <trkpt lat="43.50957" lon="6.37996">
        <ele>247.3</ele>
        <time>2021-06-16T06:55:43.000Z</time>
      </trkpt>
      <trkpt lat="43.50962" lon="6.37995">
        <ele>247.8</ele>
        <time>2021-06-16T06:55:49.000Z</time>
      </trkpt>
      <trkpt lat="43.50967" lon="6.37994">
        <ele>248</ele>
        <time>2021-06-16T06:55:53.000Z</time>
      </trkpt>
      <trkpt lat="43.50972" lon="6.3799">
        <ele>248.2</ele>
        <time>2021-06-16T06:55:58.000Z</time>
      </trkpt>
      <trkpt lat="43.50977" lon="6.37989">
        <ele>248.6</ele>
        <time>2021-06-16T06:56:16.000Z</time>
      </trkpt>
      <trkpt lat="43.50981" lon="6.37986">
        <ele>248.5</ele>
        <time>2021-06-16T06:56:23.000Z</time>
      </trkpt>
      <trkpt lat="43.50985" lon="6.37984">
        <ele>248.9</ele>
        <time>2021-06-16T06:56:33.000Z</time>
      </trkpt>
      <trkpt lat="43.5099" lon="6.37987">
        <ele>248.6</ele>
        <time>2021-06-16T06:56:41.000Z</time>
      </trkpt>
      <trkpt lat="43.50994" lon="6.37991">
        <ele>248.5</ele>
        <time>2021-06-16T06:56:49.000Z</time>
      </trkpt>
      <trkpt lat="43.50998" lon="6.37991">
        <ele>248.4</ele>
        <time>2021-06-16T06:56:52.000Z</time>
      </trkpt>
      <trkpt lat="43.51003" lon="6.37991">
        <ele>248.3</ele>
        <time>2021-06-16T06:56:55.000Z</time>
      </trkpt>
      <trkpt lat="43.51008" lon="6.37993">
        <ele>247.9</ele>
        <time>2021-06-16T06:56:59.000Z</time>
      </trkpt>
      <trkpt lat="43.51012" lon="6.37993">
        <ele>247.6</ele>
        <time>2021-06-16T06:57:03.000Z</time>
      </trkpt>
      <trkpt lat="43.51017" lon="6.37996">
        <ele>247.6</ele>
        <time>2021-06-16T06:57:08.000Z</time>
      </trkpt>
      <trkpt lat="43.51022" lon="6.37996">
        <ele>247.1</ele>
        <time>2021-06-16T06:57:13.000Z</time>
      </trkpt>
      <trkpt lat="43.51027" lon="6.38001">
        <ele>246.9</ele>
        <time>2021-06-16T06:57:19.000Z</time>
      </trkpt>
      <trkpt lat="43.51032" lon="6.38003">
        <ele>246.4</ele>
        <time>2021-06-16T06:57:26.000Z</time>
      </trkpt>
      <trkpt lat="43.51037" lon="6.38005">
        <ele>246.2</ele>
        <time>2021-06-16T06:57:29.000Z</time>
      </trkpt>
      <trkpt lat="43.51042" lon="6.38008">
        <ele>245.9</ele>
        <time>2021-06-16T06:57:33.000Z</time>
      </trkpt>
      <trkpt lat="43.51046" lon="6.38009">
        <ele>245.8</ele>
        <time>2021-06-16T06:57:37.000Z</time>
      </trkpt>
      <trkpt lat="43.51051" lon="6.38008">
        <ele>245.7</ele>
        <time>2021-06-16T06:57:42.000Z</time>
      </trkpt>
      <trkpt lat="43.51057" lon="6.3801">
        <ele>245.4</ele>
        <time>2021-06-16T06:57:47.000Z</time>
      </trkpt>
      <trkpt lat="43.51062" lon="6.3801">
        <ele>244.8</ele>
        <time>2021-06-16T06:57:51.000Z</time>
      </trkpt>
      <trkpt lat="43.51067" lon="6.38011">
        <ele>244.1</ele>
        <time>2021-06-16T06:57:56.000Z</time>
      </trkpt>
      <trkpt lat="43.51072" lon="6.38012">
        <ele>243.7</ele>
        <time>2021-06-16T06:57:59.000Z</time>
      </trkpt>
      <trkpt lat="43.51077" lon="6.38014">
        <ele>242.9</ele>
        <time>2021-06-16T06:58:03.000Z</time>
      </trkpt>
      <trkpt lat="43.51082" lon="6.38017">
        <ele>242.2</ele>
        <time>2021-06-16T06:58:08.000Z</time>
      </trkpt>
      <trkpt lat="43.51086" lon="6.3802">
        <ele>241.7</ele>
        <time>2021-06-16T06:58:13.000Z</time>
      </trkpt>
      <trkpt lat="43.51091" lon="6.38021">
        <ele>240.7</ele>
        <time>2021-06-16T06:58:20.000Z</time>
      </trkpt>
      <trkpt lat="43.51096" lon="6.38022">
        <ele>240.2</ele>
        <time>2021-06-16T06:58:24.000Z</time>
      </trkpt>
      <trkpt lat="43.51101" lon="6.38022">
        <ele>239.5</ele>
        <time>2021-06-16T06:58:28.000Z</time>
      </trkpt>
      <trkpt lat="43.51106" lon="6.38022">
        <ele>239</ele>
        <time>2021-06-16T06:58:31.000Z</time>
      </trkpt>
      <trkpt lat="43.51112" lon="6.38019">
        <ele>238.3</ele>
        <time>2021-06-16T06:58:35.000Z</time>
      </trkpt>
      <trkpt lat="43.51117" lon="6.38016">
        <ele>237.9</ele>
        <time>2021-06-16T06:58:39.000Z</time>
      </trkpt>
      <trkpt lat="43.51121" lon="6.38013">
        <ele>237.5</ele>
        <time>2021-06-16T06:58:43.000Z</time>
      </trkpt>
      <trkpt lat="43.51124" lon="6.38007">
        <ele>237.2</ele>
        <time>2021-06-16T06:58:47.000Z</time>
      </trkpt>
      <trkpt lat="43.51127" lon="6.38003">
        <ele>236.8</ele>
        <time>2021-06-16T06:58:52.000Z</time>
      </trkpt>
      <trkpt lat="43.51131" lon="6.38">
        <ele>236.1</ele>
        <time>2021-06-16T06:58:57.000Z</time>
      </trkpt>
      <trkpt lat="43.51135" lon="6.37994">
        <ele>235.7</ele>
        <time>2021-06-16T06:59:02.000Z</time>
      </trkpt>
      <trkpt lat="43.51138" lon="6.37989">
        <ele>235.3</ele>
        <time>2021-06-16T06:59:06.000Z</time>
      </trkpt>
      <trkpt lat="43.51142" lon="6.37985">
        <ele>234.9</ele>
        <time>2021-06-16T06:59:10.000Z</time>
      </trkpt>
      <trkpt lat="43.51146" lon="6.37981">
        <ele>234.6</ele>
        <time>2021-06-16T06:59:13.000Z</time>
      </trkpt>
      <trkpt lat="43.51149" lon="6.37975">
        <ele>234.2</ele>
        <time>2021-06-16T06:59:18.000Z</time>
      </trkpt>
      <trkpt lat="43.51153" lon="6.3797">
        <ele>233.9</ele>
        <time>2021-06-16T06:59:21.000Z</time>
      </trkpt>
      <trkpt lat="43.51156" lon="6.37966">
        <ele>233.6</ele>
        <time>2021-06-16T06:59:25.000Z</time>
      </trkpt>
      <trkpt lat="43.51159" lon="6.3796">
        <ele>233.4</ele>
        <time>2021-06-16T06:59:29.000Z</time>
      </trkpt>
      <trkpt lat="43.51162" lon="6.37955">
        <ele>233.1</ele>
        <time>2021-06-16T06:59:33.000Z</time>
      </trkpt>
      <trkpt lat="43.51164" lon="6.37949">
        <ele>232.8</ele>
        <time>2021-06-16T06:59:37.000Z</time>
      </trkpt>
      <trkpt lat="43.51165" lon="6.37943">
        <ele>232.3</ele>
        <time>2021-06-16T06:59:43.000Z</time>
      </trkpt>
      <trkpt lat="43.51167" lon="6.37937">
        <ele>231.8</ele>
        <time>2021-06-16T06:59:47.000Z</time>
      </trkpt>
      <trkpt lat="43.51168" lon="6.3793">
        <ele>230.9</ele>
        <time>2021-06-16T06:59:52.000Z</time>
      </trkpt>
      <trkpt lat="43.51169" lon="6.37924">
        <ele>230.5</ele>
        <time>2021-06-16T06:59:56.000Z</time>
      </trkpt>
      <trkpt lat="43.51169" lon="6.37916">
        <ele>230.1</ele>
        <time>2021-06-16T07:00:01.000Z</time>
      </trkpt>
      <trkpt lat="43.51169" lon="6.37909">
        <ele>229.7</ele>
        <time>2021-06-16T07:00:08.000Z</time>
      </trkpt>
      <trkpt lat="43.51169" lon="6.37902">
        <ele>229.5</ele>
        <time>2021-06-16T07:00:14.000Z</time>
      </trkpt>
      <trkpt lat="43.5117" lon="6.37895">
        <ele>229.5</ele>
        <time>2021-06-16T07:00:18.000Z</time>
      </trkpt>
      <trkpt lat="43.5117" lon="6.37888">
        <ele>229.5</ele>
        <time>2021-06-16T07:00:27.000Z</time>
      </trkpt>
      <trkpt lat="43.51174" lon="6.37884">
        <ele>229.8</ele>
        <time>2021-06-16T07:00:43.000Z</time>
      </trkpt>
      <trkpt lat="43.51176" lon="6.3789">
        <ele>229.9</ele>
        <time>2021-06-16T07:01:03.000Z</time>
      </trkpt>
      <trkpt lat="43.51181" lon="6.37892">
        <ele>230.6</ele>
        <time>2021-06-16T07:01:13.000Z</time>
      </trkpt>
      <trkpt lat="43.51186" lon="6.37893">
        <ele>230.9</ele>
        <time>2021-06-16T07:01:17.000Z</time>
      </trkpt>
      <trkpt lat="43.5119" lon="6.37895">
        <ele>231.1</ele>
        <time>2021-06-16T07:01:21.000Z</time>
      </trkpt>
      <trkpt lat="43.51194" lon="6.37899">
        <ele>231.4</ele>
        <time>2021-06-16T07:01:26.000Z</time>
      </trkpt>
      <trkpt lat="43.51199" lon="6.37901">
        <ele>233</ele>
        <time>2021-06-16T07:01:37.000Z</time>
      </trkpt>
      <trkpt lat="43.51203" lon="6.37898">
        <ele>233.8</ele>
        <time>2021-06-16T07:01:42.000Z</time>
      </trkpt>
      <trkpt lat="43.51208" lon="6.37895">
        <ele>234.4</ele>
        <time>2021-06-16T07:01:47.000Z</time>
      </trkpt>
      <trkpt lat="43.51211" lon="6.37889">
        <ele>235.3</ele>
        <time>2021-06-16T07:01:52.000Z</time>
      </trkpt>
      <trkpt lat="43.51213" lon="6.37883">
        <ele>236.1</ele>
        <time>2021-06-16T07:01:57.000Z</time>
      </trkpt>
      <trkpt lat="43.51213" lon="6.37876">
        <ele>237.2</ele>
        <time>2021-06-16T07:02:06.000Z</time>
      </trkpt>
      <trkpt lat="43.51211" lon="6.37869">
        <ele>237.8</ele>
        <time>2021-06-16T07:02:11.000Z</time>
      </trkpt>
      <trkpt lat="43.51211" lon="6.37863">
        <ele>238.6</ele>
        <time>2021-06-16T07:02:16.000Z</time>
      </trkpt>
      <trkpt lat="43.51209" lon="6.37856">
        <ele>239.6</ele>
        <time>2021-06-16T07:02:21.000Z</time>
      </trkpt>
      <trkpt lat="43.51207" lon="6.37849">
        <ele>240.8</ele>
        <time>2021-06-16T07:02:29.000Z</time>
      </trkpt>
      <trkpt lat="43.51206" lon="6.37842">
        <ele>242.4</ele>
        <time>2021-06-16T07:02:37.000Z</time>
      </trkpt>
      <trkpt lat="43.51204" lon="6.37836">
        <ele>243.2</ele>
        <time>2021-06-16T07:02:43.000Z</time>
      </trkpt>
      <trkpt lat="43.51204" lon="6.37829">
        <ele>243.9</ele>
        <time>2021-06-16T07:02:49.000Z</time>
      </trkpt>
      <trkpt lat="43.51204" lon="6.37823">
        <ele>244.4</ele>
        <time>2021-06-16T07:02:54.000Z</time>
      </trkpt>
      <trkpt lat="43.51202" lon="6.37817">
        <ele>244.9</ele>
        <time>2021-06-16T07:02:59.000Z</time>
      </trkpt>
      <trkpt lat="43.512" lon="6.37811">
        <ele>245.5</ele>
        <time>2021-06-16T07:03:05.000Z</time>
      </trkpt>
      <trkpt lat="43.51201" lon="6.37804">
        <ele>246.2</ele>
        <time>2021-06-16T07:03:10.000Z</time>
      </trkpt>
      <trkpt lat="43.51201" lon="6.37798">
        <ele>246.8</ele>
        <time>2021-06-16T07:03:15.000Z</time>
      </trkpt>
      <trkpt lat="43.51197" lon="6.37793">
        <ele>247.3</ele>
        <time>2021-06-16T07:03:21.000Z</time>
      </trkpt>
      <trkpt lat="43.51195" lon="6.37787">
        <ele>248.1</ele>
        <time>2021-06-16T07:03:27.000Z</time>
      </trkpt>
      <trkpt lat="43.51194" lon="6.37779">
        <ele>248.5</ele>
        <time>2021-06-16T07:03:31.000Z</time>
      </trkpt>
      <trkpt lat="43.51191" lon="6.37773">
        <ele>248.8</ele>
        <time>2021-06-16T07:03:35.000Z</time>
      </trkpt>
      <trkpt lat="43.5119" lon="6.37766">
        <ele>249.3</ele>
        <time>2021-06-16T07:03:41.000Z</time>
      </trkpt>
      <trkpt lat="43.51187" lon="6.3776">
        <ele>249.7</ele>
        <time>2021-06-16T07:03:45.000Z</time>
      </trkpt>
      <trkpt lat="43.51187" lon="6.37752">
        <ele>250.1</ele>
        <time>2021-06-16T07:03:49.000Z</time>
      </trkpt>
      <trkpt lat="43.51184" lon="6.37747">
        <ele>250.8</ele>
        <time>2021-06-16T07:03:57.000Z</time>
      </trkpt>
      <trkpt lat="43.51181" lon="6.37743">
        <ele>251.5</ele>
        <time>2021-06-16T07:04:06.000Z</time>
      </trkpt>
      <trkpt lat="43.51179" lon="6.37737">
        <ele>252.9</ele>
        <time>2021-06-16T07:04:14.000Z</time>
      </trkpt>
      <trkpt lat="43.51179" lon="6.37729">
        <ele>253.6</ele>
        <time>2021-06-16T07:04:21.000Z</time>
      </trkpt>
      <trkpt lat="43.51179" lon="6.37723">
        <ele>254.4</ele>
        <time>2021-06-16T07:04:26.000Z</time>
      </trkpt>
      <trkpt lat="43.5118" lon="6.37716">
        <ele>254.9</ele>
        <time>2021-06-16T07:04:30.000Z</time>
      </trkpt>
      <trkpt lat="43.51181" lon="6.37709">
        <ele>257.1</ele>
        <time>2021-06-16T07:04:44.000Z</time>
      </trkpt>
      <trkpt lat="43.51184" lon="6.37704">
        <ele>258</ele>
        <time>2021-06-16T07:04:58.000Z</time>
      </trkpt>
      <trkpt lat="43.51181" lon="6.37698">
        <ele>259</ele>
        <time>2021-06-16T07:05:31.000Z</time>
      </trkpt>
      <trkpt lat="43.51183" lon="6.37692">
        <ele>259.6</ele>
        <time>2021-06-16T07:05:37.000Z</time>
      </trkpt>
      <trkpt lat="43.51185" lon="6.37686">
        <ele>260.2</ele>
        <time>2021-06-16T07:05:45.000Z</time>
      </trkpt>
      <trkpt lat="43.51185" lon="6.3768">
        <ele>260.9</ele>
        <time>2021-06-16T07:05:54.000Z</time>
      </trkpt>
      <trkpt lat="43.51182" lon="6.37674">
        <ele>261.9</ele>
        <time>2021-06-16T07:06:01.000Z</time>
      </trkpt>
      <trkpt lat="43.51181" lon="6.37666">
        <ele>263.1</ele>
        <time>2021-06-16T07:06:07.000Z</time>
      </trkpt>
      <trkpt lat="43.5118" lon="6.3766">
        <ele>264.4</ele>
        <time>2021-06-16T07:06:15.000Z</time>
      </trkpt>
      <trkpt lat="43.51179" lon="6.37654">
        <ele>266.5</ele>
        <time>2021-06-16T07:06:30.000Z</time>
      </trkpt>
      <trkpt lat="43.51179" lon="6.37647">
        <ele>267.5</ele>
        <time>2021-06-16T07:06:40.000Z</time>
      </trkpt>
      <trkpt lat="43.51177" lon="6.37641">
        <ele>268.9</ele>
        <time>2021-06-16T07:06:51.000Z</time>
      </trkpt>
      <trkpt lat="43.51175" lon="6.37635">
        <ele>270.3</ele>
        <time>2021-06-16T07:06:59.000Z</time>
      </trkpt>
      <trkpt lat="43.51173" lon="6.3763">
        <ele>272.5</ele>
        <time>2021-06-16T07:07:10.000Z</time>
      </trkpt>
      <trkpt lat="43.51174" lon="6.37623">
        <ele>274.1</ele>
        <time>2021-06-16T07:07:17.000Z</time>
      </trkpt>
      <trkpt lat="43.51171" lon="6.37618">
        <ele>275.5</ele>
        <time>2021-06-16T07:07:25.000Z</time>
      </trkpt>
      <trkpt lat="43.51172" lon="6.37612">
        <ele>276.3</ele>
        <time>2021-06-16T07:07:32.000Z</time>
      </trkpt>
      <trkpt lat="43.51172" lon="6.37605">
        <ele>277.5</ele>
        <time>2021-06-16T07:07:39.000Z</time>
      </trkpt>
      <trkpt lat="43.51173" lon="6.37599">
        <ele>279.3</ele>
        <time>2021-06-16T07:07:52.000Z</time>
      </trkpt>
      <trkpt lat="43.51176" lon="6.37593">
        <ele>279.7</ele>
        <time>2021-06-16T07:08:00.000Z</time>
      </trkpt>
      <trkpt lat="43.51179" lon="6.37587">
        <ele>280.4</ele>
        <time>2021-06-16T07:08:07.000Z</time>
      </trkpt>
      <trkpt lat="43.5118" lon="6.37581">
        <ele>281.3</ele>
        <time>2021-06-16T07:08:14.000Z</time>
      </trkpt>
      <trkpt lat="43.5118" lon="6.37574">
        <ele>281.9</ele>
        <time>2021-06-16T07:08:20.000Z</time>
      </trkpt>
      <trkpt lat="43.51177" lon="6.37569">
        <ele>282.8</ele>
        <time>2021-06-16T07:08:28.000Z</time>
      </trkpt>
      <trkpt lat="43.51177" lon="6.37562">
        <ele>283.7</ele>
        <time>2021-06-16T07:08:33.000Z</time>
      </trkpt>
      <trkpt lat="43.51176" lon="6.37556">
        <ele>285.4</ele>
        <time>2021-06-16T07:08:42.000Z</time>
      </trkpt>
      <trkpt lat="43.51172" lon="6.37551">
        <ele>286.7</ele>
        <time>2021-06-16T07:08:50.000Z</time>
      </trkpt>
      <trkpt lat="43.51168" lon="6.37548">
        <ele>287.3</ele>
        <time>2021-06-16T07:08:55.000Z</time>
      </trkpt>
      <trkpt lat="43.51167" lon="6.37541">
        <ele>288.3</ele>
        <time>2021-06-16T07:09:02.000Z</time>
      </trkpt>
      <trkpt lat="43.51165" lon="6.37536">
        <ele>289.3</ele>
        <time>2021-06-16T07:09:08.000Z</time>
      </trkpt>
      <trkpt lat="43.51161" lon="6.37531">
        <ele>290.4</ele>
        <time>2021-06-16T07:09:14.000Z</time>
      </trkpt>
      <trkpt lat="43.51157" lon="6.37527">
        <ele>291.1</ele>
        <time>2021-06-16T07:09:18.000Z</time>
      </trkpt>
      <trkpt lat="43.51154" lon="6.37523">
        <ele>291.9</ele>
        <time>2021-06-16T07:09:24.000Z</time>
      </trkpt>
      <trkpt lat="43.5115" lon="6.37519">
        <ele>293</ele>
        <time>2021-06-16T07:09:32.000Z</time>
      </trkpt>
      <trkpt lat="43.51147" lon="6.37514">
        <ele>293.6</ele>
        <time>2021-06-16T07:09:37.000Z</time>
      </trkpt>
      <trkpt lat="43.51144" lon="6.37509">
        <ele>294.1</ele>
        <time>2021-06-16T07:09:41.000Z</time>
      </trkpt>
      <trkpt lat="43.51141" lon="6.37503">
        <ele>294.8</ele>
        <time>2021-06-16T07:09:48.000Z</time>
      </trkpt>
      <trkpt lat="43.51137" lon="6.37502">
        <ele>296.1</ele>
        <time>2021-06-16T07:10:01.000Z</time>
      </trkpt>
      <trkpt lat="43.51138" lon="6.37495">
        <ele>296.8</ele>
        <time>2021-06-16T07:10:26.000Z</time>
      </trkpt>
      <trkpt lat="43.51143" lon="6.37491">
        <ele>296.8</ele>
        <time>2021-06-16T07:10:48.000Z</time>
      </trkpt>
      <trkpt lat="43.51146" lon="6.37486">
        <ele>296.7</ele>
        <time>2021-06-16T07:11:01.000Z</time>
      </trkpt>
      <trkpt lat="43.51141" lon="6.37488">
        <ele>296.9</ele>
        <time>2021-06-16T07:11:11.000Z</time>
      </trkpt>
      <trkpt lat="43.51146" lon="6.37485">
        <ele>297.2</ele>
        <time>2021-06-16T07:11:40.000Z</time>
      </trkpt>
      <trkpt lat="43.51141" lon="6.37488">
        <ele>297.6</ele>
        <time>2021-06-16T07:12:06.000Z</time>
      </trkpt>
      <trkpt lat="43.51146" lon="6.37489">
        <ele>297.3</ele>
        <time>2021-06-16T07:13:07.000Z</time>
      </trkpt>
      <trkpt lat="43.51149" lon="6.37484">
        <ele>296.8</ele>
        <time>2021-06-16T07:13:20.000Z</time>
      </trkpt>
      <trkpt lat="43.51145" lon="6.37489">
        <ele>296.4</ele>
        <time>2021-06-16T07:13:33.000Z</time>
      </trkpt>
      <trkpt lat="43.51141" lon="6.3749">
        <ele>296.7</ele>
        <time>2021-06-16T07:13:55.000Z</time>
      </trkpt>
      <trkpt lat="43.51145" lon="6.37487">
        <ele>297.3</ele>
        <time>2021-06-16T07:14:46.000Z</time>
      </trkpt>
      <trkpt lat="43.51141" lon="6.37485">
        <ele>297.2</ele>
        <time>2021-06-16T07:15:10.000Z</time>
      </trkpt>
      <trkpt lat="43.51136" lon="6.37485">
        <ele>297.3</ele>
        <time>2021-06-16T07:15:18.000Z</time>
      </trkpt>
      <trkpt lat="43.5114" lon="6.37487">
        <ele>296.9</ele>
        <time>2021-06-16T07:15:42.000Z</time>
      </trkpt>
      <trkpt lat="43.51136" lon="6.37493">
        <ele>296.8</ele>
        <time>2021-06-16T07:16:26.000Z</time>
      </trkpt>
      <trkpt lat="43.51132" lon="6.37495">
        <ele>297.1</ele>
        <time>2021-06-16T07:16:54.000Z</time>
      </trkpt>
      <trkpt lat="43.51129" lon="6.3749">
        <ele>297</ele>
        <time>2021-06-16T07:17:24.000Z</time>
      </trkpt>
      <trkpt lat="43.51123" lon="6.37489">
        <ele>297</ele>
        <time>2021-06-16T07:17:30.000Z</time>
      </trkpt>
      <trkpt lat="43.51117" lon="6.37488">
        <ele>297</ele>
        <time>2021-06-16T07:17:33.000Z</time>
      </trkpt>
      <trkpt lat="43.51124" lon="6.37488">
        <ele>296.9</ele>
        <time>2021-06-16T07:17:42.000Z</time>
      </trkpt>
      <trkpt lat="43.51129" lon="6.37489">
        <ele>296.8</ele>
        <time>2021-06-16T07:17:44.000Z</time>
      </trkpt>
      <trkpt lat="43.51134" lon="6.3749">
        <ele>296.6</ele>
        <time>2021-06-16T07:17:49.000Z</time>
      </trkpt>
      <trkpt lat="43.51139" lon="6.37491">
        <ele>296.8</ele>
        <time>2021-06-16T07:18:01.000Z</time>
      </trkpt>
      <trkpt lat="43.51138" lon="6.37484">
        <ele>297.7</ele>
        <time>2021-06-16T07:18:26.000Z</time>
      </trkpt>
      <trkpt lat="43.51136" lon="6.37479">
        <ele>298</ele>
        <time>2021-06-16T07:18:33.000Z</time>
      </trkpt>
      <trkpt lat="43.51132" lon="6.37474">
        <ele>298.6</ele>
        <time>2021-06-16T07:18:40.000Z</time>
      </trkpt>
      <trkpt lat="43.51129" lon="6.37469">
        <ele>298.9</ele>
        <time>2021-06-16T07:18:45.000Z</time>
      </trkpt>
      <trkpt lat="43.51126" lon="6.37463">
        <ele>299.5</ele>
        <time>2021-06-16T07:18:52.000Z</time>
      </trkpt>
      <trkpt lat="43.51121" lon="6.3746">
        <ele>300.3</ele>
        <time>2021-06-16T07:18:57.000Z</time>
      </trkpt>
      <trkpt lat="43.51122" lon="6.37454">
        <ele>301.1</ele>
        <time>2021-06-16T07:19:08.000Z</time>
      </trkpt>
      <trkpt lat="43.51118" lon="6.37449">
        <ele>301.4</ele>
        <time>2021-06-16T07:19:12.000Z</time>
      </trkpt>
      <trkpt lat="43.51115" lon="6.37444">
        <ele>301.5</ele>
        <time>2021-06-16T07:19:16.000Z</time>
      </trkpt>
      <trkpt lat="43.51109" lon="6.37441">
        <ele>301.7</ele>
        <time>2021-06-16T07:19:20.000Z</time>
      </trkpt>
      <trkpt lat="43.51105" lon="6.37437">
        <ele>301.8</ele>
        <time>2021-06-16T07:19:23.000Z</time>
      </trkpt>
      <trkpt lat="43.51099" lon="6.37434">
        <ele>301.9</ele>
        <time>2021-06-16T07:19:28.000Z</time>
      </trkpt>
      <trkpt lat="43.51094" lon="6.37432">
        <ele>301.8</ele>
        <time>2021-06-16T07:19:34.000Z</time>
      </trkpt>
      <trkpt lat="43.51089" lon="6.37433">
        <ele>301.8</ele>
        <time>2021-06-16T07:19:38.000Z</time>
      </trkpt>
      <trkpt lat="43.51085" lon="6.3743">
        <ele>301.9</ele>
        <time>2021-06-16T07:19:42.000Z</time>
      </trkpt>
      <trkpt lat="43.5108" lon="6.37428">
        <ele>301.7</ele>
        <time>2021-06-16T07:19:45.000Z</time>
      </trkpt>
      <trkpt lat="43.51076" lon="6.37426">
        <ele>301.6</ele>
        <time>2021-06-16T07:19:49.000Z</time>
      </trkpt>
      <trkpt lat="43.51071" lon="6.37427">
        <ele>301.2</ele>
        <time>2021-06-16T07:19:54.000Z</time>
      </trkpt>
      <trkpt lat="43.51068" lon="6.37421">
        <ele>300.8</ele>
        <time>2021-06-16T07:20:02.000Z</time>
      </trkpt>
      <trkpt lat="43.51064" lon="6.37416">
        <ele>300.6</ele>
        <time>2021-06-16T07:20:07.000Z</time>
      </trkpt>
      <trkpt lat="43.51058" lon="6.37413">
        <ele>300.5</ele>
        <time>2021-06-16T07:20:10.000Z</time>
      </trkpt>
      <trkpt lat="43.51054" lon="6.37409">
        <ele>300.5</ele>
        <time>2021-06-16T07:20:14.000Z</time>
      </trkpt>
      <trkpt lat="43.51054" lon="6.37402">
        <ele>300.6</ele>
        <time>2021-06-16T07:20:20.000Z</time>
      </trkpt>
      <trkpt lat="43.51052" lon="6.37397">
        <ele>300.6</ele>
        <time>2021-06-16T07:20:24.000Z</time>
      </trkpt>
      <trkpt lat="43.5105" lon="6.37391">
        <ele>300.5</ele>
        <time>2021-06-16T07:20:28.000Z</time>
      </trkpt>
      <trkpt lat="43.51049" lon="6.37384">
        <ele>300.4</ele>
        <time>2021-06-16T07:20:34.000Z</time>
      </trkpt>
      <trkpt lat="43.51047" lon="6.37378">
        <ele>300.4</ele>
        <time>2021-06-16T07:20:39.000Z</time>
      </trkpt>
      <trkpt lat="43.51044" lon="6.37372">
        <ele>300.1</ele>
        <time>2021-06-16T07:20:46.000Z</time>
      </trkpt>
      <trkpt lat="43.51041" lon="6.37367">
        <ele>299.9</ele>
        <time>2021-06-16T07:20:54.000Z</time>
      </trkpt>
      <trkpt lat="43.51041" lon="6.3736">
        <ele>299.4</ele>
        <time>2021-06-16T07:21:04.000Z</time>
      </trkpt>
      <trkpt lat="43.51038" lon="6.37355">
        <ele>299.2</ele>
        <time>2021-06-16T07:21:13.000Z</time>
      </trkpt>
      <trkpt lat="43.51035" lon="6.37351">
        <ele>299.1</ele>
        <time>2021-06-16T07:21:18.000Z</time>
      </trkpt>
      <trkpt lat="43.51032" lon="6.37346">
        <ele>299</ele>
        <time>2021-06-16T07:21:23.000Z</time>
      </trkpt>
      <trkpt lat="43.51028" lon="6.37342">
        <ele>299.1</ele>
        <time>2021-06-16T07:21:28.000Z</time>
      </trkpt>
      <trkpt lat="43.51026" lon="6.37336">
        <ele>299.2</ele>
        <time>2021-06-16T07:21:35.000Z</time>
      </trkpt>
      <trkpt lat="43.51024" lon="6.3733">
        <ele>298.6</ele>
        <time>2021-06-16T07:21:42.000Z</time>
      </trkpt>
      <trkpt lat="43.51021" lon="6.37325">
        <ele>298.5</ele>
        <time>2021-06-16T07:21:48.000Z</time>
      </trkpt>
      <trkpt lat="43.51016" lon="6.37322">
        <ele>298.3</ele>
        <time>2021-06-16T07:21:52.000Z</time>
      </trkpt>
      <trkpt lat="43.51012" lon="6.37318">
        <ele>298.3</ele>
        <time>2021-06-16T07:21:55.000Z</time>
      </trkpt>
      <trkpt lat="43.51008" lon="6.37315">
        <ele>298.2</ele>
        <time>2021-06-16T07:21:58.000Z</time>
      </trkpt>
      <trkpt lat="43.51002" lon="6.37313">
        <ele>298.1</ele>
        <time>2021-06-16T07:22:02.000Z</time>
      </trkpt>
      <trkpt lat="43.50996" lon="6.3731">
        <ele>298.1</ele>
        <time>2021-06-16T07:22:06.000Z</time>
      </trkpt>
      <trkpt lat="43.50992" lon="6.37307">
        <ele>298.2</ele>
        <time>2021-06-16T07:22:09.000Z</time>
      </trkpt>
      <trkpt lat="43.50987" lon="6.37302">
        <ele>298.3</ele>
        <time>2021-06-16T07:22:12.000Z</time>
      </trkpt>
      <trkpt lat="43.50981" lon="6.37299">
        <ele>298.4</ele>
        <time>2021-06-16T07:22:15.000Z</time>
      </trkpt>
      <trkpt lat="43.50976" lon="6.37297">
        <ele>298.4</ele>
        <time>2021-06-16T07:22:17.000Z</time>
      </trkpt>
      <trkpt lat="43.50972" lon="6.37294">
        <ele>298.3</ele>
        <time>2021-06-16T07:22:21.000Z</time>
      </trkpt>
      <trkpt lat="43.50969" lon="6.3729">
        <ele>297.9</ele>
        <time>2021-06-16T07:22:29.000Z</time>
      </trkpt>
      <trkpt lat="43.50965" lon="6.37285">
        <ele>297.7</ele>
        <time>2021-06-16T07:22:37.000Z</time>
      </trkpt>
      <trkpt lat="43.50959" lon="6.37283">
        <ele>297</ele>
        <time>2021-06-16T07:22:42.000Z</time>
      </trkpt>
      <trkpt lat="43.50955" lon="6.37282">
        <ele>297.3</ele>
        <time>2021-06-16T07:22:48.000Z</time>
      </trkpt>
      <trkpt lat="43.5095" lon="6.37278">
        <ele>297.2</ele>
        <time>2021-06-16T07:22:53.000Z</time>
      </trkpt>
      <trkpt lat="43.50945" lon="6.37276">
        <ele>297.2</ele>
        <time>2021-06-16T07:22:59.000Z</time>
      </trkpt>
      <trkpt lat="43.5094" lon="6.37274">
        <ele>297.3</ele>
        <time>2021-06-16T07:23:03.000Z</time>
      </trkpt>
      <trkpt lat="43.50935" lon="6.37272">
        <ele>297.3</ele>
        <time>2021-06-16T07:23:06.000Z</time>
      </trkpt>
      <trkpt lat="43.5093" lon="6.37271">
        <ele>297.3</ele>
        <time>2021-06-16T07:23:08.000Z</time>
      </trkpt>
      <trkpt lat="43.50926" lon="6.37271">
        <ele>297.5</ele>
        <time>2021-06-16T07:23:10.000Z</time>
      </trkpt>
      <trkpt lat="43.5092" lon="6.37268">
        <ele>297.9</ele>
        <time>2021-06-16T07:23:15.000Z</time>
      </trkpt>
      <trkpt lat="43.50916" lon="6.37265">
        <ele>298.2</ele>
        <time>2021-06-16T07:23:20.000Z</time>
      </trkpt>
      <trkpt lat="43.50911" lon="6.37262">
        <ele>298.5</ele>
        <time>2021-06-16T07:23:26.000Z</time>
      </trkpt>
      <trkpt lat="43.50906" lon="6.3726">
        <ele>298.4</ele>
        <time>2021-06-16T07:23:31.000Z</time>
      </trkpt>
      <trkpt lat="43.50901" lon="6.37258">
        <ele>298.6</ele>
        <time>2021-06-16T07:23:38.000Z</time>
      </trkpt>
      <trkpt lat="43.50897" lon="6.37255">
        <ele>298.8</ele>
        <time>2021-06-16T07:23:43.000Z</time>
      </trkpt>
      <trkpt lat="43.50892" lon="6.37251">
        <ele>299.2</ele>
        <time>2021-06-16T07:23:50.000Z</time>
      </trkpt>
      <trkpt lat="43.50888" lon="6.37248">
        <ele>299.5</ele>
        <time>2021-06-16T07:23:54.000Z</time>
      </trkpt>
      <trkpt lat="43.50883" lon="6.37245">
        <ele>299.8</ele>
        <time>2021-06-16T07:23:58.000Z</time>
      </trkpt>
      <trkpt lat="43.50879" lon="6.37243">
        <ele>300.1</ele>
        <time>2021-06-16T07:24:02.000Z</time>
      </trkpt>
      <trkpt lat="43.50874" lon="6.37242">
        <ele>300.3</ele>
        <time>2021-06-16T07:24:05.000Z</time>
      </trkpt>
      <trkpt lat="43.50871" lon="6.37236">
        <ele>300.6</ele>
        <time>2021-06-16T07:24:12.000Z</time>
      </trkpt>
      <trkpt lat="43.50868" lon="6.37232">
        <ele>300.9</ele>
        <time>2021-06-16T07:24:21.000Z</time>
      </trkpt>
      <trkpt lat="43.50863" lon="6.3723">
        <ele>301</ele>
        <time>2021-06-16T07:24:31.000Z</time>
      </trkpt>
      <trkpt lat="43.50864" lon="6.37224">
        <ele>300.9</ele>
        <time>2021-06-16T07:24:42.000Z</time>
      </trkpt>
      <trkpt lat="43.5086" lon="6.3722">
        <ele>301.2</ele>
        <time>2021-06-16T07:25:08.000Z</time>
      </trkpt>
      <trkpt lat="43.50854" lon="6.3722">
        <ele>301.1</ele>
        <time>2021-06-16T07:25:14.000Z</time>
      </trkpt>
      <trkpt lat="43.5085" lon="6.37221">
        <ele>300.9</ele>
        <time>2021-06-16T07:25:18.000Z</time>
      </trkpt>
      <trkpt lat="43.50847" lon="6.37228">
        <ele>299.8</ele>
        <time>2021-06-16T07:25:28.000Z</time>
      </trkpt>
      <trkpt lat="43.50846" lon="6.37234">
        <ele>299.4</ele>
        <time>2021-06-16T07:25:33.000Z</time>
      </trkpt>
      <trkpt lat="43.50843" lon="6.37241">
        <ele>299.1</ele>
        <time>2021-06-16T07:25:38.000Z</time>
      </trkpt>
      <trkpt lat="43.5084" lon="6.37247">
        <ele>299.1</ele>
        <time>2021-06-16T07:25:43.000Z</time>
      </trkpt>
      <trkpt lat="43.50837" lon="6.37252">
        <ele>299.3</ele>
        <time>2021-06-16T07:25:50.000Z</time>
      </trkpt>
      <trkpt lat="43.50834" lon="6.37259">
        <ele>299.5</ele>
        <time>2021-06-16T07:25:54.000Z</time>
      </trkpt>
      <trkpt lat="43.50833" lon="6.37267">
        <ele>299.6</ele>
        <time>2021-06-16T07:25:58.000Z</time>
      </trkpt>
      <trkpt lat="43.50835" lon="6.37273">
        <ele>299.7</ele>
        <time>2021-06-16T07:26:02.000Z</time>
      </trkpt>
      <trkpt lat="43.50834" lon="6.37281">
        <ele>299.7</ele>
        <time>2021-06-16T07:26:07.000Z</time>
      </trkpt>
      <trkpt lat="43.50833" lon="6.37288">
        <ele>299.7</ele>
        <time>2021-06-16T07:26:11.000Z</time>
      </trkpt>
      <trkpt lat="43.50832" lon="6.37295">
        <ele>299.5</ele>
        <time>2021-06-16T07:26:16.000Z</time>
      </trkpt>
      <trkpt lat="43.50831" lon="6.37303">
        <ele>299.5</ele>
        <time>2021-06-16T07:26:21.000Z</time>
      </trkpt>
      <trkpt lat="43.5083" lon="6.37309">
        <ele>299.3</ele>
        <time>2021-06-16T07:26:24.000Z</time>
      </trkpt>
      <trkpt lat="43.50827" lon="6.37315">
        <ele>299.1</ele>
        <time>2021-06-16T07:26:31.000Z</time>
      </trkpt>
      <trkpt lat="43.50827" lon="6.37322">
        <ele>298.8</ele>
        <time>2021-06-16T07:26:35.000Z</time>
      </trkpt>
      <trkpt lat="43.50825" lon="6.37328">
        <ele>298.5</ele>
        <time>2021-06-16T07:26:39.000Z</time>
      </trkpt>
      <trkpt lat="43.50826" lon="6.37336">
        <ele>297.9</ele>
        <time>2021-06-16T07:26:49.000Z</time>
      </trkpt>
      <trkpt lat="43.50824" lon="6.37341">
        <ele>297.4</ele>
        <time>2021-06-16T07:26:56.000Z</time>
      </trkpt>
      <trkpt lat="43.50829" lon="6.37339">
        <ele>297.1</ele>
        <time>2021-06-16T07:27:05.000Z</time>
      </trkpt>
      <trkpt lat="43.50825" lon="6.37343">
        <ele>296.8</ele>
        <time>2021-06-16T07:27:15.000Z</time>
      </trkpt>
      <trkpt lat="43.50822" lon="6.37348">
        <ele>296.8</ele>
        <time>2021-06-16T07:27:20.000Z</time>
      </trkpt>
      <trkpt lat="43.50822" lon="6.37354">
        <ele>296.7</ele>
        <time>2021-06-16T07:27:31.000Z</time>
      </trkpt>
      <trkpt lat="43.50828" lon="6.37351">
        <ele>296.9</ele>
        <time>2021-06-16T07:27:35.000Z</time>
      </trkpt>
      <trkpt lat="43.50831" lon="6.37347">
        <ele>296.7</ele>
        <time>2021-06-16T07:27:41.000Z</time>
      </trkpt>
      <trkpt lat="43.50834" lon="6.37341">
        <ele>296.5</ele>
        <time>2021-06-16T07:27:52.000Z</time>
      </trkpt>
      <trkpt lat="43.5083" lon="6.37344">
        <ele>296</ele>
        <time>2021-06-16T07:28:05.000Z</time>
      </trkpt>
      <trkpt lat="43.50825" lon="6.37348">
        <ele>297</ele>
        <time>2021-06-16T07:28:14.000Z</time>
      </trkpt>
      <trkpt lat="43.50821" lon="6.37351">
        <ele>297</ele>
        <time>2021-06-16T07:28:52.000Z</time>
      </trkpt>
      <trkpt lat="43.50823" lon="6.37344">
        <ele>297.4</ele>
        <time>2021-06-16T07:29:10.000Z</time>
      </trkpt>
      <trkpt lat="43.50825" lon="6.37339">
        <ele>297.7</ele>
        <time>2021-06-16T07:29:16.000Z</time>
      </trkpt>
      <trkpt lat="43.50826" lon="6.37331">
        <ele>298.1</ele>
        <time>2021-06-16T07:29:24.000Z</time>
      </trkpt>
      <trkpt lat="43.50826" lon="6.37325">
        <ele>298.2</ele>
        <time>2021-06-16T07:29:31.000Z</time>
      </trkpt>
      <trkpt lat="43.50826" lon="6.37318">
        <ele>298.5</ele>
        <time>2021-06-16T07:29:38.000Z</time>
      </trkpt>
      <trkpt lat="43.50829" lon="6.37311">
        <ele>298.7</ele>
        <time>2021-06-16T07:29:43.000Z</time>
      </trkpt>
      <trkpt lat="43.50832" lon="6.37306">
        <ele>298.8</ele>
        <time>2021-06-16T07:29:46.000Z</time>
      </trkpt>
      <trkpt lat="43.50832" lon="6.37299">
        <ele>299.1</ele>
        <time>2021-06-16T07:29:50.000Z</time>
      </trkpt>
      <trkpt lat="43.50834" lon="6.37294">
        <ele>299.3</ele>
        <time>2021-06-16T07:29:54.000Z</time>
      </trkpt>
      <trkpt lat="43.50833" lon="6.37287">
        <ele>299.5</ele>
        <time>2021-06-16T07:30:02.000Z</time>
      </trkpt>
      <trkpt lat="43.50832" lon="6.37281">
        <ele>299.4</ele>
        <time>2021-06-16T07:30:08.000Z</time>
      </trkpt>
      <trkpt lat="43.50834" lon="6.37274">
        <ele>299.1</ele>
        <time>2021-06-16T07:30:17.000Z</time>
      </trkpt>
      <trkpt lat="43.50837" lon="6.37268">
        <ele>299.1</ele>
        <time>2021-06-16T07:30:19.000Z</time>
      </trkpt>
      <trkpt lat="43.50837" lon="6.37261">
        <ele>299.1</ele>
        <time>2021-06-16T07:30:25.000Z</time>
      </trkpt>
      <trkpt lat="43.50839" lon="6.37255">
        <ele>299.1</ele>
        <time>2021-06-16T07:30:29.000Z</time>
      </trkpt>
      <trkpt lat="43.50841" lon="6.37247">
        <ele>299</ele>
        <time>2021-06-16T07:30:36.000Z</time>
      </trkpt>
      <trkpt lat="43.50845" lon="6.37243">
        <ele>299</ele>
        <time>2021-06-16T07:30:41.000Z</time>
      </trkpt>
      <trkpt lat="43.50847" lon="6.37236">
        <ele>299</ele>
        <time>2021-06-16T07:30:46.000Z</time>
      </trkpt>
      <trkpt lat="43.50848" lon="6.3723">
        <ele>299</ele>
        <time>2021-06-16T07:30:50.000Z</time>
      </trkpt>
      <trkpt lat="43.50851" lon="6.37225">
        <ele>299.2</ele>
        <time>2021-06-16T07:30:56.000Z</time>
      </trkpt>
      <trkpt lat="43.50856" lon="6.37223">
        <ele>299.2</ele>
        <time>2021-06-16T07:30:59.000Z</time>
      </trkpt>
      <trkpt lat="43.5086" lon="6.37219">
        <ele>299.3</ele>
        <time>2021-06-16T07:31:03.000Z</time>
      </trkpt>
      <trkpt lat="43.50864" lon="6.37213">
        <ele>299.4</ele>
        <time>2021-06-16T07:31:07.000Z</time>
      </trkpt>
      <trkpt lat="43.50865" lon="6.37206">
        <ele>299.5</ele>
        <time>2021-06-16T07:31:11.000Z</time>
      </trkpt>
      <trkpt lat="43.50862" lon="6.372">
        <ele>299.6</ele>
        <time>2021-06-16T07:31:16.000Z</time>
      </trkpt>
      <trkpt lat="43.50861" lon="6.37193">
        <ele>299.8</ele>
        <time>2021-06-16T07:31:20.000Z</time>
      </trkpt>
      <trkpt lat="43.50857" lon="6.37189">
        <ele>299.9</ele>
        <time>2021-06-16T07:31:24.000Z</time>
      </trkpt>
      <trkpt lat="43.50856" lon="6.37182">
        <ele>300</ele>
        <time>2021-06-16T07:31:29.000Z</time>
      </trkpt>
      <trkpt lat="43.50853" lon="6.37175">
        <ele>300.2</ele>
        <time>2021-06-16T07:31:34.000Z</time>
      </trkpt>
      <trkpt lat="43.50852" lon="6.37168">
        <ele>300.4</ele>
        <time>2021-06-16T07:31:39.000Z</time>
      </trkpt>
      <trkpt lat="43.50849" lon="6.37162">
        <ele>300.5</ele>
        <time>2021-06-16T07:31:43.000Z</time>
      </trkpt>
      <trkpt lat="43.50849" lon="6.37155">
        <ele>300.7</ele>
        <time>2021-06-16T07:31:48.000Z</time>
      </trkpt>
      <trkpt lat="43.50849" lon="6.37148">
        <ele>301.1</ele>
        <time>2021-06-16T07:31:54.000Z</time>
      </trkpt>
      <trkpt lat="43.50847" lon="6.37141">
        <ele>301.1</ele>
        <time>2021-06-16T07:31:58.000Z</time>
      </trkpt>
      <trkpt lat="43.50847" lon="6.37134">
        <ele>301.1</ele>
        <time>2021-06-16T07:32:03.000Z</time>
      </trkpt>
      <trkpt lat="43.50845" lon="6.37127">
        <ele>301.3</ele>
        <time>2021-06-16T07:32:07.000Z</time>
      </trkpt>
      <trkpt lat="43.50843" lon="6.37121">
        <ele>301.5</ele>
        <time>2021-06-16T07:32:12.000Z</time>
      </trkpt>
      <trkpt lat="43.50846" lon="6.37115">
        <ele>301.7</ele>
        <time>2021-06-16T07:32:21.000Z</time>
      </trkpt>
      <trkpt lat="43.50845" lon="6.37108">
        <ele>301</ele>
        <time>2021-06-16T07:32:26.000Z</time>
      </trkpt>
      <trkpt lat="43.50842" lon="6.371">
        <ele>301.9</ele>
        <time>2021-06-16T07:32:31.000Z</time>
      </trkpt>
      <trkpt lat="43.50843" lon="6.37094">
        <ele>301.8</ele>
        <time>2021-06-16T07:32:37.000Z</time>
      </trkpt>
      <trkpt lat="43.50843" lon="6.37088">
        <ele>301.6</ele>
        <time>2021-06-16T07:32:42.000Z</time>
      </trkpt>
      <trkpt lat="43.50841" lon="6.37082">
        <ele>301.5</ele>
        <time>2021-06-16T07:32:46.000Z</time>
      </trkpt>
      <trkpt lat="43.50839" lon="6.37075">
        <ele>301.2</ele>
        <time>2021-06-16T07:32:50.000Z</time>
      </trkpt>
      <trkpt lat="43.50839" lon="6.37069">
        <ele>300.9</ele>
        <time>2021-06-16T07:32:54.000Z</time>
      </trkpt>
      <trkpt lat="43.50839" lon="6.37062">
        <ele>300.7</ele>
        <time>2021-06-16T07:32:59.000Z</time>
      </trkpt>
      <trkpt lat="43.50838" lon="6.37054">
        <ele>300.5</ele>
        <time>2021-06-16T07:33:05.000Z</time>
      </trkpt>
      <trkpt lat="43.50835" lon="6.37048">
        <ele>299.7</ele>
        <time>2021-06-16T07:33:11.000Z</time>
      </trkpt>
      <trkpt lat="43.50832" lon="6.37042">
        <ele>299.2</ele>
        <time>2021-06-16T07:33:15.000Z</time>
      </trkpt>
      <trkpt lat="43.50834" lon="6.37035">
        <ele>298.7</ele>
        <time>2021-06-16T07:33:19.000Z</time>
      </trkpt>
      <trkpt lat="43.50837" lon="6.3703">
        <ele>298.4</ele>
        <time>2021-06-16T07:33:24.000Z</time>
      </trkpt>
      <trkpt lat="43.5084" lon="6.37025">
        <ele>297.9</ele>
        <time>2021-06-16T07:33:28.000Z</time>
      </trkpt>
      <trkpt lat="43.50838" lon="6.37017">
        <ele>297.4</ele>
        <time>2021-06-16T07:33:33.000Z</time>
      </trkpt>
      <trkpt lat="43.50838" lon="6.3701">
        <ele>297.1</ele>
        <time>2021-06-16T07:33:36.000Z</time>
      </trkpt>
      <trkpt lat="43.5084" lon="6.37003">
        <ele>296</ele>
        <time>2021-06-16T07:33:40.000Z</time>
      </trkpt>
      <trkpt lat="43.5084" lon="6.36996">
        <ele>296.3</ele>
        <time>2021-06-16T07:33:45.000Z</time>
      </trkpt>
      <trkpt lat="43.5084" lon="6.36989">
        <ele>295.7</ele>
        <time>2021-06-16T07:33:51.000Z</time>
      </trkpt>
      <trkpt lat="43.50839" lon="6.36983">
        <ele>295.1</ele>
        <time>2021-06-16T07:33:56.000Z</time>
      </trkpt>
      <trkpt lat="43.50837" lon="6.36977">
        <ele>294.5</ele>
        <time>2021-06-16T07:34:00.000Z</time>
      </trkpt>
      <trkpt lat="43.50833" lon="6.36971">
        <ele>293.8</ele>
        <time>2021-06-16T07:34:06.000Z</time>
      </trkpt>
      <trkpt lat="43.50832" lon="6.36965">
        <ele>293.3</ele>
        <time>2021-06-16T07:34:10.000Z</time>
      </trkpt>
      <trkpt lat="43.50831" lon="6.36958">
        <ele>292.9</ele>
        <time>2021-06-16T07:34:13.000Z</time>
      </trkpt>
      <trkpt lat="43.50831" lon="6.36952">
        <ele>292.6</ele>
        <time>2021-06-16T07:34:16.000Z</time>
      </trkpt>
      <trkpt lat="43.50833" lon="6.36946">
        <ele>291.7</ele>
        <time>2021-06-16T07:34:27.000Z</time>
      </trkpt>
      <trkpt lat="43.50838" lon="6.36943">
        <ele>291.7</ele>
        <time>2021-06-16T07:34:31.000Z</time>
      </trkpt>
      <trkpt lat="43.50842" lon="6.36941">
        <ele>291.8</ele>
        <time>2021-06-16T07:34:35.000Z</time>
      </trkpt>
      <trkpt lat="43.50847" lon="6.36939">
        <ele>292</ele>
        <time>2021-06-16T07:34:38.000Z</time>
      </trkpt>
      <trkpt lat="43.50851" lon="6.36937">
        <ele>292.2</ele>
        <time>2021-06-16T07:34:42.000Z</time>
      </trkpt>
      <trkpt lat="43.50857" lon="6.36936">
        <ele>292.9</ele>
        <time>2021-06-16T07:34:50.000Z</time>
      </trkpt>
      <trkpt lat="43.50862" lon="6.36937">
        <ele>293.2</ele>
        <time>2021-06-16T07:34:57.000Z</time>
      </trkpt>
      <trkpt lat="43.50867" lon="6.36937">
        <ele>293.4</ele>
        <time>2021-06-16T07:35:01.000Z</time>
      </trkpt>
      <trkpt lat="43.50872" lon="6.36937">
        <ele>293.7</ele>
        <time>2021-06-16T07:35:06.000Z</time>
      </trkpt>
      <trkpt lat="43.50876" lon="6.36937">
        <ele>293.8</ele>
        <time>2021-06-16T07:35:11.000Z</time>
      </trkpt>
      <trkpt lat="43.50881" lon="6.36936">
        <ele>294.1</ele>
        <time>2021-06-16T07:35:17.000Z</time>
      </trkpt>
      <trkpt lat="43.50886" lon="6.36936">
        <ele>294.5</ele>
        <time>2021-06-16T07:35:21.000Z</time>
      </trkpt>
      <trkpt lat="43.50892" lon="6.36938">
        <ele>294.8</ele>
        <time>2021-06-16T07:35:25.000Z</time>
      </trkpt>
      <trkpt lat="43.50897" lon="6.36939">
        <ele>295.3</ele>
        <time>2021-06-16T07:35:30.000Z</time>
      </trkpt>
      <trkpt lat="43.50901" lon="6.3694">
        <ele>295.8</ele>
        <time>2021-06-16T07:35:35.000Z</time>
      </trkpt>
      <trkpt lat="43.50906" lon="6.36942">
        <ele>296.4</ele>
        <time>2021-06-16T07:35:41.000Z</time>
      </trkpt>
      <trkpt lat="43.50911" lon="6.36944">
        <ele>297.1</ele>
        <time>2021-06-16T07:35:53.000Z</time>
      </trkpt>
      <trkpt lat="43.50916" lon="6.36945">
        <ele>297.3</ele>
        <time>2021-06-16T07:35:56.000Z</time>
      </trkpt>
      <trkpt lat="43.5092" lon="6.36949">
        <ele>297.8</ele>
        <time>2021-06-16T07:36:04.000Z</time>
      </trkpt>
      <trkpt lat="43.50922" lon="6.36954">
        <ele>298.2</ele>
        <time>2021-06-16T07:36:09.000Z</time>
      </trkpt>
      <trkpt lat="43.50927" lon="6.36955">
        <ele>298.5</ele>
        <time>2021-06-16T07:36:14.000Z</time>
      </trkpt>
      <trkpt lat="43.50932" lon="6.36956">
        <ele>298.6</ele>
        <time>2021-06-16T07:36:19.000Z</time>
      </trkpt>
      <trkpt lat="43.50938" lon="6.36955">
        <ele>298.7</ele>
        <time>2021-06-16T07:36:22.000Z</time>
      </trkpt>
      <trkpt lat="43.50943" lon="6.36955">
        <ele>298.7</ele>
        <time>2021-06-16T07:36:26.000Z</time>
      </trkpt>
      <trkpt lat="43.50948" lon="6.36956">
        <ele>298.7</ele>
        <time>2021-06-16T07:36:30.000Z</time>
      </trkpt>
      <trkpt lat="43.50952" lon="6.36959">
        <ele>298.3</ele>
        <time>2021-06-16T07:36:39.000Z</time>
      </trkpt>
      <trkpt lat="43.50956" lon="6.36961">
        <ele>298.1</ele>
        <time>2021-06-16T07:36:43.000Z</time>
      </trkpt>
      <trkpt lat="43.50959" lon="6.36967">
        <ele>297.8</ele>
        <time>2021-06-16T07:36:49.000Z</time>
      </trkpt>
      <trkpt lat="43.50963" lon="6.36967">
        <ele>297.7</ele>
        <time>2021-06-16T07:36:53.000Z</time>
      </trkpt>
      <trkpt lat="43.50967" lon="6.36971">
        <ele>297.3</ele>
        <time>2021-06-16T07:36:58.000Z</time>
      </trkpt>
      <trkpt lat="43.50972" lon="6.36975">
        <ele>296.5</ele>
        <time>2021-06-16T07:37:04.000Z</time>
      </trkpt>
      <trkpt lat="43.50977" lon="6.36977">
        <ele>295.9</ele>
        <time>2021-06-16T07:37:09.000Z</time>
      </trkpt>
      <trkpt lat="43.50978" lon="6.36983">
        <ele>294.3</ele>
        <time>2021-06-16T07:37:20.000Z</time>
      </trkpt>
      <trkpt lat="43.50981" lon="6.36987">
        <ele>293.9</ele>
        <time>2021-06-16T07:37:24.000Z</time>
      </trkpt>
      <trkpt lat="43.50987" lon="6.36987">
        <ele>293.6</ele>
        <time>2021-06-16T07:37:27.000Z</time>
      </trkpt>
      <trkpt lat="43.50991" lon="6.36988">
        <ele>293.3</ele>
        <time>2021-06-16T07:37:30.000Z</time>
      </trkpt>
      <trkpt lat="43.50996" lon="6.3699">
        <ele>293</ele>
        <time>2021-06-16T07:37:34.000Z</time>
      </trkpt>
      <trkpt lat="43.50998" lon="6.36996">
        <ele>292.8</ele>
        <time>2021-06-16T07:37:37.000Z</time>
      </trkpt>
      <trkpt lat="43.51003" lon="6.36999">
        <ele>291</ele>
        <time>2021-06-16T07:37:50.000Z</time>
      </trkpt>
      <trkpt lat="43.51007" lon="6.37002">
        <ele>291</ele>
        <time>2021-06-16T07:37:55.000Z</time>
      </trkpt>
      <trkpt lat="43.51011" lon="6.37002">
        <ele>290.5</ele>
        <time>2021-06-16T07:38:02.000Z</time>
      </trkpt>
      <trkpt lat="43.51013" lon="6.37009">
        <ele>289.3</ele>
        <time>2021-06-16T07:38:12.000Z</time>
      </trkpt>
      <trkpt lat="43.51018" lon="6.3701">
        <ele>289</ele>
        <time>2021-06-16T07:38:15.000Z</time>
      </trkpt>
      <trkpt lat="43.51024" lon="6.37012">
        <ele>288.3</ele>
        <time>2021-06-16T07:38:21.000Z</time>
      </trkpt>
      <trkpt lat="43.51029" lon="6.37011">
        <ele>288</ele>
        <time>2021-06-16T07:38:24.000Z</time>
      </trkpt>
      <trkpt lat="43.51033" lon="6.3701">
        <ele>287.8</ele>
        <time>2021-06-16T07:38:26.000Z</time>
      </trkpt>
      <trkpt lat="43.51038" lon="6.37012">
        <ele>287.4</ele>
        <time>2021-06-16T07:38:29.000Z</time>
      </trkpt>
      <trkpt lat="43.51043" lon="6.37015">
        <ele>287</ele>
        <time>2021-06-16T07:38:32.000Z</time>
      </trkpt>
      <trkpt lat="43.51048" lon="6.37015">
        <ele>286.6</ele>
        <time>2021-06-16T07:38:36.000Z</time>
      </trkpt>
      <trkpt lat="43.51052" lon="6.37011">
        <ele>286.1</ele>
        <time>2021-06-16T07:38:40.000Z</time>
      </trkpt>
      <trkpt lat="43.51056" lon="6.37007">
        <ele>285</ele>
        <time>2021-06-16T07:38:48.000Z</time>
      </trkpt>
      <trkpt lat="43.51062" lon="6.37008">
        <ele>284.1</ele>
        <time>2021-06-16T07:38:55.000Z</time>
      </trkpt>
      <trkpt lat="43.51067" lon="6.37005">
        <ele>282</ele>
        <time>2021-06-16T07:39:03.000Z</time>
      </trkpt>
      <trkpt lat="43.51071" lon="6.37002">
        <ele>282</ele>
        <time>2021-06-16T07:39:12.000Z</time>
      </trkpt>
      <trkpt lat="43.51076" lon="6.37003">
        <ele>281.7</ele>
        <time>2021-06-16T07:39:15.000Z</time>
      </trkpt>
      <trkpt lat="43.51081" lon="6.37005">
        <ele>281.2</ele>
        <time>2021-06-16T07:39:20.000Z</time>
      </trkpt>
      <trkpt lat="43.51083" lon="6.36999">
        <ele>280.1</ele>
        <time>2021-06-16T07:39:26.000Z</time>
      </trkpt>
      <trkpt lat="43.51091" lon="6.37">
        <ele>278</ele>
        <time>2021-06-16T07:39:32.000Z</time>
      </trkpt>
      <trkpt lat="43.51096" lon="6.37001">
        <ele>278</ele>
        <time>2021-06-16T07:39:37.000Z</time>
      </trkpt>
      <trkpt lat="43.51101" lon="6.37002">
        <ele>277.6</ele>
        <time>2021-06-16T07:39:39.000Z</time>
      </trkpt>
      <trkpt lat="43.51107" lon="6.37001">
        <ele>277.1</ele>
        <time>2021-06-16T07:39:42.000Z</time>
      </trkpt>
      <trkpt lat="43.51112" lon="6.37001">
        <ele>276.8</ele>
        <time>2021-06-16T07:39:44.000Z</time>
      </trkpt>
      <trkpt lat="43.51117" lon="6.37002">
        <ele>276</ele>
        <time>2021-06-16T07:39:49.000Z</time>
      </trkpt>
      <trkpt lat="43.5112" lon="6.37006">
        <ele>274.9</ele>
        <time>2021-06-16T07:39:56.000Z</time>
      </trkpt>
      <trkpt lat="43.51127" lon="6.37009">
        <ele>272.4</ele>
        <time>2021-06-16T07:40:13.000Z</time>
      </trkpt>
      <trkpt lat="43.51132" lon="6.37009">
        <ele>272.1</ele>
        <time>2021-06-16T07:40:15.000Z</time>
      </trkpt>
      <trkpt lat="43.51136" lon="6.37005">
        <ele>271</ele>
        <time>2021-06-16T07:40:19.000Z</time>
      </trkpt>
      <trkpt lat="43.5114" lon="6.37">
        <ele>271</ele>
        <time>2021-06-16T07:40:30.000Z</time>
      </trkpt>
      <trkpt lat="43.51135" lon="6.37">
        <ele>269.9</ele>
        <time>2021-06-16T07:41:07.000Z</time>
      </trkpt>
      <trkpt lat="43.51129" lon="6.36995">
        <ele>269</ele>
        <time>2021-06-16T07:41:17.000Z</time>
      </trkpt>
      <trkpt lat="43.51126" lon="6.3699">
        <ele>269.6</ele>
        <time>2021-06-16T07:41:24.000Z</time>
      </trkpt>
      <trkpt lat="43.51122" lon="6.36987">
        <ele>269</ele>
        <time>2021-06-16T07:41:34.000Z</time>
      </trkpt>
      <trkpt lat="43.5113" lon="6.36988">
        <ele>269</ele>
        <time>2021-06-16T07:41:42.000Z</time>
      </trkpt>
      <trkpt lat="43.51139" lon="6.36998">
        <ele>270</ele>
        <time>2021-06-16T07:42:18.000Z</time>
      </trkpt>
      <trkpt lat="43.51136" lon="6.37004">
        <ele>270.4</ele>
        <time>2021-06-16T07:42:27.000Z</time>
      </trkpt>
      <trkpt lat="43.51141" lon="6.37">
        <ele>270.4</ele>
        <time>2021-06-16T07:42:36.000Z</time>
      </trkpt>
      <trkpt lat="43.5114" lon="6.36993">
        <ele>270.5</ele>
        <time>2021-06-16T07:42:43.000Z</time>
      </trkpt>
      <trkpt lat="43.51137" lon="6.36987">
        <ele>270.2</ele>
        <time>2021-06-16T07:42:49.000Z</time>
      </trkpt>
      <trkpt lat="43.51135" lon="6.36981">
        <ele>270</ele>
        <time>2021-06-16T07:42:56.000Z</time>
      </trkpt>
      <trkpt lat="43.51139" lon="6.36978">
        <ele>270</ele>
        <time>2021-06-16T07:43:00.000Z</time>
      </trkpt>
      <trkpt lat="43.51141" lon="6.36972">
        <ele>269.8</ele>
        <time>2021-06-16T07:43:16.000Z</time>
      </trkpt>
      <trkpt lat="43.51143" lon="6.36966">
        <ele>269.8</ele>
        <time>2021-06-16T07:43:19.000Z</time>
      </trkpt>
      <trkpt lat="43.51145" lon="6.36959">
        <ele>269.9</ele>
        <time>2021-06-16T07:43:22.000Z</time>
      </trkpt>
      <trkpt lat="43.51148" lon="6.36953">
        <ele>269.9</ele>
        <time>2021-06-16T07:43:25.000Z</time>
      </trkpt>
      <trkpt lat="43.51149" lon="6.36945">
        <ele>269.9</ele>
        <time>2021-06-16T07:43:29.000Z</time>
      </trkpt>
      <trkpt lat="43.51152" lon="6.3694">
        <ele>269.7</ele>
        <time>2021-06-16T07:43:33.000Z</time>
      </trkpt>
      <trkpt lat="43.51155" lon="6.36934">
        <ele>269.6</ele>
        <time>2021-06-16T07:43:39.000Z</time>
      </trkpt>
      <trkpt lat="43.51157" lon="6.36928">
        <ele>269.6</ele>
        <time>2021-06-16T07:43:43.000Z</time>
      </trkpt>
      <trkpt lat="43.51162" lon="6.36924">
        <ele>269.3</ele>
        <time>2021-06-16T07:43:47.000Z</time>
      </trkpt>
      <trkpt lat="43.51165" lon="6.3692">
        <ele>269.2</ele>
        <time>2021-06-16T07:43:50.000Z</time>
      </trkpt>
      <trkpt lat="43.51165" lon="6.36913">
        <ele>269.2</ele>
        <time>2021-06-16T07:43:54.000Z</time>
      </trkpt>
      <trkpt lat="43.51169" lon="6.3691">
        <ele>269.2</ele>
        <time>2021-06-16T07:43:59.000Z</time>
      </trkpt>
      <trkpt lat="43.51173" lon="6.36904">
        <ele>269</ele>
        <time>2021-06-16T07:44:06.000Z</time>
      </trkpt>
      <trkpt lat="43.51175" lon="6.36897">
        <ele>269</ele>
        <time>2021-06-16T07:44:11.000Z</time>
      </trkpt>
      <trkpt lat="43.51179" lon="6.36891">
        <ele>269</ele>
        <time>2021-06-16T07:44:16.000Z</time>
      </trkpt>
      <trkpt lat="43.51186" lon="6.36883">
        <ele>268</ele>
        <time>2021-06-16T07:44:20.000Z</time>
      </trkpt>
      <trkpt lat="43.51186" lon="6.36876">
        <ele>269</ele>
        <time>2021-06-16T07:44:24.000Z</time>
      </trkpt>
      <trkpt lat="43.51188" lon="6.36869">
        <ele>269</ele>
        <time>2021-06-16T07:44:27.000Z</time>
      </trkpt>
      <trkpt lat="43.51189" lon="6.36863">
        <ele>268.9</ele>
        <time>2021-06-16T07:44:30.000Z</time>
      </trkpt>
      <trkpt lat="43.51191" lon="6.36857">
        <ele>268.9</ele>
        <time>2021-06-16T07:44:34.000Z</time>
      </trkpt>
      <trkpt lat="43.51193" lon="6.3685">
        <ele>268.8</ele>
        <time>2021-06-16T07:44:39.000Z</time>
      </trkpt>
      <trkpt lat="43.51194" lon="6.36844">
        <ele>268.7</ele>
        <time>2021-06-16T07:44:44.000Z</time>
      </trkpt>
      <trkpt lat="43.51196" lon="6.36838">
        <ele>268.5</ele>
        <time>2021-06-16T07:44:48.000Z</time>
      </trkpt>
      <trkpt lat="43.51197" lon="6.3683">
        <ele>268.2</ele>
        <time>2021-06-16T07:44:52.000Z</time>
      </trkpt>
      <trkpt lat="43.512" lon="6.36823">
        <ele>268</ele>
        <time>2021-06-16T07:44:55.000Z</time>
      </trkpt>
      <trkpt lat="43.51198" lon="6.36816">
        <ele>267.7</ele>
        <time>2021-06-16T07:44:59.000Z</time>
      </trkpt>
      <trkpt lat="43.51198" lon="6.36809">
        <ele>267</ele>
        <time>2021-06-16T07:45:03.000Z</time>
      </trkpt>
      <trkpt lat="43.51199" lon="6.36802">
        <ele>267.1</ele>
        <time>2021-06-16T07:45:11.000Z</time>
      </trkpt>
      <trkpt lat="43.51198" lon="6.36795">
        <ele>266.7</ele>
        <time>2021-06-16T07:45:16.000Z</time>
      </trkpt>
      <trkpt lat="43.51203" lon="6.3679">
        <ele>266.4</ele>
        <time>2021-06-16T07:45:20.000Z</time>
      </trkpt>
      <trkpt lat="43.51203" lon="6.36783">
        <ele>265.7</ele>
        <time>2021-06-16T07:45:25.000Z</time>
      </trkpt>
      <trkpt lat="43.51204" lon="6.36777">
        <ele>265</ele>
        <time>2021-06-16T07:45:30.000Z</time>
      </trkpt>
      <trkpt lat="43.51209" lon="6.36772">
        <ele>264.8</ele>
        <time>2021-06-16T07:45:34.000Z</time>
      </trkpt>
      <trkpt lat="43.5121" lon="6.36766">
        <ele>264.6</ele>
        <time>2021-06-16T07:45:37.000Z</time>
      </trkpt>
      <trkpt lat="43.51209" lon="6.36759">
        <ele>264.4</ele>
        <time>2021-06-16T07:45:40.000Z</time>
      </trkpt>
      <trkpt lat="43.51211" lon="6.36753">
        <ele>264.2</ele>
        <time>2021-06-16T07:45:43.000Z</time>
      </trkpt>
      <trkpt lat="43.51214" lon="6.36748">
        <ele>264.1</ele>
        <time>2021-06-16T07:45:47.000Z</time>
      </trkpt>
      <trkpt lat="43.51215" lon="6.3674">
        <ele>263.9</ele>
        <time>2021-06-16T07:45:53.000Z</time>
      </trkpt>
      <trkpt lat="43.51213" lon="6.36732">
        <ele>263.7</ele>
        <time>2021-06-16T07:45:57.000Z</time>
      </trkpt>
      <trkpt lat="43.51212" lon="6.36725">
        <ele>263.5</ele>
        <time>2021-06-16T07:46:00.000Z</time>
      </trkpt>
      <trkpt lat="43.51212" lon="6.36717">
        <ele>263.2</ele>
        <time>2021-06-16T07:46:04.000Z</time>
      </trkpt>
      <trkpt lat="43.5121" lon="6.3671">
        <ele>262.8</ele>
        <time>2021-06-16T07:46:08.000Z</time>
      </trkpt>
      <trkpt lat="43.51209" lon="6.36703">
        <ele>262.6</ele>
        <time>2021-06-16T07:46:11.000Z</time>
      </trkpt>
      <trkpt lat="43.5121" lon="6.36696">
        <ele>262.3</ele>
        <time>2021-06-16T07:46:16.000Z</time>
      </trkpt>
      <trkpt lat="43.51208" lon="6.36689">
        <ele>262.1</ele>
        <time>2021-06-16T07:46:21.000Z</time>
      </trkpt>
      <trkpt lat="43.51207" lon="6.36683">
        <ele>262</ele>
        <time>2021-06-16T07:46:24.000Z</time>
      </trkpt>
      <trkpt lat="43.51207" lon="6.36676">
        <ele>261.7</ele>
        <time>2021-06-16T07:46:28.000Z</time>
      </trkpt>
      <trkpt lat="43.51207" lon="6.36668">
        <ele>261.3</ele>
        <time>2021-06-16T07:46:33.000Z</time>
      </trkpt>
      <trkpt lat="43.51206" lon="6.36662">
        <ele>261</ele>
        <time>2021-06-16T07:46:38.000Z</time>
      </trkpt>
      <trkpt lat="43.51205" lon="6.36655">
        <ele>260.8</ele>
        <time>2021-06-16T07:46:41.000Z</time>
      </trkpt>
      <trkpt lat="43.51206" lon="6.36648">
        <ele>260.6</ele>
        <time>2021-06-16T07:46:45.000Z</time>
      </trkpt>
      <trkpt lat="43.5121" lon="6.36644">
        <ele>260.4</ele>
        <time>2021-06-16T07:46:49.000Z</time>
      </trkpt>
      <trkpt lat="43.51212" lon="6.36638">
        <ele>260.2</ele>
        <time>2021-06-16T07:46:54.000Z</time>
      </trkpt>
      <trkpt lat="43.51215" lon="6.36632">
        <ele>259.9</ele>
        <time>2021-06-16T07:46:59.000Z</time>
      </trkpt>
      <trkpt lat="43.51218" lon="6.36627">
        <ele>259.5</ele>
        <time>2021-06-16T07:47:05.000Z</time>
      </trkpt>
      <trkpt lat="43.51217" lon="6.3662">
        <ele>259.3</ele>
        <time>2021-06-16T07:47:10.000Z</time>
      </trkpt>
      <trkpt lat="43.51219" lon="6.36612">
        <ele>259.1</ele>
        <time>2021-06-16T07:47:14.000Z</time>
      </trkpt>
      <trkpt lat="43.5122" lon="6.36606">
        <ele>259</ele>
        <time>2021-06-16T07:47:17.000Z</time>
      </trkpt>
      <trkpt lat="43.51219" lon="6.36599">
        <ele>258</ele>
        <time>2021-06-16T07:47:22.000Z</time>
      </trkpt>
      <trkpt lat="43.51223" lon="6.36594">
        <ele>258.6</ele>
        <time>2021-06-16T07:47:27.000Z</time>
      </trkpt>
      <trkpt lat="43.51226" lon="6.36589">
        <ele>258.3</ele>
        <time>2021-06-16T07:47:31.000Z</time>
      </trkpt>
      <trkpt lat="43.5123" lon="6.36583">
        <ele>258</ele>
        <time>2021-06-16T07:47:36.000Z</time>
      </trkpt>
      <trkpt lat="43.51234" lon="6.36579">
        <ele>257.9</ele>
        <time>2021-06-16T07:47:39.000Z</time>
      </trkpt>
      <trkpt lat="43.51239" lon="6.36576">
        <ele>257.7</ele>
        <time>2021-06-16T07:47:43.000Z</time>
      </trkpt>
      <trkpt lat="43.51242" lon="6.36571">
        <ele>257.4</ele>
        <time>2021-06-16T07:47:47.000Z</time>
      </trkpt>
      <trkpt lat="43.51244" lon="6.36565">
        <ele>257.1</ele>
        <time>2021-06-16T07:47:52.000Z</time>
      </trkpt>
      <trkpt lat="43.51246" lon="6.36557">
        <ele>256.9</ele>
        <time>2021-06-16T07:47:56.000Z</time>
      </trkpt>
      <trkpt lat="43.51248" lon="6.3655">
        <ele>256.3</ele>
        <time>2021-06-16T07:48:06.000Z</time>
      </trkpt>
      <trkpt lat="43.5125" lon="6.36545">
        <ele>256.2</ele>
        <time>2021-06-16T07:48:09.000Z</time>
      </trkpt>
      <trkpt lat="43.51251" lon="6.36538">
        <ele>256.1</ele>
        <time>2021-06-16T07:48:12.000Z</time>
      </trkpt>
      <trkpt lat="43.5125" lon="6.36532">
        <ele>256</ele>
        <time>2021-06-16T07:48:15.000Z</time>
      </trkpt>
      <trkpt lat="43.51249" lon="6.36525">
        <ele>256</ele>
        <time>2021-06-16T07:48:21.000Z</time>
      </trkpt>
      <trkpt lat="43.51247" lon="6.36517">
        <ele>256</ele>
        <time>2021-06-16T07:48:25.000Z</time>
      </trkpt>
      <trkpt lat="43.5125" lon="6.36512">
        <ele>256.3</ele>
        <time>2021-06-16T07:48:30.000Z</time>
      </trkpt>
      <trkpt lat="43.51248" lon="6.36506">
        <ele>256</ele>
        <time>2021-06-16T07:48:33.000Z</time>
      </trkpt>
      <trkpt lat="43.51246" lon="6.365">
        <ele>257.1</ele>
        <time>2021-06-16T07:48:37.000Z</time>
      </trkpt>
      <trkpt lat="43.51243" lon="6.36495">
        <ele>257.6</ele>
        <time>2021-06-16T07:48:41.000Z</time>
      </trkpt>
      <trkpt lat="43.51243" lon="6.36489">
        <ele>258.1</ele>
        <time>2021-06-16T07:48:45.000Z</time>
      </trkpt>
      <trkpt lat="43.51242" lon="6.36483">
        <ele>258.9</ele>
        <time>2021-06-16T07:48:51.000Z</time>
      </trkpt>
      <trkpt lat="43.5124" lon="6.36477">
        <ele>259.5</ele>
        <time>2021-06-16T07:48:57.000Z</time>
      </trkpt>
      <trkpt lat="43.51237" lon="6.36472">
        <ele>259.9</ele>
        <time>2021-06-16T07:49:01.000Z</time>
      </trkpt>
      <trkpt lat="43.51236" lon="6.36466">
        <ele>260.3</ele>
        <time>2021-06-16T07:49:06.000Z</time>
      </trkpt>
      <trkpt lat="43.51239" lon="6.3646">
        <ele>260.6</ele>
        <time>2021-06-16T07:49:11.000Z</time>
      </trkpt>
      <trkpt lat="43.51239" lon="6.36453">
        <ele>261</ele>
        <time>2021-06-16T07:49:17.000Z</time>
      </trkpt>
      <trkpt lat="43.51234" lon="6.3645">
        <ele>261.2</ele>
        <time>2021-06-16T07:49:20.000Z</time>
      </trkpt>
      <trkpt lat="43.51232" lon="6.36444">
        <ele>261.7</ele>
        <time>2021-06-16T07:49:28.000Z</time>
      </trkpt>
      <trkpt lat="43.51228" lon="6.36438">
        <ele>262.2</ele>
        <time>2021-06-16T07:49:33.000Z</time>
      </trkpt>
      <trkpt lat="43.51225" lon="6.36433">
        <ele>262.6</ele>
        <time>2021-06-16T07:49:37.000Z</time>
      </trkpt>
      <trkpt lat="43.51224" lon="6.36426">
        <ele>263</ele>
        <time>2021-06-16T07:49:43.000Z</time>
      </trkpt>
      <trkpt lat="43.51222" lon="6.36419">
        <ele>263.4</ele>
        <time>2021-06-16T07:49:48.000Z</time>
      </trkpt>
      <trkpt lat="43.51221" lon="6.36411">
        <ele>263.8</ele>
        <time>2021-06-16T07:49:54.000Z</time>
      </trkpt>
      <trkpt lat="43.51223" lon="6.36405">
        <ele>264</ele>
        <time>2021-06-16T07:49:59.000Z</time>
      </trkpt>
      <trkpt lat="43.51223" lon="6.36398">
        <ele>264.2</ele>
        <time>2021-06-16T07:50:04.000Z</time>
      </trkpt>
      <trkpt lat="43.51222" lon="6.36391">
        <ele>264.5</ele>
        <time>2021-06-16T07:50:09.000Z</time>
      </trkpt>
      <trkpt lat="43.5122" lon="6.36382">
        <ele>264</ele>
        <time>2021-06-16T07:50:14.000Z</time>
      </trkpt>
      <trkpt lat="43.5122" lon="6.36376">
        <ele>265.3</ele>
        <time>2021-06-16T07:50:21.000Z</time>
      </trkpt>
      <trkpt lat="43.5122" lon="6.36369">
        <ele>265</ele>
        <time>2021-06-16T07:50:28.000Z</time>
      </trkpt>
      <trkpt lat="43.51224" lon="6.36362">
        <ele>266.1</ele>
        <time>2021-06-16T07:50:36.000Z</time>
      </trkpt>
      <trkpt lat="43.51226" lon="6.36356">
        <ele>266.3</ele>
        <time>2021-06-16T07:50:43.000Z</time>
      </trkpt>
      <trkpt lat="43.51229" lon="6.3635">
        <ele>266</ele>
        <time>2021-06-16T07:50:48.000Z</time>
      </trkpt>
      <trkpt lat="43.51233" lon="6.36343">
        <ele>266.6</ele>
        <time>2021-06-16T07:50:54.000Z</time>
      </trkpt>
      <trkpt lat="43.51237" lon="6.3634">
        <ele>266.8</ele>
        <time>2021-06-16T07:50:58.000Z</time>
      </trkpt>
      <trkpt lat="43.51241" lon="6.36336">
        <ele>267</ele>
        <time>2021-06-16T07:51:03.000Z</time>
      </trkpt>
      <trkpt lat="43.51245" lon="6.36333">
        <ele>267</ele>
        <time>2021-06-16T07:51:05.000Z</time>
      </trkpt>
      <trkpt lat="43.51247" lon="6.36326">
        <ele>267.1</ele>
        <time>2021-06-16T07:51:09.000Z</time>
      </trkpt>
      <trkpt lat="43.51251" lon="6.36321">
        <ele>267.1</ele>
        <time>2021-06-16T07:51:12.000Z</time>
      </trkpt>
      <trkpt lat="43.51251" lon="6.36312">
        <ele>267.1</ele>
        <time>2021-06-16T07:51:15.000Z</time>
      </trkpt>
      <trkpt lat="43.51249" lon="6.36302">
        <ele>266</ele>
        <time>2021-06-16T07:51:19.000Z</time>
      </trkpt>
      <trkpt lat="43.51249" lon="6.36296">
        <ele>266.6</ele>
        <time>2021-06-16T07:51:28.000Z</time>
      </trkpt>
      <trkpt lat="43.5125" lon="6.36289">
        <ele>266.4</ele>
        <time>2021-06-16T07:51:32.000Z</time>
      </trkpt>
      <trkpt lat="43.51252" lon="6.36282">
        <ele>266.3</ele>
        <time>2021-06-16T07:51:36.000Z</time>
      </trkpt>
      <trkpt lat="43.51254" lon="6.36277">
        <ele>266.3</ele>
        <time>2021-06-16T07:51:39.000Z</time>
      </trkpt>
      <trkpt lat="43.51256" lon="6.36271">
        <ele>266.2</ele>
        <time>2021-06-16T07:51:42.000Z</time>
      </trkpt>
      <trkpt lat="43.51255" lon="6.36265">
        <ele>266.2</ele>
        <time>2021-06-16T07:51:45.000Z</time>
      </trkpt>
      <trkpt lat="43.51251" lon="6.36258">
        <ele>266.1</ele>
        <time>2021-06-16T07:51:50.000Z</time>
      </trkpt>
      <trkpt lat="43.51246" lon="6.36256">
        <ele>266.1</ele>
        <time>2021-06-16T07:51:52.000Z</time>
      </trkpt>
      <trkpt lat="43.51243" lon="6.36251">
        <ele>266</ele>
        <time>2021-06-16T07:51:56.000Z</time>
      </trkpt>
      <trkpt lat="43.51246" lon="6.36245">
        <ele>265.5</ele>
        <time>2021-06-16T07:52:05.000Z</time>
      </trkpt>
      <trkpt lat="43.51251" lon="6.36247">
        <ele>265.4</ele>
        <time>2021-06-16T07:52:08.000Z</time>
      </trkpt>
      <trkpt lat="43.51256" lon="6.36249">
        <ele>265.3</ele>
        <time>2021-06-16T07:52:11.000Z</time>
      </trkpt>
      <trkpt lat="43.51262" lon="6.36251">
        <ele>265.1</ele>
        <time>2021-06-16T07:52:15.000Z</time>
      </trkpt>
      <trkpt lat="43.51267" lon="6.36252">
        <ele>265</ele>
        <time>2021-06-16T07:52:18.000Z</time>
      </trkpt>
      <trkpt lat="43.51274" lon="6.36253">
        <ele>264.8</ele>
        <time>2021-06-16T07:52:21.000Z</time>
      </trkpt>
      <trkpt lat="43.51279" lon="6.36254">
        <ele>264.7</ele>
        <time>2021-06-16T07:52:24.000Z</time>
      </trkpt>
      <trkpt lat="43.51285" lon="6.36255">
        <ele>264</ele>
        <time>2021-06-16T07:52:28.000Z</time>
      </trkpt>
      <trkpt lat="43.51291" lon="6.36253">
        <ele>264.5</ele>
        <time>2021-06-16T07:52:34.000Z</time>
      </trkpt>
      <trkpt lat="43.51296" lon="6.36253">
        <ele>264.3</ele>
        <time>2021-06-16T07:53:00.000Z</time>
      </trkpt>
      <trkpt lat="43.51301" lon="6.36252">
        <ele>264.3</ele>
        <time>2021-06-16T07:53:08.000Z</time>
      </trkpt>
      <trkpt lat="43.51308" lon="6.36247">
        <ele>264</ele>
        <time>2021-06-16T07:53:27.000Z</time>
      </trkpt>
      <trkpt lat="43.51313" lon="6.36247">
        <ele>264.2</ele>
        <time>2021-06-16T07:53:31.000Z</time>
      </trkpt>
      <trkpt lat="43.51318" lon="6.36248">
        <ele>264.2</ele>
        <time>2021-06-16T07:53:33.000Z</time>
      </trkpt>
      <trkpt lat="43.51312" lon="6.36247">
        <ele>264</ele>
        <time>2021-06-16T07:53:45.000Z</time>
      </trkpt>
      <trkpt lat="43.51303" lon="6.3624">
        <ele>264</ele>
        <time>2021-06-16T07:54:00.000Z</time>
      </trkpt>
      <trkpt lat="43.51299" lon="6.36245">
        <ele>264</ele>
        <time>2021-06-16T07:54:14.000Z</time>
      </trkpt>
      <trkpt lat="43.51291" lon="6.36243">
        <ele>264</ele>
        <time>2021-06-16T07:54:27.000Z</time>
      </trkpt>
      <trkpt lat="43.51282" lon="6.36244">
        <ele>264.2</ele>
        <time>2021-06-16T07:54:32.000Z</time>
      </trkpt>
      <trkpt lat="43.51288" lon="6.36245">
        <ele>264</ele>
        <time>2021-06-16T07:54:55.000Z</time>
      </trkpt>
      <trkpt lat="43.51292" lon="6.36248">
        <ele>264</ele>
        <time>2021-06-16T07:55:05.000Z</time>
      </trkpt>
      <trkpt lat="43.51297" lon="6.36249">
        <ele>264.2</ele>
        <time>2021-06-16T07:55:08.000Z</time>
      </trkpt>
      <trkpt lat="43.51302" lon="6.36251">
        <ele>264.2</ele>
        <time>2021-06-16T07:55:12.000Z</time>
      </trkpt>
      <trkpt lat="43.51307" lon="6.36251">
        <ele>264.2</ele>
        <time>2021-06-16T07:55:19.000Z</time>
      </trkpt>
      <trkpt lat="43.51311" lon="6.36253">
        <ele>264.3</ele>
        <time>2021-06-16T07:55:30.000Z</time>
      </trkpt>
      <trkpt lat="43.51316" lon="6.36253">
        <ele>264</ele>
        <time>2021-06-16T07:55:43.000Z</time>
      </trkpt>
      <trkpt lat="43.51323" lon="6.36255">
        <ele>264</ele>
        <time>2021-06-16T07:55:52.000Z</time>
      </trkpt>
      <trkpt lat="43.51329" lon="6.36254">
        <ele>264</ele>
        <time>2021-06-16T07:55:58.000Z</time>
      </trkpt>
      <trkpt lat="43.51334" lon="6.36254">
        <ele>264.3</ele>
        <time>2021-06-16T07:56:02.000Z</time>
      </trkpt>
      <trkpt lat="43.51339" lon="6.36255">
        <ele>264.4</ele>
        <time>2021-06-16T07:56:06.000Z</time>
      </trkpt>
      <trkpt lat="43.51332" lon="6.36252">
        <ele>264.4</ele>
        <time>2021-06-16T07:56:12.000Z</time>
      </trkpt>
      <trkpt lat="43.51328" lon="6.36253">
        <ele>264.4</ele>
        <time>2021-06-16T07:56:20.000Z</time>
      </trkpt>
      <trkpt lat="43.51322" lon="6.36251">
        <ele>264.5</ele>
        <time>2021-06-16T07:56:28.000Z</time>
      </trkpt>
      <trkpt lat="43.51318" lon="6.36252">
        <ele>263.5</ele>
        <time>2021-06-16T07:57:37.000Z</time>
      </trkpt>
      <trkpt lat="43.51322" lon="6.3625">
        <ele>262.6</ele>
        <time>2021-06-16T07:58:19.000Z</time>
      </trkpt>
      <trkpt lat="43.51318" lon="6.36253">
        <ele>262</ele>
        <time>2021-06-16T07:58:54.000Z</time>
      </trkpt>
      <trkpt lat="43.51314" lon="6.3625">
        <ele>262.8</ele>
        <time>2021-06-16T07:59:04.000Z</time>
      </trkpt>
      <trkpt lat="43.51311" lon="6.36244">
        <ele>262.8</ele>
        <time>2021-06-16T07:59:10.000Z</time>
      </trkpt>
      <trkpt lat="43.51308" lon="6.36237">
        <ele>262.9</ele>
        <time>2021-06-16T07:59:16.000Z</time>
      </trkpt>
      <trkpt lat="43.51306" lon="6.36231">
        <ele>262.9</ele>
        <time>2021-06-16T07:59:21.000Z</time>
      </trkpt>
      <trkpt lat="43.51304" lon="6.36224">
        <ele>263</ele>
        <time>2021-06-16T07:59:26.000Z</time>
      </trkpt>
      <trkpt lat="43.51303" lon="6.36217">
        <ele>263</ele>
        <time>2021-06-16T07:59:31.000Z</time>
      </trkpt>
      <trkpt lat="43.51301" lon="6.3621">
        <ele>263</ele>
        <time>2021-06-16T07:59:36.000Z</time>
      </trkpt>
      <trkpt lat="43.51302" lon="6.36202">
        <ele>263.1</ele>
        <time>2021-06-16T07:59:41.000Z</time>
      </trkpt>
      <trkpt lat="43.51301" lon="6.36196">
        <ele>263.1</ele>
        <time>2021-06-16T07:59:44.000Z</time>
      </trkpt>
      <trkpt lat="43.51302" lon="6.3619">
        <ele>263.1</ele>
        <time>2021-06-16T07:59:49.000Z</time>
      </trkpt>
      <trkpt lat="43.51301" lon="6.36183">
        <ele>263.1</ele>
        <time>2021-06-16T07:59:53.000Z</time>
      </trkpt>
      <trkpt lat="43.51298" lon="6.36177">
        <ele>263.1</ele>
        <time>2021-06-16T07:59:56.000Z</time>
      </trkpt>
      <trkpt lat="43.51295" lon="6.36171">
        <ele>263.2</ele>
        <time>2021-06-16T08:00:01.000Z</time>
      </trkpt>
      <trkpt lat="43.51297" lon="6.36164">
        <ele>263.2</ele>
        <time>2021-06-16T08:00:07.000Z</time>
      </trkpt>
      <trkpt lat="43.51296" lon="6.36157">
        <ele>263.3</ele>
        <time>2021-06-16T08:00:11.000Z</time>
      </trkpt>
      <trkpt lat="43.51295" lon="6.3615">
        <ele>263.5</ele>
        <time>2021-06-16T08:00:16.000Z</time>
      </trkpt>
      <trkpt lat="43.51297" lon="6.36143">
        <ele>263.7</ele>
        <time>2021-06-16T08:00:21.000Z</time>
      </trkpt>
      <trkpt lat="43.51294" lon="6.36138">
        <ele>263.8</ele>
        <time>2021-06-16T08:00:24.000Z</time>
      </trkpt>
      <trkpt lat="43.51291" lon="6.36131">
        <ele>263.9</ele>
        <time>2021-06-16T08:00:28.000Z</time>
      </trkpt>
      <trkpt lat="43.51289" lon="6.36125">
        <ele>264.1</ele>
        <time>2021-06-16T08:00:34.000Z</time>
      </trkpt>
      <trkpt lat="43.51289" lon="6.36117">
        <ele>264</ele>
        <time>2021-06-16T08:00:39.000Z</time>
      </trkpt>
      <trkpt lat="43.51287" lon="6.3611">
        <ele>264.2</ele>
        <time>2021-06-16T08:00:44.000Z</time>
      </trkpt>
      <trkpt lat="43.51286" lon="6.36104">
        <ele>264.5</ele>
        <time>2021-06-16T08:00:50.000Z</time>
      </trkpt>
      <trkpt lat="43.51283" lon="6.36097">
        <ele>264.7</ele>
        <time>2021-06-16T08:00:54.000Z</time>
      </trkpt>
      <trkpt lat="43.51287" lon="6.36091">
        <ele>265</ele>
        <time>2021-06-16T08:00:59.000Z</time>
      </trkpt>
      <trkpt lat="43.51284" lon="6.36086">
        <ele>265.2</ele>
        <time>2021-06-16T08:01:05.000Z</time>
      </trkpt>
      <trkpt lat="43.51278" lon="6.3608">
        <ele>265.4</ele>
        <time>2021-06-16T08:01:11.000Z</time>
      </trkpt>
      <trkpt lat="43.51273" lon="6.36076">
        <ele>265.7</ele>
        <time>2021-06-16T08:01:16.000Z</time>
      </trkpt>
      <trkpt lat="43.51274" lon="6.3607">
        <ele>266.2</ele>
        <time>2021-06-16T08:01:23.000Z</time>
      </trkpt>
      <trkpt lat="43.51278" lon="6.36065">
        <ele>266.8</ele>
        <time>2021-06-16T08:01:35.000Z</time>
      </trkpt>
      <trkpt lat="43.51282" lon="6.36064">
        <ele>266.9</ele>
        <time>2021-06-16T08:01:39.000Z</time>
      </trkpt>
      <trkpt lat="43.51281" lon="6.36058">
        <ele>267.5</ele>
        <time>2021-06-16T08:01:50.000Z</time>
      </trkpt>
      <trkpt lat="43.51278" lon="6.36053">
        <ele>267.7</ele>
        <time>2021-06-16T08:01:54.000Z</time>
      </trkpt>
      <trkpt lat="43.51273" lon="6.36051">
        <ele>268.2</ele>
        <time>2021-06-16T08:02:01.000Z</time>
      </trkpt>
      <trkpt lat="43.51268" lon="6.36051">
        <ele>269.1</ele>
        <time>2021-06-16T08:02:07.000Z</time>
      </trkpt>
      <trkpt lat="43.51262" lon="6.36046">
        <ele>270</ele>
        <time>2021-06-16T08:02:16.000Z</time>
      </trkpt>
      <trkpt lat="43.51261" lon="6.3604">
        <ele>272.2</ele>
        <time>2021-06-16T08:02:30.000Z</time>
      </trkpt>
      <trkpt lat="43.51259" lon="6.36033">
        <ele>272.6</ele>
        <time>2021-06-16T08:02:34.000Z</time>
      </trkpt>
      <trkpt lat="43.51256" lon="6.36027">
        <ele>273</ele>
        <time>2021-06-16T08:02:38.000Z</time>
      </trkpt>
      <trkpt lat="43.51261" lon="6.36024">
        <ele>273.6</ele>
        <time>2021-06-16T08:02:45.000Z</time>
      </trkpt>
      <trkpt lat="43.51257" lon="6.36021">
        <ele>274.5</ele>
        <time>2021-06-16T08:02:58.000Z</time>
      </trkpt>
      <trkpt lat="43.51259" lon="6.36027">
        <ele>275.4</ele>
        <time>2021-06-16T08:03:39.000Z</time>
      </trkpt>
      <trkpt lat="43.51264" lon="6.36026">
        <ele>275.4</ele>
        <time>2021-06-16T08:03:49.000Z</time>
      </trkpt>
      <trkpt lat="43.5127" lon="6.36025">
        <ele>275.4</ele>
        <time>2021-06-16T08:03:52.000Z</time>
      </trkpt>
      <trkpt lat="43.51275" lon="6.36025">
        <ele>275.4</ele>
        <time>2021-06-16T08:03:57.000Z</time>
      </trkpt>
      <trkpt lat="43.51274" lon="6.36018">
        <ele>275.1</ele>
        <time>2021-06-16T08:04:06.000Z</time>
      </trkpt>
      <trkpt lat="43.51271" lon="6.36013">
        <ele>274.7</ele>
        <time>2021-06-16T08:04:12.000Z</time>
      </trkpt>
      <trkpt lat="43.51266" lon="6.36009">
        <ele>274.3</ele>
        <time>2021-06-16T08:04:18.000Z</time>
      </trkpt>
      <trkpt lat="43.51265" lon="6.36002">
        <ele>273.5</ele>
        <time>2021-06-16T08:04:26.000Z</time>
      </trkpt>
      <trkpt lat="43.51262" lon="6.35997">
        <ele>272.8</ele>
        <time>2021-06-16T08:04:31.000Z</time>
      </trkpt>
      <trkpt lat="43.51262" lon="6.35991">
        <ele>272.3</ele>
        <time>2021-06-16T08:04:35.000Z</time>
      </trkpt>
      <trkpt lat="43.51265" lon="6.35986">
        <ele>271.9</ele>
        <time>2021-06-16T08:04:39.000Z</time>
      </trkpt>
      <trkpt lat="43.51267" lon="6.35978">
        <ele>271</ele>
        <time>2021-06-16T08:04:43.000Z</time>
      </trkpt>
      <trkpt lat="43.51265" lon="6.35972">
        <ele>271.4</ele>
        <time>2021-06-16T08:04:48.000Z</time>
      </trkpt>
      <trkpt lat="43.51266" lon="6.35965">
        <ele>271.4</ele>
        <time>2021-06-16T08:04:52.000Z</time>
      </trkpt>
      <trkpt lat="43.51265" lon="6.35957">
        <ele>272</ele>
        <time>2021-06-16T08:05:02.000Z</time>
      </trkpt>
      <trkpt lat="43.51265" lon="6.3595">
        <ele>272.7</ele>
        <time>2021-06-16T08:05:09.000Z</time>
      </trkpt>
      <trkpt lat="43.51268" lon="6.35944">
        <ele>273.3</ele>
        <time>2021-06-16T08:05:15.000Z</time>
      </trkpt>
      <trkpt lat="43.51268" lon="6.35937">
        <ele>274</ele>
        <time>2021-06-16T08:05:22.000Z</time>
      </trkpt>
      <trkpt lat="43.51266" lon="6.35931">
        <ele>274.6</ele>
        <time>2021-06-16T08:05:27.000Z</time>
      </trkpt>
      <trkpt lat="43.51267" lon="6.35923">
        <ele>275.2</ele>
        <time>2021-06-16T08:05:33.000Z</time>
      </trkpt>
      <trkpt lat="43.51269" lon="6.35918">
        <ele>275.8</ele>
        <time>2021-06-16T08:05:36.000Z</time>
      </trkpt>
      <trkpt lat="43.5127" lon="6.35912">
        <ele>276.3</ele>
        <time>2021-06-16T08:05:40.000Z</time>
      </trkpt>
      <trkpt lat="43.51271" lon="6.35904">
        <ele>276.7</ele>
        <time>2021-06-16T08:05:45.000Z</time>
      </trkpt>
      <trkpt lat="43.51271" lon="6.35898">
        <ele>277.1</ele>
        <time>2021-06-16T08:05:50.000Z</time>
      </trkpt>
      <trkpt lat="43.51268" lon="6.35892">
        <ele>277</ele>
        <time>2021-06-16T08:05:53.000Z</time>
      </trkpt>
      <trkpt lat="43.51265" lon="6.35884">
        <ele>277.4</ele>
        <time>2021-06-16T08:05:57.000Z</time>
      </trkpt>
      <trkpt lat="43.51265" lon="6.35877">
        <ele>277.5</ele>
        <time>2021-06-16T08:06:01.000Z</time>
      </trkpt>
      <trkpt lat="43.51266" lon="6.3587">
        <ele>277.6</ele>
        <time>2021-06-16T08:06:06.000Z</time>
      </trkpt>
      <trkpt lat="43.51266" lon="6.35863">
        <ele>277.6</ele>
        <time>2021-06-16T08:06:13.000Z</time>
      </trkpt>
      <trkpt lat="43.51266" lon="6.35855">
        <ele>277</ele>
        <time>2021-06-16T08:06:19.000Z</time>
      </trkpt>
      <trkpt lat="43.51265" lon="6.35849">
        <ele>276.8</ele>
        <time>2021-06-16T08:06:24.000Z</time>
      </trkpt>
      <trkpt lat="43.5126" lon="6.35841">
        <ele>276.4</ele>
        <time>2021-06-16T08:06:27.000Z</time>
      </trkpt>
      <trkpt lat="43.51257" lon="6.35832">
        <ele>275.9</ele>
        <time>2021-06-16T08:06:32.000Z</time>
      </trkpt>
      <trkpt lat="43.51258" lon="6.35826">
        <ele>275.5</ele>
        <time>2021-06-16T08:06:37.000Z</time>
      </trkpt>
      <trkpt lat="43.51254" lon="6.3582">
        <ele>275.4</ele>
        <time>2021-06-16T08:06:40.000Z</time>
      </trkpt>
      <trkpt lat="43.51256" lon="6.35812">
        <ele>275</ele>
        <time>2021-06-16T08:06:47.000Z</time>
      </trkpt>
      <trkpt lat="43.51258" lon="6.35806">
        <ele>275.2</ele>
        <time>2021-06-16T08:06:53.000Z</time>
      </trkpt>
      <trkpt lat="43.51259" lon="6.358">
        <ele>275.2</ele>
        <time>2021-06-16T08:06:57.000Z</time>
      </trkpt>
      <trkpt lat="43.51261" lon="6.35794">
        <ele>275.2</ele>
        <time>2021-06-16T08:07:00.000Z</time>
      </trkpt>
      <trkpt lat="43.51259" lon="6.35789">
        <ele>275.3</ele>
        <time>2021-06-16T08:07:04.000Z</time>
      </trkpt>
      <trkpt lat="43.5126" lon="6.35783">
        <ele>275.3</ele>
        <time>2021-06-16T08:07:08.000Z</time>
      </trkpt>
      <trkpt lat="43.51259" lon="6.35777">
        <ele>275.5</ele>
        <time>2021-06-16T08:07:13.000Z</time>
      </trkpt>
      <trkpt lat="43.51257" lon="6.35771">
        <ele>275.5</ele>
        <time>2021-06-16T08:07:17.000Z</time>
      </trkpt>
      <trkpt lat="43.5126" lon="6.35765">
        <ele>275.6</ele>
        <time>2021-06-16T08:07:21.000Z</time>
      </trkpt>
      <trkpt lat="43.51263" lon="6.3576">
        <ele>275.6</ele>
        <time>2021-06-16T08:07:23.000Z</time>
      </trkpt>
      <trkpt lat="43.51264" lon="6.35753">
        <ele>275.7</ele>
        <time>2021-06-16T08:07:28.000Z</time>
      </trkpt>
      <trkpt lat="43.5126" lon="6.35748">
        <ele>275.8</ele>
        <time>2021-06-16T08:07:32.000Z</time>
      </trkpt>
      <trkpt lat="43.51256" lon="6.35743">
        <ele>276</ele>
        <time>2021-06-16T08:07:36.000Z</time>
      </trkpt>
      <trkpt lat="43.51255" lon="6.35737">
        <ele>276.1</ele>
        <time>2021-06-16T08:07:40.000Z</time>
      </trkpt>
      <trkpt lat="43.51256" lon="6.3573">
        <ele>276.3</ele>
        <time>2021-06-16T08:07:45.000Z</time>
      </trkpt>
      <trkpt lat="43.51259" lon="6.35725">
        <ele>276.4</ele>
        <time>2021-06-16T08:07:51.000Z</time>
      </trkpt>
      <trkpt lat="43.51261" lon="6.35719">
        <ele>276.4</ele>
        <time>2021-06-16T08:07:56.000Z</time>
      </trkpt>
      <trkpt lat="43.51265" lon="6.35714">
        <ele>276.5</ele>
        <time>2021-06-16T08:07:59.000Z</time>
      </trkpt>
      <trkpt lat="43.51269" lon="6.35711">
        <ele>276.5</ele>
        <time>2021-06-16T08:08:02.000Z</time>
      </trkpt>
      <trkpt lat="43.51273" lon="6.35706">
        <ele>276.5</ele>
        <time>2021-06-16T08:08:05.000Z</time>
      </trkpt>
      <trkpt lat="43.51274" lon="6.357">
        <ele>276.4</ele>
        <time>2021-06-16T08:08:09.000Z</time>
      </trkpt>
      <trkpt lat="43.51274" lon="6.35693">
        <ele>276.4</ele>
        <time>2021-06-16T08:08:13.000Z</time>
      </trkpt>
      <trkpt lat="43.51271" lon="6.35685">
        <ele>276.3</ele>
        <time>2021-06-16T08:08:17.000Z</time>
      </trkpt>
      <trkpt lat="43.51268" lon="6.3568">
        <ele>276.3</ele>
        <time>2021-06-16T08:08:19.000Z</time>
      </trkpt>
      <trkpt lat="43.51264" lon="6.35674">
        <ele>276.3</ele>
        <time>2021-06-16T08:08:22.000Z</time>
      </trkpt>
      <trkpt lat="43.5126" lon="6.35668">
        <ele>276.3</ele>
        <time>2021-06-16T08:08:27.000Z</time>
      </trkpt>
      <trkpt lat="43.51263" lon="6.3566">
        <ele>276</ele>
        <time>2021-06-16T08:08:32.000Z</time>
      </trkpt>
      <trkpt lat="43.51267" lon="6.35653">
        <ele>276</ele>
        <time>2021-06-16T08:08:38.000Z</time>
      </trkpt>
      <trkpt lat="43.51271" lon="6.35648">
        <ele>276</ele>
        <time>2021-06-16T08:08:42.000Z</time>
      </trkpt>
      <trkpt lat="43.5128" lon="6.35642">
        <ele>277</ele>
        <time>2021-06-16T08:08:46.000Z</time>
      </trkpt>
      <trkpt lat="43.51278" lon="6.35636">
        <ele>277</ele>
        <time>2021-06-16T08:08:50.000Z</time>
      </trkpt>
      <trkpt lat="43.51272" lon="6.3563">
        <ele>277</ele>
        <time>2021-06-16T08:08:54.000Z</time>
      </trkpt>
      <trkpt lat="43.51265" lon="6.35621">
        <ele>277</ele>
        <time>2021-06-16T08:08:58.000Z</time>
      </trkpt>
      <trkpt lat="43.51251" lon="6.35612">
        <ele>277</ele>
        <time>2021-06-16T08:09:02.000Z</time>
      </trkpt>
      <trkpt lat="43.51246" lon="6.35605">
        <ele>277</ele>
        <time>2021-06-16T08:09:06.000Z</time>
      </trkpt>
      <trkpt lat="43.51263" lon="6.35604">
        <ele>277</ele>
        <time>2021-06-16T08:09:10.000Z</time>
      </trkpt>
      <trkpt lat="43.51274" lon="6.35604">
        <ele>277</ele>
        <time>2021-06-16T08:09:14.000Z</time>
      </trkpt>
      <trkpt lat="43.51262" lon="6.35597">
        <ele>277</ele>
        <time>2021-06-16T08:09:18.000Z</time>
      </trkpt>
      <trkpt lat="43.51255" lon="6.35591">
        <ele>278.1</ele>
        <time>2021-06-16T08:09:21.000Z</time>
      </trkpt>
      <trkpt lat="43.51257" lon="6.35584">
        <ele>278.3</ele>
        <time>2021-06-16T08:09:25.000Z</time>
      </trkpt>
      <trkpt lat="43.51254" lon="6.35579">
        <ele>278.5</ele>
        <time>2021-06-16T08:09:28.000Z</time>
      </trkpt>
      <trkpt lat="43.51259" lon="6.35577">
        <ele>278.8</ele>
        <time>2021-06-16T08:09:32.000Z</time>
      </trkpt>
      <trkpt lat="43.51259" lon="6.3557">
        <ele>279.1</ele>
        <time>2021-06-16T08:09:38.000Z</time>
      </trkpt>
      <trkpt lat="43.51258" lon="6.35564">
        <ele>279.2</ele>
        <time>2021-06-16T08:09:42.000Z</time>
      </trkpt>
      <trkpt lat="43.51258" lon="6.35558">
        <ele>279.4</ele>
        <time>2021-06-16T08:09:48.000Z</time>
      </trkpt>
      <trkpt lat="43.51255" lon="6.3555">
        <ele>279.6</ele>
        <time>2021-06-16T08:09:55.000Z</time>
      </trkpt>
      <trkpt lat="43.51252" lon="6.35545">
        <ele>279.6</ele>
        <time>2021-06-16T08:09:58.000Z</time>
      </trkpt>
      <trkpt lat="43.51252" lon="6.35538">
        <ele>279.7</ele>
        <time>2021-06-16T08:10:02.000Z</time>
      </trkpt>
      <trkpt lat="43.51252" lon="6.3553">
        <ele>279</ele>
        <time>2021-06-16T08:10:07.000Z</time>
      </trkpt>
      <trkpt lat="43.51251" lon="6.35523">
        <ele>280</ele>
        <time>2021-06-16T08:10:13.000Z</time>
      </trkpt>
      <trkpt lat="43.51253" lon="6.35516">
        <ele>280.1</ele>
        <time>2021-06-16T08:10:19.000Z</time>
      </trkpt>
      <trkpt lat="43.51251" lon="6.3551">
        <ele>280.2</ele>
        <time>2021-06-16T08:10:23.000Z</time>
      </trkpt>
      <trkpt lat="43.51251" lon="6.35503">
        <ele>280.3</ele>
        <time>2021-06-16T08:10:27.000Z</time>
      </trkpt>
      <trkpt lat="43.51252" lon="6.35496">
        <ele>280.4</ele>
        <time>2021-06-16T08:10:32.000Z</time>
      </trkpt>
      <trkpt lat="43.51255" lon="6.3549">
        <ele>280.5</ele>
        <time>2021-06-16T08:10:36.000Z</time>
      </trkpt>
      <trkpt lat="43.51258" lon="6.35485">
        <ele>280.5</ele>
        <time>2021-06-16T08:10:41.000Z</time>
      </trkpt>
      <trkpt lat="43.51259" lon="6.35478">
        <ele>280.6</ele>
        <time>2021-06-16T08:10:45.000Z</time>
      </trkpt>
      <trkpt lat="43.51258" lon="6.35471">
        <ele>280.7</ele>
        <time>2021-06-16T08:10:49.000Z</time>
      </trkpt>
      <trkpt lat="43.5126" lon="6.35463">
        <ele>280.8</ele>
        <time>2021-06-16T08:10:54.000Z</time>
      </trkpt>
      <trkpt lat="43.51258" lon="6.35457">
        <ele>280.9</ele>
        <time>2021-06-16T08:10:57.000Z</time>
      </trkpt>
      <trkpt lat="43.51261" lon="6.35452">
        <ele>281</ele>
        <time>2021-06-16T08:11:00.000Z</time>
      </trkpt>
      <trkpt lat="43.51261" lon="6.35445">
        <ele>281.1</ele>
        <time>2021-06-16T08:11:04.000Z</time>
      </trkpt>
      <trkpt lat="43.5126" lon="6.35438">
        <ele>281.2</ele>
        <time>2021-06-16T08:11:09.000Z</time>
      </trkpt>
      <trkpt lat="43.51262" lon="6.3543">
        <ele>281.3</ele>
        <time>2021-06-16T08:11:14.000Z</time>
      </trkpt>
      <trkpt lat="43.51265" lon="6.35425">
        <ele>281.4</ele>
        <time>2021-06-16T08:11:18.000Z</time>
      </trkpt>
      <trkpt lat="43.51268" lon="6.35419">
        <ele>281.4</ele>
        <time>2021-06-16T08:11:22.000Z</time>
      </trkpt>
      <trkpt lat="43.51269" lon="6.35413">
        <ele>281.4</ele>
        <time>2021-06-16T08:11:27.000Z</time>
      </trkpt>
      <trkpt lat="43.51271" lon="6.35404">
        <ele>281.5</ele>
        <time>2021-06-16T08:11:33.000Z</time>
      </trkpt>
      <trkpt lat="43.51271" lon="6.35396">
        <ele>281.5</ele>
        <time>2021-06-16T08:11:37.000Z</time>
      </trkpt>
      <trkpt lat="43.51272" lon="6.3539">
        <ele>281.5</ele>
        <time>2021-06-16T08:11:41.000Z</time>
      </trkpt>
      <trkpt lat="43.5127" lon="6.35383">
        <ele>281.5</ele>
        <time>2021-06-16T08:11:45.000Z</time>
      </trkpt>
      <trkpt lat="43.51268" lon="6.35377">
        <ele>281.5</ele>
        <time>2021-06-16T08:11:48.000Z</time>
      </trkpt>
      <trkpt lat="43.51266" lon="6.3537">
        <ele>281.6</ele>
        <time>2021-06-16T08:11:52.000Z</time>
      </trkpt>
      <trkpt lat="43.51266" lon="6.35363">
        <ele>281.8</ele>
        <time>2021-06-16T08:11:57.000Z</time>
      </trkpt>
      <trkpt lat="43.51267" lon="6.35357">
        <ele>281</ele>
        <time>2021-06-16T08:12:01.000Z</time>
      </trkpt>
      <trkpt lat="43.51268" lon="6.35349">
        <ele>282.1</ele>
        <time>2021-06-16T08:12:06.000Z</time>
      </trkpt>
      <trkpt lat="43.51266" lon="6.35343">
        <ele>282.2</ele>
        <time>2021-06-16T08:12:09.000Z</time>
      </trkpt>
      <trkpt lat="43.51264" lon="6.35336">
        <ele>282.3</ele>
        <time>2021-06-16T08:12:13.000Z</time>
      </trkpt>
      <trkpt lat="43.51266" lon="6.3533">
        <ele>282.5</ele>
        <time>2021-06-16T08:12:18.000Z</time>
      </trkpt>
      <trkpt lat="43.51269" lon="6.35322">
        <ele>282.7</ele>
        <time>2021-06-16T08:12:23.000Z</time>
      </trkpt>
      <trkpt lat="43.51264" lon="6.35302">
        <ele>282</ele>
        <time>2021-06-16T08:12:33.000Z</time>
      </trkpt>
      <trkpt lat="43.51261" lon="6.35293">
        <ele>283</ele>
        <time>2021-06-16T08:12:38.000Z</time>
      </trkpt>
      <trkpt lat="43.51263" lon="6.35286">
        <ele>283.1</ele>
        <time>2021-06-16T08:12:41.000Z</time>
      </trkpt>
      <trkpt lat="43.51291" lon="6.3524">
        <ele>283</ele>
        <time>2021-06-16T08:13:16.000Z</time>
      </trkpt>
      <trkpt lat="43.51313" lon="6.35233">
        <ele>283</ele>
        <time>2021-06-16T08:13:25.000Z</time>
      </trkpt>
      <trkpt lat="43.51354" lon="6.35237">
        <ele>283</ele>
        <time>2021-06-16T08:13:31.000Z</time>
      </trkpt>
      <trkpt lat="43.51362" lon="6.35235">
        <ele>283</ele>
        <time>2021-06-16T08:13:35.000Z</time>
      </trkpt>
      <trkpt lat="43.51357" lon="6.35226">
        <ele>283</ele>
        <time>2021-06-16T08:13:39.000Z</time>
      </trkpt>
      <trkpt lat="43.51351" lon="6.35216">
        <ele>283</ele>
        <time>2021-06-16T08:13:43.000Z</time>
      </trkpt>
      <trkpt lat="43.51349" lon="6.35209">
        <ele>283</ele>
        <time>2021-06-16T08:13:47.000Z</time>
      </trkpt>
      <trkpt lat="43.51342" lon="6.35199">
        <ele>283</ele>
        <time>2021-06-16T08:13:51.000Z</time>
      </trkpt>
      <trkpt lat="43.51328" lon="6.35191">
        <ele>283</ele>
        <time>2021-06-16T08:13:55.000Z</time>
      </trkpt>
      <trkpt lat="43.51256" lon="6.35168">
        <ele>283.7</ele>
        <time>2021-06-16T08:13:58.000Z</time>
      </trkpt>
      <trkpt lat="43.51258" lon="6.35162">
        <ele>284</ele>
        <time>2021-06-16T08:14:14.000Z</time>
      </trkpt>
      <trkpt lat="43.51263" lon="6.3516">
        <ele>284</ele>
        <time>2021-06-16T08:14:18.000Z</time>
      </trkpt>
      <trkpt lat="43.51269" lon="6.35158">
        <ele>284</ele>
        <time>2021-06-16T08:14:22.000Z</time>
      </trkpt>
      <trkpt lat="43.51282" lon="6.35158">
        <ele>285</ele>
        <time>2021-06-16T08:14:26.000Z</time>
      </trkpt>
      <trkpt lat="43.51288" lon="6.35156">
        <ele>285</ele>
        <time>2021-06-16T08:14:30.000Z</time>
      </trkpt>
      <trkpt lat="43.51295" lon="6.35154">
        <ele>285</ele>
        <time>2021-06-16T08:14:34.000Z</time>
      </trkpt>
      <trkpt lat="43.51283" lon="6.35149">
        <ele>285.5</ele>
        <time>2021-06-16T08:14:37.000Z</time>
      </trkpt>
      <trkpt lat="43.51281" lon="6.35143">
        <ele>285.6</ele>
        <time>2021-06-16T08:14:42.000Z</time>
      </trkpt>
      <trkpt lat="43.51281" lon="6.35136">
        <ele>285.6</ele>
        <time>2021-06-16T08:14:47.000Z</time>
      </trkpt>
      <trkpt lat="43.5128" lon="6.35128">
        <ele>285</ele>
        <time>2021-06-16T08:14:53.000Z</time>
      </trkpt>
      <trkpt lat="43.51282" lon="6.35122">
        <ele>285.7</ele>
        <time>2021-06-16T08:14:59.000Z</time>
      </trkpt>
      <trkpt lat="43.51288" lon="6.35118">
        <ele>285</ele>
        <time>2021-06-16T08:15:02.000Z</time>
      </trkpt>
      <trkpt lat="43.51294" lon="6.35114">
        <ele>285</ele>
        <time>2021-06-16T08:15:06.000Z</time>
      </trkpt>
      <trkpt lat="43.51299" lon="6.35111">
        <ele>285.9</ele>
        <time>2021-06-16T08:15:10.000Z</time>
      </trkpt>
      <trkpt lat="43.51303" lon="6.35108">
        <ele>285</ele>
        <time>2021-06-16T08:15:13.000Z</time>
      </trkpt>
      <trkpt lat="43.51307" lon="6.35104">
        <ele>286</ele>
        <time>2021-06-16T08:15:18.000Z</time>
      </trkpt>
      <trkpt lat="43.51311" lon="6.351">
        <ele>286</ele>
        <time>2021-06-16T08:15:20.000Z</time>
      </trkpt>
      <trkpt lat="43.51317" lon="6.35097">
        <ele>286</ele>
        <time>2021-06-16T08:15:23.000Z</time>
      </trkpt>
      <trkpt lat="43.5132" lon="6.35093">
        <ele>286</ele>
        <time>2021-06-16T08:15:26.000Z</time>
      </trkpt>
      <trkpt lat="43.51327" lon="6.35089">
        <ele>286</ele>
        <time>2021-06-16T08:15:29.000Z</time>
      </trkpt>
      <trkpt lat="43.51331" lon="6.35085">
        <ele>286</ele>
        <time>2021-06-16T08:15:32.000Z</time>
      </trkpt>
      <trkpt lat="43.51338" lon="6.35084">
        <ele>286</ele>
        <time>2021-06-16T08:15:35.000Z</time>
      </trkpt>
      <trkpt lat="43.5134" lon="6.35078">
        <ele>286</ele>
        <time>2021-06-16T08:15:39.000Z</time>
      </trkpt>
      <trkpt lat="43.51338" lon="6.3507">
        <ele>286</ele>
        <time>2021-06-16T08:15:43.000Z</time>
      </trkpt>
      <trkpt lat="43.51333" lon="6.35064">
        <ele>286.1</ele>
        <time>2021-06-16T08:15:46.000Z</time>
      </trkpt>
      <trkpt lat="43.51331" lon="6.35059">
        <ele>286.1</ele>
        <time>2021-06-16T08:15:49.000Z</time>
      </trkpt>
      <trkpt lat="43.51332" lon="6.35052">
        <ele>286.2</ele>
        <time>2021-06-16T08:15:53.000Z</time>
      </trkpt>
      <trkpt lat="43.51335" lon="6.35048">
        <ele>286.3</ele>
        <time>2021-06-16T08:15:57.000Z</time>
      </trkpt>
      <trkpt lat="43.5134" lon="6.35044">
        <ele>286.4</ele>
        <time>2021-06-16T08:16:01.000Z</time>
      </trkpt>
      <trkpt lat="43.5134" lon="6.35038">
        <ele>286.5</ele>
        <time>2021-06-16T08:16:06.000Z</time>
      </trkpt>
      <trkpt lat="43.51339" lon="6.35031">
        <ele>286.6</ele>
        <time>2021-06-16T08:16:11.000Z</time>
      </trkpt>
      <trkpt lat="43.51339" lon="6.35024">
        <ele>286.7</ele>
        <time>2021-06-16T08:16:16.000Z</time>
      </trkpt>
      <trkpt lat="43.51343" lon="6.3502">
        <ele>286.8</ele>
        <time>2021-06-16T08:16:20.000Z</time>
      </trkpt>
      <trkpt lat="43.51348" lon="6.35018">
        <ele>286.8</ele>
        <time>2021-06-16T08:16:23.000Z</time>
      </trkpt>
      <trkpt lat="43.51352" lon="6.35014">
        <ele>286.9</ele>
        <time>2021-06-16T08:16:27.000Z</time>
      </trkpt>
      <trkpt lat="43.51352" lon="6.35005">
        <ele>287</ele>
        <time>2021-06-16T08:16:35.000Z</time>
      </trkpt>
      <trkpt lat="43.51352" lon="6.34998">
        <ele>287</ele>
        <time>2021-06-16T08:16:39.000Z</time>
      </trkpt>
      <trkpt lat="43.51355" lon="6.34992">
        <ele>287</ele>
        <time>2021-06-16T08:16:43.000Z</time>
      </trkpt>
      <trkpt lat="43.51365" lon="6.34989">
        <ele>287</ele>
        <time>2021-06-16T08:16:47.000Z</time>
      </trkpt>
      <trkpt lat="43.51364" lon="6.34982">
        <ele>287</ele>
        <time>2021-06-16T08:16:51.000Z</time>
      </trkpt>
      <trkpt lat="43.51349" lon="6.34971">
        <ele>287</ele>
        <time>2021-06-16T08:16:55.000Z</time>
      </trkpt>
      <trkpt lat="43.51334" lon="6.34959">
        <ele>287</ele>
        <time>2021-06-16T08:16:59.000Z</time>
      </trkpt>
      <trkpt lat="43.51323" lon="6.34949">
        <ele>287</ele>
        <time>2021-06-16T08:17:03.000Z</time>
      </trkpt>
      <trkpt lat="43.51326" lon="6.34938">
        <ele>287</ele>
        <time>2021-06-16T08:17:11.000Z</time>
      </trkpt>
      <trkpt lat="43.51332" lon="6.34933">
        <ele>288</ele>
        <time>2021-06-16T08:17:15.000Z</time>
      </trkpt>
      <trkpt lat="43.51344" lon="6.34929">
        <ele>288</ele>
        <time>2021-06-16T08:17:19.000Z</time>
      </trkpt>
      <trkpt lat="43.51354" lon="6.34922">
        <ele>288</ele>
        <time>2021-06-16T08:17:26.000Z</time>
      </trkpt>
      <trkpt lat="43.51357" lon="6.34917">
        <ele>288.3</ele>
        <time>2021-06-16T08:17:32.000Z</time>
      </trkpt>
      <trkpt lat="43.51354" lon="6.34911">
        <ele>288.4</ele>
        <time>2021-06-16T08:17:37.000Z</time>
      </trkpt>
      <trkpt lat="43.51356" lon="6.34905">
        <ele>288.5</ele>
        <time>2021-06-16T08:17:42.000Z</time>
      </trkpt>
      <trkpt lat="43.5136" lon="6.34903">
        <ele>288.6</ele>
        <time>2021-06-16T08:17:47.000Z</time>
      </trkpt>
      <trkpt lat="43.51358" lon="6.34896">
        <ele>288.7</ele>
        <time>2021-06-16T08:17:54.000Z</time>
      </trkpt>
      <trkpt lat="43.51355" lon="6.3489">
        <ele>288.8</ele>
        <time>2021-06-16T08:18:01.000Z</time>
      </trkpt>
      <trkpt lat="43.5135" lon="6.34886">
        <ele>288.8</ele>
        <time>2021-06-16T08:18:05.000Z</time>
      </trkpt>
      <trkpt lat="43.51348" lon="6.34879">
        <ele>288.9</ele>
        <time>2021-06-16T08:18:10.000Z</time>
      </trkpt>
      <trkpt lat="43.51347" lon="6.34873">
        <ele>288.9</ele>
        <time>2021-06-16T08:18:16.000Z</time>
      </trkpt>
      <trkpt lat="43.51344" lon="6.34866">
        <ele>288.9</ele>
        <time>2021-06-16T08:18:20.000Z</time>
      </trkpt>
      <trkpt lat="43.51344" lon="6.34859">
        <ele>289</ele>
        <time>2021-06-16T08:18:26.000Z</time>
      </trkpt>
      <trkpt lat="43.51341" lon="6.34853">
        <ele>289.2</ele>
        <time>2021-06-16T08:18:31.000Z</time>
      </trkpt>
      <trkpt lat="43.51341" lon="6.34847">
        <ele>289.4</ele>
        <time>2021-06-16T08:18:36.000Z</time>
      </trkpt>
      <trkpt lat="43.51338" lon="6.34842">
        <ele>289.5</ele>
        <time>2021-06-16T08:18:39.000Z</time>
      </trkpt>
      <trkpt lat="43.51336" lon="6.34835">
        <ele>289.8</ele>
        <time>2021-06-16T08:18:43.000Z</time>
      </trkpt>
      <trkpt lat="43.51334" lon="6.34829">
        <ele>290</ele>
        <time>2021-06-16T08:18:49.000Z</time>
      </trkpt>
      <trkpt lat="43.51334" lon="6.34822">
        <ele>290.2</ele>
        <time>2021-06-16T08:18:54.000Z</time>
      </trkpt>
      <trkpt lat="43.51333" lon="6.34816">
        <ele>290.3</ele>
        <time>2021-06-16T08:18:59.000Z</time>
      </trkpt>
      <trkpt lat="43.51332" lon="6.34809">
        <ele>290.4</ele>
        <time>2021-06-16T08:19:04.000Z</time>
      </trkpt>
      <trkpt lat="43.51328" lon="6.34803">
        <ele>290.5</ele>
        <time>2021-06-16T08:19:08.000Z</time>
      </trkpt>
      <trkpt lat="43.51323" lon="6.34797">
        <ele>290</ele>
        <time>2021-06-16T08:19:12.000Z</time>
      </trkpt>
      <trkpt lat="43.51319" lon="6.34794">
        <ele>290.5</ele>
        <time>2021-06-16T08:19:20.000Z</time>
      </trkpt>
      <trkpt lat="43.51316" lon="6.34789">
        <ele>290.5</ele>
        <time>2021-06-16T08:19:27.000Z</time>
      </trkpt>
      <trkpt lat="43.51313" lon="6.34783">
        <ele>290.5</ele>
        <time>2021-06-16T08:19:32.000Z</time>
      </trkpt>
      <trkpt lat="43.51309" lon="6.34778">
        <ele>290.5</ele>
        <time>2021-06-16T08:19:37.000Z</time>
      </trkpt>
      <trkpt lat="43.51307" lon="6.34772">
        <ele>290.5</ele>
        <time>2021-06-16T08:19:43.000Z</time>
      </trkpt>
      <trkpt lat="43.51303" lon="6.34768">
        <ele>290.5</ele>
        <time>2021-06-16T08:19:46.000Z</time>
      </trkpt>
      <trkpt lat="43.51298" lon="6.34762">
        <ele>290.5</ele>
        <time>2021-06-16T08:19:49.000Z</time>
      </trkpt>
      <trkpt lat="43.51295" lon="6.34758">
        <ele>290.5</ele>
        <time>2021-06-16T08:19:52.000Z</time>
      </trkpt>
      <trkpt lat="43.51293" lon="6.3475">
        <ele>290.6</ele>
        <time>2021-06-16T08:19:58.000Z</time>
      </trkpt>
      <trkpt lat="43.51295" lon="6.34744">
        <ele>290.9</ele>
        <time>2021-06-16T08:20:04.000Z</time>
      </trkpt>
      <trkpt lat="43.51297" lon="6.34738">
        <ele>291.6</ele>
        <time>2021-06-16T08:20:09.000Z</time>
      </trkpt>
      <trkpt lat="43.51299" lon="6.34732">
        <ele>292.5</ele>
        <time>2021-06-16T08:20:17.000Z</time>
      </trkpt>
      <trkpt lat="43.51303" lon="6.34728">
        <ele>293.1</ele>
        <time>2021-06-16T08:20:21.000Z</time>
      </trkpt>
      <trkpt lat="43.51306" lon="6.34723">
        <ele>293.6</ele>
        <time>2021-06-16T08:20:26.000Z</time>
      </trkpt>
      <trkpt lat="43.51301" lon="6.34725">
        <ele>294.6</ele>
        <time>2021-06-16T08:20:38.000Z</time>
      </trkpt>
      <trkpt lat="43.51297" lon="6.34729">
        <ele>294.9</ele>
        <time>2021-06-16T08:20:46.000Z</time>
      </trkpt>
      <trkpt lat="43.51298" lon="6.34723">
        <ele>293</ele>
        <time>2021-06-16T08:21:19.000Z</time>
      </trkpt>
      <trkpt lat="43.51294" lon="6.34719">
        <ele>294</ele>
        <time>2021-06-16T08:21:37.000Z</time>
      </trkpt>
      <trkpt lat="43.5129" lon="6.34716">
        <ele>294.1</ele>
        <time>2021-06-16T08:21:48.000Z</time>
      </trkpt>
      <trkpt lat="43.51285" lon="6.34715">
        <ele>294.1</ele>
        <time>2021-06-16T08:22:01.000Z</time>
      </trkpt>
      <trkpt lat="43.51281" lon="6.34717">
        <ele>294.1</ele>
        <time>2021-06-16T08:22:09.000Z</time>
      </trkpt>
      <trkpt lat="43.51284" lon="6.34712">
        <ele>294.1</ele>
        <time>2021-06-16T08:22:18.000Z</time>
      </trkpt>
      <trkpt lat="43.51289" lon="6.34713">
        <ele>293</ele>
        <time>2021-06-16T08:22:45.000Z</time>
      </trkpt>
      <trkpt lat="43.51293" lon="6.34714">
        <ele>293.7</ele>
        <time>2021-06-16T08:22:51.000Z</time>
      </trkpt>
      <trkpt lat="43.51288" lon="6.34716">
        <ele>293</ele>
        <time>2021-06-16T08:23:37.000Z</time>
      </trkpt>
      <trkpt lat="43.51283" lon="6.34716">
        <ele>292</ele>
        <time>2021-06-16T08:23:43.000Z</time>
      </trkpt>
      <trkpt lat="43.51284" lon="6.34722">
        <ele>292.9</ele>
        <time>2021-06-16T08:23:54.000Z</time>
      </trkpt>
      <trkpt lat="43.51285" lon="6.34729">
        <ele>292.6</ele>
        <time>2021-06-16T08:24:07.000Z</time>
      </trkpt>
      <trkpt lat="43.51282" lon="6.34734">
        <ele>292.6</ele>
        <time>2021-06-16T08:24:14.000Z</time>
      </trkpt>
      <trkpt lat="43.51278" lon="6.34737">
        <ele>292.5</ele>
        <time>2021-06-16T08:24:20.000Z</time>
      </trkpt>
      <trkpt lat="43.51274" lon="6.34742">
        <ele>292.4</ele>
        <time>2021-06-16T08:24:29.000Z</time>
      </trkpt>
      <trkpt lat="43.51271" lon="6.34746">
        <ele>292.3</ele>
        <time>2021-06-16T08:24:42.000Z</time>
      </trkpt>
      <trkpt lat="43.51266" lon="6.34748">
        <ele>292.2</ele>
        <time>2021-06-16T08:24:54.000Z</time>
      </trkpt>
      <trkpt lat="43.51263" lon="6.34752">
        <ele>292.2</ele>
        <time>2021-06-16T08:25:18.000Z</time>
      </trkpt>
      <trkpt lat="43.51263" lon="6.34758">
        <ele>292.4</ele>
        <time>2021-06-16T08:25:29.000Z</time>
      </trkpt>
      <trkpt lat="43.5126" lon="6.34763">
        <ele>292.4</ele>
        <time>2021-06-16T08:25:39.000Z</time>
      </trkpt>
      <trkpt lat="43.51257" lon="6.34769">
        <ele>292.8</ele>
        <time>2021-06-16T08:25:46.000Z</time>
      </trkpt>
      <trkpt lat="43.51255" lon="6.34774">
        <ele>293.2</ele>
        <time>2021-06-16T08:25:53.000Z</time>
      </trkpt>
      <trkpt lat="43.5125" lon="6.34777">
        <ele>293.7</ele>
        <time>2021-06-16T08:26:01.000Z</time>
      </trkpt>
      <trkpt lat="43.51246" lon="6.3478">
        <ele>294</ele>
        <time>2021-06-16T08:26:12.000Z</time>
      </trkpt>
      <trkpt lat="43.51243" lon="6.34785">
        <ele>294.5</ele>
        <time>2021-06-16T08:26:35.000Z</time>
      </trkpt>
      <trkpt lat="43.51238" lon="6.34784">
        <ele>294.9</ele>
        <time>2021-06-16T08:27:33.000Z</time>
      </trkpt>
      <trkpt lat="43.51234" lon="6.34786">
        <ele>295.3</ele>
        <time>2021-06-16T08:27:41.000Z</time>
      </trkpt>
      <trkpt lat="43.51229" lon="6.34789">
        <ele>295.7</ele>
        <time>2021-06-16T08:27:48.000Z</time>
      </trkpt>
      <trkpt lat="43.51224" lon="6.34791">
        <ele>296</ele>
        <time>2021-06-16T08:27:53.000Z</time>
      </trkpt>
      <trkpt lat="43.51219" lon="6.34793">
        <ele>296.4</ele>
        <time>2021-06-16T08:27:58.000Z</time>
      </trkpt>
      <trkpt lat="43.51214" lon="6.34796">
        <ele>296.9</ele>
        <time>2021-06-16T08:28:04.000Z</time>
      </trkpt>
      <trkpt lat="43.5121" lon="6.34799">
        <ele>297.4</ele>
        <time>2021-06-16T08:28:10.000Z</time>
      </trkpt>
      <trkpt lat="43.51206" lon="6.34803">
        <ele>297.8</ele>
        <time>2021-06-16T08:28:16.000Z</time>
      </trkpt>
      <trkpt lat="43.51201" lon="6.34805">
        <ele>298.2</ele>
        <time>2021-06-16T08:28:22.000Z</time>
      </trkpt>
      <trkpt lat="43.51197" lon="6.34808">
        <ele>298.4</ele>
        <time>2021-06-16T08:28:27.000Z</time>
      </trkpt>
      <trkpt lat="43.51192" lon="6.34811">
        <ele>298.6</ele>
        <time>2021-06-16T08:28:33.000Z</time>
      </trkpt>
      <trkpt lat="43.51188" lon="6.34814">
        <ele>298.9</ele>
        <time>2021-06-16T08:28:38.000Z</time>
      </trkpt>
      <trkpt lat="43.51184" lon="6.34818">
        <ele>299.2</ele>
        <time>2021-06-16T08:28:44.000Z</time>
      </trkpt>
      <trkpt lat="43.51179" lon="6.3482">
        <ele>299.3</ele>
        <time>2021-06-16T08:28:48.000Z</time>
      </trkpt>
      <trkpt lat="43.51175" lon="6.34824">
        <ele>299.6</ele>
        <time>2021-06-16T08:28:53.000Z</time>
      </trkpt>
      <trkpt lat="43.51171" lon="6.34828">
        <ele>300</ele>
        <time>2021-06-16T08:28:59.000Z</time>
      </trkpt>
      <trkpt lat="43.51167" lon="6.34832">
        <ele>300.3</ele>
        <time>2021-06-16T08:29:03.000Z</time>
      </trkpt>
      <trkpt lat="43.51163" lon="6.34836">
        <ele>300.5</ele>
        <time>2021-06-16T08:29:08.000Z</time>
      </trkpt>
      <trkpt lat="43.51159" lon="6.3484">
        <ele>300.8</ele>
        <time>2021-06-16T08:29:14.000Z</time>
      </trkpt>
      <trkpt lat="43.51154" lon="6.34843">
        <ele>300.9</ele>
        <time>2021-06-16T08:29:19.000Z</time>
      </trkpt>
      <trkpt lat="43.5115" lon="6.34847">
        <ele>301.2</ele>
        <time>2021-06-16T08:29:24.000Z</time>
      </trkpt>
      <trkpt lat="43.51145" lon="6.34849">
        <ele>301.4</ele>
        <time>2021-06-16T08:29:29.000Z</time>
      </trkpt>
      <trkpt lat="43.51141" lon="6.34852">
        <ele>301.8</ele>
        <time>2021-06-16T08:29:38.000Z</time>
      </trkpt>
      <trkpt lat="43.51138" lon="6.34857">
        <ele>302.8</ele>
        <time>2021-06-16T08:30:06.000Z</time>
      </trkpt>
      <trkpt lat="43.51135" lon="6.34862">
        <ele>302.8</ele>
        <time>2021-06-16T08:30:14.000Z</time>
      </trkpt>
      <trkpt lat="43.51131" lon="6.34865">
        <ele>302.8</ele>
        <time>2021-06-16T08:30:23.000Z</time>
      </trkpt>
      <trkpt lat="43.5113" lon="6.34871">
        <ele>302.8</ele>
        <time>2021-06-16T08:30:37.000Z</time>
      </trkpt>
      <trkpt lat="43.51125" lon="6.34875">
        <ele>302.9</ele>
        <time>2021-06-16T08:30:44.000Z</time>
      </trkpt>
      <trkpt lat="43.51121" lon="6.34878">
        <ele>303</ele>
        <time>2021-06-16T08:30:49.000Z</time>
      </trkpt>
      <trkpt lat="43.51117" lon="6.34881">
        <ele>303.1</ele>
        <time>2021-06-16T08:30:54.000Z</time>
      </trkpt>
      <trkpt lat="43.51122" lon="6.3488">
        <ele>303.4</ele>
        <time>2021-06-16T08:31:25.000Z</time>
      </trkpt>
      <trkpt lat="43.51121" lon="6.34874">
        <ele>303.5</ele>
        <time>2021-06-16T08:32:08.000Z</time>
      </trkpt>
      <trkpt lat="43.51118" lon="6.34869">
        <ele>303.6</ele>
        <time>2021-06-16T08:32:14.000Z</time>
      </trkpt>
      <trkpt lat="43.51118" lon="6.34862">
        <ele>303.6</ele>
        <time>2021-06-16T08:32:21.000Z</time>
      </trkpt>
      <trkpt lat="43.51116" lon="6.34855">
        <ele>303.8</ele>
        <time>2021-06-16T08:32:26.000Z</time>
      </trkpt>
      <trkpt lat="43.51114" lon="6.34848">
        <ele>303.9</ele>
        <time>2021-06-16T08:32:31.000Z</time>
      </trkpt>
      <trkpt lat="43.51112" lon="6.34842">
        <ele>304.1</ele>
        <time>2021-06-16T08:32:35.000Z</time>
      </trkpt>
      <trkpt lat="43.51111" lon="6.34835">
        <ele>304.4</ele>
        <time>2021-06-16T08:32:41.000Z</time>
      </trkpt>
      <trkpt lat="43.51111" lon="6.34828">
        <ele>304.7</ele>
        <time>2021-06-16T08:32:46.000Z</time>
      </trkpt>
      <trkpt lat="43.5111" lon="6.34821">
        <ele>305</ele>
        <time>2021-06-16T08:32:51.000Z</time>
      </trkpt>
      <trkpt lat="43.51108" lon="6.34814">
        <ele>305.2</ele>
        <time>2021-06-16T08:32:55.000Z</time>
      </trkpt>
      <trkpt lat="43.51107" lon="6.34807">
        <ele>305.5</ele>
        <time>2021-06-16T08:32:59.000Z</time>
      </trkpt>
      <trkpt lat="43.51106" lon="6.348">
        <ele>305.8</ele>
        <time>2021-06-16T08:33:04.000Z</time>
      </trkpt>
      <trkpt lat="43.51106" lon="6.34794">
        <ele>306.1</ele>
        <time>2021-06-16T08:33:09.000Z</time>
      </trkpt>
      <trkpt lat="43.51107" lon="6.34788">
        <ele>306.3</ele>
        <time>2021-06-16T08:33:14.000Z</time>
      </trkpt>
      <trkpt lat="43.51107" lon="6.34781">
        <ele>306.6</ele>
        <time>2021-06-16T08:33:20.000Z</time>
      </trkpt>
      <trkpt lat="43.51105" lon="6.34774">
        <ele>306.7</ele>
        <time>2021-06-16T08:33:24.000Z</time>
      </trkpt>
      <trkpt lat="43.51106" lon="6.34767">
        <ele>306.9</ele>
        <time>2021-06-16T08:33:29.000Z</time>
      </trkpt>
      <trkpt lat="43.51105" lon="6.34761">
        <ele>307</ele>
        <time>2021-06-16T08:33:33.000Z</time>
      </trkpt>
      <trkpt lat="43.51103" lon="6.34754">
        <ele>307.1</ele>
        <time>2021-06-16T08:33:37.000Z</time>
      </trkpt>
      <trkpt lat="43.51102" lon="6.34748">
        <ele>307.2</ele>
        <time>2021-06-16T08:33:41.000Z</time>
      </trkpt>
      <trkpt lat="43.51101" lon="6.34741">
        <ele>307.6</ele>
        <time>2021-06-16T08:33:46.000Z</time>
      </trkpt>
      <trkpt lat="43.511" lon="6.34734">
        <ele>307.9</ele>
        <time>2021-06-16T08:33:51.000Z</time>
      </trkpt>
      <trkpt lat="43.51099" lon="6.34728">
        <ele>308.2</ele>
        <time>2021-06-16T08:33:57.000Z</time>
      </trkpt>
      <trkpt lat="43.51098" lon="6.34721">
        <ele>308.3</ele>
        <time>2021-06-16T08:34:01.000Z</time>
      </trkpt>
      <trkpt lat="43.51096" lon="6.34714">
        <ele>308.3</ele>
        <time>2021-06-16T08:34:06.000Z</time>
      </trkpt>
      <trkpt lat="43.51096" lon="6.34707">
        <ele>308.3</ele>
        <time>2021-06-16T08:34:11.000Z</time>
      </trkpt>
      <trkpt lat="43.51093" lon="6.34702">
        <ele>308.2</ele>
        <time>2021-06-16T08:34:15.000Z</time>
      </trkpt>
      <trkpt lat="43.51092" lon="6.34694">
        <ele>308.1</ele>
        <time>2021-06-16T08:34:20.000Z</time>
      </trkpt>
      <trkpt lat="43.51091" lon="6.34686">
        <ele>307.8</ele>
        <time>2021-06-16T08:34:25.000Z</time>
      </trkpt>
      <trkpt lat="43.51091" lon="6.3468">
        <ele>307.5</ele>
        <time>2021-06-16T08:34:30.000Z</time>
      </trkpt>
      <trkpt lat="43.51089" lon="6.34673">
        <ele>307.3</ele>
        <time>2021-06-16T08:34:35.000Z</time>
      </trkpt>
      <trkpt lat="43.51089" lon="6.34666">
        <ele>307.2</ele>
        <time>2021-06-16T08:34:39.000Z</time>
      </trkpt>
      <trkpt lat="43.51085" lon="6.3466">
        <ele>307.1</ele>
        <time>2021-06-16T08:34:43.000Z</time>
      </trkpt>
      <trkpt lat="43.51083" lon="6.34655">
        <ele>307.1</ele>
        <time>2021-06-16T08:34:46.000Z</time>
      </trkpt>
      <trkpt lat="43.51081" lon="6.34649">
        <ele>307</ele>
        <time>2021-06-16T08:34:51.000Z</time>
      </trkpt>
      <trkpt lat="43.5108" lon="6.34641">
        <ele>306.9</ele>
        <time>2021-06-16T08:34:55.000Z</time>
      </trkpt>
      <trkpt lat="43.51079" lon="6.34635">
        <ele>306.9</ele>
        <time>2021-06-16T08:35:00.000Z</time>
      </trkpt>
      <trkpt lat="43.51079" lon="6.34627">
        <ele>306.9</ele>
        <time>2021-06-16T08:35:05.000Z</time>
      </trkpt>
      <trkpt lat="43.5108" lon="6.34621">
        <ele>307</ele>
        <time>2021-06-16T08:35:10.000Z</time>
      </trkpt>
      <trkpt lat="43.51078" lon="6.34614">
        <ele>307.1</ele>
        <time>2021-06-16T08:35:18.000Z</time>
      </trkpt>
      <trkpt lat="43.51079" lon="6.34605">
        <ele>307.2</ele>
        <time>2021-06-16T08:35:21.000Z</time>
      </trkpt>
      <trkpt lat="43.51077" lon="6.34599">
        <ele>307.6</ele>
        <time>2021-06-16T08:35:27.000Z</time>
      </trkpt>
      <trkpt lat="43.51077" lon="6.34592">
        <ele>308</ele>
        <time>2021-06-16T08:35:32.000Z</time>
      </trkpt>
      <trkpt lat="43.51076" lon="6.34584">
        <ele>308.3</ele>
        <time>2021-06-16T08:35:36.000Z</time>
      </trkpt>
      <trkpt lat="43.51076" lon="6.34577">
        <ele>308.5</ele>
        <time>2021-06-16T08:35:39.000Z</time>
      </trkpt>
      <trkpt lat="43.51075" lon="6.3457">
        <ele>308.9</ele>
        <time>2021-06-16T08:35:44.000Z</time>
      </trkpt>
      <trkpt lat="43.51072" lon="6.34565">
        <ele>309.2</ele>
        <time>2021-06-16T08:35:50.000Z</time>
      </trkpt>
      <trkpt lat="43.51068" lon="6.34561">
        <ele>309.5</ele>
        <time>2021-06-16T08:35:56.000Z</time>
      </trkpt>
      <trkpt lat="43.51062" lon="6.3456">
        <ele>309.6</ele>
        <time>2021-06-16T08:35:59.000Z</time>
      </trkpt>
      <trkpt lat="43.51056" lon="6.34558">
        <ele>309</ele>
        <time>2021-06-16T08:36:03.000Z</time>
      </trkpt>
      <trkpt lat="43.51052" lon="6.34557">
        <ele>309.8</ele>
        <time>2021-06-16T08:36:08.000Z</time>
      </trkpt>
      <trkpt lat="43.51047" lon="6.3456">
        <ele>309</ele>
        <time>2021-06-16T08:36:16.000Z</time>
      </trkpt>
      <trkpt lat="43.51052" lon="6.3456">
        <ele>310</ele>
        <time>2021-06-16T08:36:29.000Z</time>
      </trkpt>
      <trkpt lat="43.51049" lon="6.34565">
        <ele>310</ele>
        <time>2021-06-16T08:36:44.000Z</time>
      </trkpt>
      <trkpt lat="43.51044" lon="6.34569">
        <ele>310.3</ele>
        <time>2021-06-16T08:36:50.000Z</time>
      </trkpt>
      <trkpt lat="43.5104" lon="6.34571">
        <ele>310.6</ele>
        <time>2021-06-16T08:36:56.000Z</time>
      </trkpt>
      <trkpt lat="43.51035" lon="6.34574">
        <ele>310.7</ele>
        <time>2021-06-16T08:37:00.000Z</time>
      </trkpt>
      <trkpt lat="43.51032" lon="6.34579">
        <ele>310.9</ele>
        <time>2021-06-16T08:37:05.000Z</time>
      </trkpt>
      <trkpt lat="43.51028" lon="6.34584">
        <ele>311</ele>
        <time>2021-06-16T08:37:10.000Z</time>
      </trkpt>
      <trkpt lat="43.51024" lon="6.34587">
        <ele>311</ele>
        <time>2021-06-16T08:37:13.000Z</time>
      </trkpt>
      <trkpt lat="43.5102" lon="6.3459">
        <ele>311.1</ele>
        <time>2021-06-16T08:37:16.000Z</time>
      </trkpt>
      <trkpt lat="43.51016" lon="6.34594">
        <ele>311.1</ele>
        <time>2021-06-16T08:37:22.000Z</time>
      </trkpt>
      <trkpt lat="43.51012" lon="6.34599">
        <ele>311.1</ele>
        <time>2021-06-16T08:37:27.000Z</time>
      </trkpt>
      <trkpt lat="43.51007" lon="6.34601">
        <ele>311</ele>
        <time>2021-06-16T08:37:31.000Z</time>
      </trkpt>
      <trkpt lat="43.51002" lon="6.34603">
        <ele>310.8</ele>
        <time>2021-06-16T08:37:35.000Z</time>
      </trkpt>
      <trkpt lat="43.50999" lon="6.34608">
        <ele>310.6</ele>
        <time>2021-06-16T08:37:40.000Z</time>
      </trkpt>
      <trkpt lat="43.50995" lon="6.34613">
        <ele>310.5</ele>
        <time>2021-06-16T08:37:45.000Z</time>
      </trkpt>
      <trkpt lat="43.50992" lon="6.34617">
        <ele>310.4</ele>
        <time>2021-06-16T08:37:49.000Z</time>
      </trkpt>
      <trkpt lat="43.50987" lon="6.34621">
        <ele>310.4</ele>
        <time>2021-06-16T08:37:53.000Z</time>
      </trkpt>
      <trkpt lat="43.50983" lon="6.34627">
        <ele>310.4</ele>
        <time>2021-06-16T08:37:57.000Z</time>
      </trkpt>
      <trkpt lat="43.5098" lon="6.34631">
        <ele>310.5</ele>
        <time>2021-06-16T08:38:01.000Z</time>
      </trkpt>
      <trkpt lat="43.50976" lon="6.34634">
        <ele>310.5</ele>
        <time>2021-06-16T08:38:04.000Z</time>
      </trkpt>
      <trkpt lat="43.50972" lon="6.34638">
        <ele>310.6</ele>
        <time>2021-06-16T08:38:08.000Z</time>
      </trkpt>
      <trkpt lat="43.50967" lon="6.34642">
        <ele>310.6</ele>
        <time>2021-06-16T08:38:12.000Z</time>
      </trkpt>
      <trkpt lat="43.50963" lon="6.34647">
        <ele>310.6</ele>
        <time>2021-06-16T08:38:16.000Z</time>
      </trkpt>
      <trkpt lat="43.50958" lon="6.3465">
        <ele>310.6</ele>
        <time>2021-06-16T08:38:19.000Z</time>
      </trkpt>
      <trkpt lat="43.50955" lon="6.34654">
        <ele>310.6</ele>
        <time>2021-06-16T08:38:24.000Z</time>
      </trkpt>
      <trkpt lat="43.5095" lon="6.34657">
        <ele>310.7</ele>
        <time>2021-06-16T08:38:28.000Z</time>
      </trkpt>
      <trkpt lat="43.50946" lon="6.34661">
        <ele>310.9</ele>
        <time>2021-06-16T08:38:34.000Z</time>
      </trkpt>
      <trkpt lat="43.50942" lon="6.34665">
        <ele>311</ele>
        <time>2021-06-16T08:38:38.000Z</time>
      </trkpt>
      <trkpt lat="43.50937" lon="6.34668">
        <ele>311.1</ele>
        <time>2021-06-16T08:38:43.000Z</time>
      </trkpt>
      <trkpt lat="43.50933" lon="6.34672">
        <ele>311.2</ele>
        <time>2021-06-16T08:38:48.000Z</time>
      </trkpt>
      <trkpt lat="43.50929" lon="6.34676">
        <ele>311.3</ele>
        <time>2021-06-16T08:38:54.000Z</time>
      </trkpt>
      <trkpt lat="43.50924" lon="6.34679">
        <ele>311.4</ele>
        <time>2021-06-16T08:38:58.000Z</time>
      </trkpt>
      <trkpt lat="43.5092" lon="6.34683">
        <ele>311.4</ele>
        <time>2021-06-16T08:39:01.000Z</time>
      </trkpt>
      <trkpt lat="43.50916" lon="6.34688">
        <ele>311.5</ele>
        <time>2021-06-16T08:39:06.000Z</time>
      </trkpt>
      <trkpt lat="43.50912" lon="6.34692">
        <ele>311.5</ele>
        <time>2021-06-16T08:39:11.000Z</time>
      </trkpt>
      <trkpt lat="43.50907" lon="6.34697">
        <ele>311.5</ele>
        <time>2021-06-16T08:39:16.000Z</time>
      </trkpt>
      <trkpt lat="43.50905" lon="6.34702">
        <ele>311.5</ele>
        <time>2021-06-16T08:39:20.000Z</time>
      </trkpt>
      <trkpt lat="43.50901" lon="6.34705">
        <ele>311.4</ele>
        <time>2021-06-16T08:39:25.000Z</time>
      </trkpt>
      <trkpt lat="43.50897" lon="6.3471">
        <ele>311.3</ele>
        <time>2021-06-16T08:39:29.000Z</time>
      </trkpt>
      <trkpt lat="43.50893" lon="6.34715">
        <ele>311</ele>
        <time>2021-06-16T08:39:34.000Z</time>
      </trkpt>
      <trkpt lat="43.50888" lon="6.34718">
        <ele>310.7</ele>
        <time>2021-06-16T08:39:38.000Z</time>
      </trkpt>
      <trkpt lat="43.50884" lon="6.34721">
        <ele>310.4</ele>
        <time>2021-06-16T08:39:42.000Z</time>
      </trkpt>
      <trkpt lat="43.50879" lon="6.34725">
        <ele>310.2</ele>
        <time>2021-06-16T08:39:46.000Z</time>
      </trkpt>
      <trkpt lat="43.50875" lon="6.34731">
        <ele>309.9</ele>
        <time>2021-06-16T08:39:51.000Z</time>
      </trkpt>
      <trkpt lat="43.50871" lon="6.34736">
        <ele>309.5</ele>
        <time>2021-06-16T08:39:56.000Z</time>
      </trkpt>
      <trkpt lat="43.50867" lon="6.3474">
        <ele>309.2</ele>
        <time>2021-06-16T08:40:00.000Z</time>
      </trkpt>
      <trkpt lat="43.50862" lon="6.34745">
        <ele>308.9</ele>
        <time>2021-06-16T08:40:05.000Z</time>
      </trkpt>
      <trkpt lat="43.50858" lon="6.34749">
        <ele>308.8</ele>
        <time>2021-06-16T08:40:09.000Z</time>
      </trkpt>
      <trkpt lat="43.50853" lon="6.34753">
        <ele>308.6</ele>
        <time>2021-06-16T08:40:12.000Z</time>
      </trkpt>
      <trkpt lat="43.50849" lon="6.34757">
        <ele>308.4</ele>
        <time>2021-06-16T08:40:15.000Z</time>
      </trkpt>
      <trkpt lat="43.50844" lon="6.34762">
        <ele>308</ele>
        <time>2021-06-16T08:40:19.000Z</time>
      </trkpt>
      <trkpt lat="43.5084" lon="6.34766">
        <ele>307.5</ele>
        <time>2021-06-16T08:40:24.000Z</time>
      </trkpt>
      <trkpt lat="43.50835" lon="6.3477">
        <ele>307.1</ele>
        <time>2021-06-16T08:40:29.000Z</time>
      </trkpt>
      <trkpt lat="43.50831" lon="6.34774">
        <ele>306.8</ele>
        <time>2021-06-16T08:40:33.000Z</time>
      </trkpt>
      <trkpt lat="43.50827" lon="6.34778">
        <ele>306.6</ele>
        <time>2021-06-16T08:40:38.000Z</time>
      </trkpt>
      <trkpt lat="43.50823" lon="6.34782">
        <ele>306.3</ele>
        <time>2021-06-16T08:40:44.000Z</time>
      </trkpt>
      <trkpt lat="43.50819" lon="6.34786">
        <ele>306</ele>
        <time>2021-06-16T08:40:48.000Z</time>
      </trkpt>
      <trkpt lat="43.50815" lon="6.3479">
        <ele>305.8</ele>
        <time>2021-06-16T08:40:52.000Z</time>
      </trkpt>
      <trkpt lat="43.50812" lon="6.34795">
        <ele>305.2</ele>
        <time>2021-06-16T08:40:58.000Z</time>
      </trkpt>
      <trkpt lat="43.50807" lon="6.348">
        <ele>304.9</ele>
        <time>2021-06-16T08:41:02.000Z</time>
      </trkpt>
      <trkpt lat="43.50804" lon="6.34804">
        <ele>304.6</ele>
        <time>2021-06-16T08:41:06.000Z</time>
      </trkpt>
      <trkpt lat="43.50799" lon="6.34809">
        <ele>304.3</ele>
        <time>2021-06-16T08:41:12.000Z</time>
      </trkpt>
      <trkpt lat="43.50795" lon="6.34813">
        <ele>304.1</ele>
        <time>2021-06-16T08:41:16.000Z</time>
      </trkpt>
      <trkpt lat="43.50792" lon="6.34819">
        <ele>303.7</ele>
        <time>2021-06-16T08:41:21.000Z</time>
      </trkpt>
      <trkpt lat="43.50787" lon="6.34823">
        <ele>303.4</ele>
        <time>2021-06-16T08:41:25.000Z</time>
      </trkpt>
      <trkpt lat="43.50782" lon="6.34826">
        <ele>303.2</ele>
        <time>2021-06-16T08:41:29.000Z</time>
      </trkpt>
      <trkpt lat="43.50776" lon="6.3483">
        <ele>303.1</ele>
        <time>2021-06-16T08:41:33.000Z</time>
      </trkpt>
      <trkpt lat="43.50773" lon="6.34835">
        <ele>302.9</ele>
        <time>2021-06-16T08:41:38.000Z</time>
      </trkpt>
      <trkpt lat="43.50769" lon="6.34839">
        <ele>302.9</ele>
        <time>2021-06-16T08:41:42.000Z</time>
      </trkpt>
      <trkpt lat="43.50765" lon="6.34843">
        <ele>302.8</ele>
        <time>2021-06-16T08:41:46.000Z</time>
      </trkpt>
      <trkpt lat="43.50761" lon="6.34847">
        <ele>302.6</ele>
        <time>2021-06-16T08:41:50.000Z</time>
      </trkpt>
      <trkpt lat="43.50756" lon="6.34851">
        <ele>302.3</ele>
        <time>2021-06-16T08:41:55.000Z</time>
      </trkpt>
      <trkpt lat="43.50752" lon="6.34854">
        <ele>302.1</ele>
        <time>2021-06-16T08:41:58.000Z</time>
      </trkpt>
      <trkpt lat="43.50747" lon="6.34859">
        <ele>301.8</ele>
        <time>2021-06-16T08:42:02.000Z</time>
      </trkpt>
      <trkpt lat="43.50744" lon="6.34865">
        <ele>301.6</ele>
        <time>2021-06-16T08:42:07.000Z</time>
      </trkpt>
      <trkpt lat="43.50741" lon="6.3487">
        <ele>301.2</ele>
        <time>2021-06-16T08:42:12.000Z</time>
      </trkpt>
      <trkpt lat="43.50736" lon="6.34874">
        <ele>300.7</ele>
        <time>2021-06-16T08:42:17.000Z</time>
      </trkpt>
      <trkpt lat="43.50733" lon="6.34879">
        <ele>300.3</ele>
        <time>2021-06-16T08:42:22.000Z</time>
      </trkpt>
      <trkpt lat="43.50729" lon="6.34883">
        <ele>300</ele>
        <time>2021-06-16T08:42:26.000Z</time>
      </trkpt>
      <trkpt lat="43.50724" lon="6.34887">
        <ele>299.9</ele>
        <time>2021-06-16T08:42:30.000Z</time>
      </trkpt>
      <trkpt lat="43.5072" lon="6.3489">
        <ele>299.7</ele>
        <time>2021-06-16T08:42:34.000Z</time>
      </trkpt>
      <trkpt lat="43.50715" lon="6.34894">
        <ele>299.3</ele>
        <time>2021-06-16T08:42:39.000Z</time>
      </trkpt>
      <trkpt lat="43.50712" lon="6.34898">
        <ele>299</ele>
        <time>2021-06-16T08:42:44.000Z</time>
      </trkpt>
      <trkpt lat="43.50708" lon="6.34902">
        <ele>298.6</ele>
        <time>2021-06-16T08:42:48.000Z</time>
      </trkpt>
      <trkpt lat="43.50704" lon="6.34906">
        <ele>298.2</ele>
        <time>2021-06-16T08:42:51.000Z</time>
      </trkpt>
      <trkpt lat="43.50699" lon="6.3491">
        <ele>297.6</ele>
        <time>2021-06-16T08:42:57.000Z</time>
      </trkpt>
      <trkpt lat="43.50695" lon="6.34915">
        <ele>297.2</ele>
        <time>2021-06-16T08:43:02.000Z</time>
      </trkpt>
      <trkpt lat="43.50693" lon="6.34921">
        <ele>296.9</ele>
        <time>2021-06-16T08:43:07.000Z</time>
      </trkpt>
      <trkpt lat="43.50689" lon="6.34925">
        <ele>296.8</ele>
        <time>2021-06-16T08:43:11.000Z</time>
      </trkpt>
      <trkpt lat="43.50685" lon="6.3493">
        <ele>296.7</ele>
        <time>2021-06-16T08:43:15.000Z</time>
      </trkpt>
      <trkpt lat="43.5068" lon="6.34934">
        <ele>296.7</ele>
        <time>2021-06-16T08:43:19.000Z</time>
      </trkpt>
      <trkpt lat="43.50676" lon="6.3494">
        <ele>296.7</ele>
        <time>2021-06-16T08:43:24.000Z</time>
      </trkpt>
      <trkpt lat="43.50672" lon="6.34944">
        <ele>296.7</ele>
        <time>2021-06-16T08:43:27.000Z</time>
      </trkpt>
      <trkpt lat="43.50667" lon="6.34947">
        <ele>296.7</ele>
        <time>2021-06-16T08:43:31.000Z</time>
      </trkpt>
      <trkpt lat="43.50662" lon="6.34951">
        <ele>296.7</ele>
        <time>2021-06-16T08:43:35.000Z</time>
      </trkpt>
      <trkpt lat="43.50658" lon="6.34955">
        <ele>296.8</ele>
        <time>2021-06-16T08:43:41.000Z</time>
      </trkpt>
      <trkpt lat="43.50655" lon="6.3496">
        <ele>296.9</ele>
        <time>2021-06-16T08:43:46.000Z</time>
      </trkpt>
      <trkpt lat="43.50651" lon="6.34963">
        <ele>297</ele>
        <time>2021-06-16T08:43:50.000Z</time>
      </trkpt>
      <trkpt lat="43.50647" lon="6.34967">
        <ele>297.1</ele>
        <time>2021-06-16T08:43:53.000Z</time>
      </trkpt>
      <trkpt lat="43.50642" lon="6.3497">
        <ele>297.3</ele>
        <time>2021-06-16T08:43:56.000Z</time>
      </trkpt>
      <trkpt lat="43.50638" lon="6.34973">
        <ele>297.5</ele>
        <time>2021-06-16T08:43:59.000Z</time>
      </trkpt>
      <trkpt lat="43.50634" lon="6.34977">
        <ele>297.8</ele>
        <time>2021-06-16T08:44:03.000Z</time>
      </trkpt>
      <trkpt lat="43.50631" lon="6.34981">
        <ele>298.1</ele>
        <time>2021-06-16T08:44:07.000Z</time>
      </trkpt>
      <trkpt lat="43.50627" lon="6.34985">
        <ele>298.2</ele>
        <time>2021-06-16T08:44:11.000Z</time>
      </trkpt>
      <trkpt lat="43.50623" lon="6.34987">
        <ele>298.4</ele>
        <time>2021-06-16T08:44:16.000Z</time>
      </trkpt>
      <trkpt lat="43.50618" lon="6.34989">
        <ele>298.8</ele>
        <time>2021-06-16T08:44:31.000Z</time>
      </trkpt>
      <trkpt lat="43.50614" lon="6.34992">
        <ele>299</ele>
        <time>2021-06-16T08:44:40.000Z</time>
      </trkpt>
      <trkpt lat="43.50611" lon="6.34997">
        <ele>299.4</ele>
        <time>2021-06-16T08:44:50.000Z</time>
      </trkpt>
      <trkpt lat="43.50608" lon="6.35002">
        <ele>299.6</ele>
        <time>2021-06-16T08:44:57.000Z</time>
      </trkpt>
      <trkpt lat="43.50604" lon="6.35006">
        <ele>299.7</ele>
        <time>2021-06-16T08:45:03.000Z</time>
      </trkpt>
      <trkpt lat="43.50601" lon="6.3501">
        <ele>299.9</ele>
        <time>2021-06-16T08:45:10.000Z</time>
      </trkpt>
      <trkpt lat="43.50598" lon="6.35016">
        <ele>300</ele>
        <time>2021-06-16T08:45:17.000Z</time>
      </trkpt>
      <trkpt lat="43.50594" lon="6.3502">
        <ele>300.3</ele>
        <time>2021-06-16T08:45:26.000Z</time>
      </trkpt>
      <trkpt lat="43.50589" lon="6.35021">
        <ele>300.5</ele>
        <time>2021-06-16T08:45:36.000Z</time>
      </trkpt>
      <trkpt lat="43.50587" lon="6.35026">
        <ele>300.7</ele>
        <time>2021-06-16T08:45:55.000Z</time>
      </trkpt>
      <trkpt lat="43.50582" lon="6.3503">
        <ele>300.8</ele>
        <time>2021-06-16T08:46:09.000Z</time>
      </trkpt>
      <trkpt lat="43.50579" lon="6.35035">
        <ele>300.8</ele>
        <time>2021-06-16T08:46:15.000Z</time>
      </trkpt>
      <trkpt lat="43.50576" lon="6.3504">
        <ele>300.8</ele>
        <time>2021-06-16T08:46:22.000Z</time>
      </trkpt>
      <trkpt lat="43.50571" lon="6.35043">
        <ele>300.8</ele>
        <time>2021-06-16T08:46:27.000Z</time>
      </trkpt>
      <trkpt lat="43.50566" lon="6.35045">
        <ele>300.8</ele>
        <time>2021-06-16T08:46:31.000Z</time>
      </trkpt>
      <trkpt lat="43.50561" lon="6.35046">
        <ele>300.7</ele>
        <time>2021-06-16T08:46:36.000Z</time>
      </trkpt>
      <trkpt lat="43.50557" lon="6.35048">
        <ele>300.5</ele>
        <time>2021-06-16T08:46:40.000Z</time>
      </trkpt>
      <trkpt lat="43.50552" lon="6.35049">
        <ele>299.9</ele>
        <time>2021-06-16T08:46:45.000Z</time>
      </trkpt>
      <trkpt lat="43.50547" lon="6.35049">
        <ele>299.6</ele>
        <time>2021-06-16T08:46:49.000Z</time>
      </trkpt>
      <trkpt lat="43.50541" lon="6.35049">
        <ele>299.3</ele>
        <time>2021-06-16T08:46:54.000Z</time>
      </trkpt>
      <trkpt lat="43.50537" lon="6.3505">
        <ele>299.1</ele>
        <time>2021-06-16T08:46:58.000Z</time>
      </trkpt>
      <trkpt lat="43.50531" lon="6.35049">
        <ele>298.9</ele>
        <time>2021-06-16T08:47:02.000Z</time>
      </trkpt>
      <trkpt lat="43.50526" lon="6.3505">
        <ele>298.7</ele>
        <time>2021-06-16T08:47:05.000Z</time>
      </trkpt>
      <trkpt lat="43.50522" lon="6.3505">
        <ele>298.4</ele>
        <time>2021-06-16T08:47:08.000Z</time>
      </trkpt>
      <trkpt lat="43.50516" lon="6.35052">
        <ele>298.2</ele>
        <time>2021-06-16T08:47:12.000Z</time>
      </trkpt>
      <trkpt lat="43.50511" lon="6.35053">
        <ele>298</ele>
        <time>2021-06-16T08:47:16.000Z</time>
      </trkpt>
      <trkpt lat="43.50506" lon="6.35053">
        <ele>297.8</ele>
        <time>2021-06-16T08:47:20.000Z</time>
      </trkpt>
      <trkpt lat="43.50501" lon="6.35055">
        <ele>297.7</ele>
        <time>2021-06-16T08:47:26.000Z</time>
      </trkpt>
      <trkpt lat="43.50496" lon="6.35057">
        <ele>297.6</ele>
        <time>2021-06-16T08:47:32.000Z</time>
      </trkpt>
      <trkpt lat="43.50495" lon="6.35064">
        <ele>297.6</ele>
        <time>2021-06-16T08:47:38.000Z</time>
      </trkpt>
      <trkpt lat="43.50494" lon="6.35071">
        <ele>297.7</ele>
        <time>2021-06-16T08:47:43.000Z</time>
      </trkpt>
      <trkpt lat="43.50493" lon="6.35078">
        <ele>298.1</ele>
        <time>2021-06-16T08:47:49.000Z</time>
      </trkpt>
      <trkpt lat="43.50494" lon="6.35085">
        <ele>298.2</ele>
        <time>2021-06-16T08:47:53.000Z</time>
      </trkpt>
      <trkpt lat="43.50494" lon="6.35091">
        <ele>298.4</ele>
        <time>2021-06-16T08:47:57.000Z</time>
      </trkpt>
      <trkpt lat="43.50494" lon="6.35099">
        <ele>298.6</ele>
        <time>2021-06-16T08:48:02.000Z</time>
      </trkpt>
      <trkpt lat="43.50496" lon="6.35105">
        <ele>298.8</ele>
        <time>2021-06-16T08:48:06.000Z</time>
      </trkpt>
      <trkpt lat="43.50497" lon="6.35111">
        <ele>299.2</ele>
        <time>2021-06-16T08:48:10.000Z</time>
      </trkpt>
      <trkpt lat="43.50498" lon="6.35117">
        <ele>299.4</ele>
        <time>2021-06-16T08:48:14.000Z</time>
      </trkpt>
      <trkpt lat="43.50499" lon="6.35124">
        <ele>299.6</ele>
        <time>2021-06-16T08:48:18.000Z</time>
      </trkpt>
      <trkpt lat="43.505" lon="6.35131">
        <ele>299.8</ele>
        <time>2021-06-16T08:48:22.000Z</time>
      </trkpt>
      <trkpt lat="43.50501" lon="6.35138">
        <ele>299.9</ele>
        <time>2021-06-16T08:48:26.000Z</time>
      </trkpt>
      <trkpt lat="43.50502" lon="6.35144">
        <ele>300</ele>
        <time>2021-06-16T08:48:30.000Z</time>
      </trkpt>
      <trkpt lat="43.50502" lon="6.35152">
        <ele>300.1</ele>
        <time>2021-06-16T08:48:35.000Z</time>
      </trkpt>
      <trkpt lat="43.50503" lon="6.35159">
        <ele>300.2</ele>
        <time>2021-06-16T08:48:39.000Z</time>
      </trkpt>
      <trkpt lat="43.50504" lon="6.35165">
        <ele>300.2</ele>
        <time>2021-06-16T08:48:43.000Z</time>
      </trkpt>
      <trkpt lat="43.50505" lon="6.35172">
        <ele>300.4</ele>
        <time>2021-06-16T08:48:48.000Z</time>
      </trkpt>
      <trkpt lat="43.50506" lon="6.35178">
        <ele>300.5</ele>
        <time>2021-06-16T08:48:52.000Z</time>
      </trkpt>
      <trkpt lat="43.50508" lon="6.35186">
        <ele>300.7</ele>
        <time>2021-06-16T08:48:57.000Z</time>
      </trkpt>
      <trkpt lat="43.50508" lon="6.35192">
        <ele>300.8</ele>
        <time>2021-06-16T08:49:01.000Z</time>
      </trkpt>
      <trkpt lat="43.50509" lon="6.35198">
        <ele>301</ele>
        <time>2021-06-16T08:49:05.000Z</time>
      </trkpt>
      <trkpt lat="43.50511" lon="6.35205">
        <ele>301.2</ele>
        <time>2021-06-16T08:49:10.000Z</time>
      </trkpt>
      <trkpt lat="43.50512" lon="6.35211">
        <ele>301.6</ele>
        <time>2021-06-16T08:49:22.000Z</time>
      </trkpt>
      <trkpt lat="43.50512" lon="6.35204">
        <ele>302.2</ele>
        <time>2021-06-16T08:49:46.000Z</time>
      </trkpt>
      <trkpt lat="43.50511" lon="6.35198">
        <ele>302.2</ele>
        <time>2021-06-16T08:49:52.000Z</time>
      </trkpt>
      <trkpt lat="43.50509" lon="6.35191">
        <ele>301.9</ele>
        <time>2021-06-16T08:49:57.000Z</time>
      </trkpt>
      <trkpt lat="43.5051" lon="6.35185">
        <ele>301.8</ele>
        <time>2021-06-16T08:50:01.000Z</time>
      </trkpt>
      <trkpt lat="43.50508" lon="6.35178">
        <ele>301.6</ele>
        <time>2021-06-16T08:50:06.000Z</time>
      </trkpt>
      <trkpt lat="43.50506" lon="6.35171">
        <ele>301.6</ele>
        <time>2021-06-16T08:50:10.000Z</time>
      </trkpt>
      <trkpt lat="43.50504" lon="6.35165">
        <ele>301.5</ele>
        <time>2021-06-16T08:50:14.000Z</time>
      </trkpt>
      <trkpt lat="43.50503" lon="6.35158">
        <ele>301.4</ele>
        <time>2021-06-16T08:50:18.000Z</time>
      </trkpt>
      <trkpt lat="43.50502" lon="6.35152">
        <ele>301.4</ele>
        <time>2021-06-16T08:50:22.000Z</time>
      </trkpt>
      <trkpt lat="43.50501" lon="6.35145">
        <ele>301.3</ele>
        <time>2021-06-16T08:50:27.000Z</time>
      </trkpt>
      <trkpt lat="43.50498" lon="6.35139">
        <ele>301.2</ele>
        <time>2021-06-16T08:50:32.000Z</time>
      </trkpt>
      <trkpt lat="43.50493" lon="6.35138">
        <ele>301</ele>
        <time>2021-06-16T08:50:37.000Z</time>
      </trkpt>
      <trkpt lat="43.50489" lon="6.35136">
        <ele>300.8</ele>
        <time>2021-06-16T08:50:42.000Z</time>
      </trkpt>
      <trkpt lat="43.50483" lon="6.35135">
        <ele>300.7</ele>
        <time>2021-06-16T08:50:47.000Z</time>
      </trkpt>
      <trkpt lat="43.50479" lon="6.35134">
        <ele>300.6</ele>
        <time>2021-06-16T08:50:52.000Z</time>
      </trkpt>
      <trkpt lat="43.50474" lon="6.35133">
        <ele>300.6</ele>
        <time>2021-06-16T08:50:56.000Z</time>
      </trkpt>
      <trkpt lat="43.50469" lon="6.35133">
        <ele>300.9</ele>
        <time>2021-06-16T08:51:01.000Z</time>
      </trkpt>
      <trkpt lat="43.50464" lon="6.35133">
        <ele>301.1</ele>
        <time>2021-06-16T08:51:06.000Z</time>
      </trkpt>
      <trkpt lat="43.50458" lon="6.35134">
        <ele>301.5</ele>
        <time>2021-06-16T08:51:12.000Z</time>
      </trkpt>
      <trkpt lat="43.50453" lon="6.35133">
        <ele>301.9</ele>
        <time>2021-06-16T08:51:18.000Z</time>
      </trkpt>
      <trkpt lat="43.50448" lon="6.35133">
        <ele>302.3</ele>
        <time>2021-06-16T08:51:24.000Z</time>
      </trkpt>
      <trkpt lat="43.50442" lon="6.35135">
        <ele>302.6</ele>
        <time>2021-06-16T08:51:31.000Z</time>
      </trkpt>
      <trkpt lat="43.50438" lon="6.35137">
        <ele>302.8</ele>
        <time>2021-06-16T08:51:35.000Z</time>
      </trkpt>
      <trkpt lat="43.50432" lon="6.35137">
        <ele>303.2</ele>
        <time>2021-06-16T08:51:40.000Z</time>
      </trkpt>
      <trkpt lat="43.50428" lon="6.35138">
        <ele>303.8</ele>
        <time>2021-06-16T08:51:46.000Z</time>
      </trkpt>
      <trkpt lat="43.50422" lon="6.35137">
        <ele>304.3</ele>
        <time>2021-06-16T08:51:50.000Z</time>
      </trkpt>
      <trkpt lat="43.50417" lon="6.35137">
        <ele>304.7</ele>
        <time>2021-06-16T08:51:54.000Z</time>
      </trkpt>
      <trkpt lat="43.50411" lon="6.35137">
        <ele>305.2</ele>
        <time>2021-06-16T08:51:58.000Z</time>
      </trkpt>
      <trkpt lat="43.50407" lon="6.35136">
        <ele>305.9</ele>
        <time>2021-06-16T08:52:04.000Z</time>
      </trkpt>
      <trkpt lat="43.50401" lon="6.35135">
        <ele>306.6</ele>
        <time>2021-06-16T08:52:09.000Z</time>
      </trkpt>
      <trkpt lat="43.50395" lon="6.35136">
        <ele>307.1</ele>
        <time>2021-06-16T08:52:13.000Z</time>
      </trkpt>
      <trkpt lat="43.50391" lon="6.35137">
        <ele>307.5</ele>
        <time>2021-06-16T08:52:16.000Z</time>
      </trkpt>
      <trkpt lat="43.50385" lon="6.35139">
        <ele>308.2</ele>
        <time>2021-06-16T08:52:21.000Z</time>
      </trkpt>
      <trkpt lat="43.5038" lon="6.35139">
        <ele>308.8</ele>
        <time>2021-06-16T08:52:27.000Z</time>
      </trkpt>
      <trkpt lat="43.50375" lon="6.3514">
        <ele>309.2</ele>
        <time>2021-06-16T08:52:31.000Z</time>
      </trkpt>
      <trkpt lat="43.50372" lon="6.35145">
        <ele>309.8</ele>
        <time>2021-06-16T08:52:36.000Z</time>
      </trkpt>
      <trkpt lat="43.50369" lon="6.3515">
        <ele>310.2</ele>
        <time>2021-06-16T08:52:41.000Z</time>
      </trkpt>
      <trkpt lat="43.50368" lon="6.35157">
        <ele>310.5</ele>
        <time>2021-06-16T08:52:47.000Z</time>
      </trkpt>
      <trkpt lat="43.50367" lon="6.35164">
        <ele>310.8</ele>
        <time>2021-06-16T08:52:54.000Z</time>
      </trkpt>
      <trkpt lat="43.50368" lon="6.3517">
        <ele>310.9</ele>
        <time>2021-06-16T08:52:58.000Z</time>
      </trkpt>
      <trkpt lat="43.5037" lon="6.35178">
        <ele>310.9</ele>
        <time>2021-06-16T08:53:02.000Z</time>
      </trkpt>
      <trkpt lat="43.50371" lon="6.35185">
        <ele>311</ele>
        <time>2021-06-16T08:53:06.000Z</time>
      </trkpt>
      <trkpt lat="43.50372" lon="6.35191">
        <ele>311.1</ele>
        <time>2021-06-16T08:53:11.000Z</time>
      </trkpt>
      <trkpt lat="43.50371" lon="6.35199">
        <ele>311.1</ele>
        <time>2021-06-16T08:53:17.000Z</time>
      </trkpt>
      <trkpt lat="43.50371" lon="6.35205">
        <ele>311.1</ele>
        <time>2021-06-16T08:53:22.000Z</time>
      </trkpt>
      <trkpt lat="43.50372" lon="6.35212">
        <ele>311.2</ele>
        <time>2021-06-16T08:53:27.000Z</time>
      </trkpt>
      <trkpt lat="43.50373" lon="6.35219">
        <ele>311.2</ele>
        <time>2021-06-16T08:53:31.000Z</time>
      </trkpt>
      <trkpt lat="43.50374" lon="6.35227">
        <ele>311.2</ele>
        <time>2021-06-16T08:53:36.000Z</time>
      </trkpt>
      <trkpt lat="43.50375" lon="6.35234">
        <ele>311.2</ele>
        <time>2021-06-16T08:53:40.000Z</time>
      </trkpt>
      <trkpt lat="43.50375" lon="6.35241">
        <ele>311.2</ele>
        <time>2021-06-16T08:53:45.000Z</time>
      </trkpt>
      <trkpt lat="43.50376" lon="6.35247">
        <ele>311.2</ele>
        <time>2021-06-16T08:53:50.000Z</time>
      </trkpt>
      <trkpt lat="43.50372" lon="6.35252">
        <ele>311.2</ele>
        <time>2021-06-16T08:53:59.000Z</time>
      </trkpt>
      <trkpt lat="43.50368" lon="6.35255">
        <ele>311.2</ele>
        <time>2021-06-16T08:54:05.000Z</time>
      </trkpt>
      <trkpt lat="43.50364" lon="6.35257">
        <ele>311.2</ele>
        <time>2021-06-16T08:54:10.000Z</time>
      </trkpt>
      <trkpt lat="43.50359" lon="6.35259">
        <ele>311.2</ele>
        <time>2021-06-16T08:54:17.000Z</time>
      </trkpt>
      <trkpt lat="43.50354" lon="6.35258">
        <ele>311.2</ele>
        <time>2021-06-16T08:54:25.000Z</time>
      </trkpt>
      <trkpt lat="43.50349" lon="6.35258">
        <ele>311.2</ele>
        <time>2021-06-16T08:54:30.000Z</time>
      </trkpt>
      <trkpt lat="43.50345" lon="6.35259">
        <ele>311.2</ele>
        <time>2021-06-16T08:54:36.000Z</time>
      </trkpt>
      <trkpt lat="43.5034" lon="6.35259">
        <ele>311.2</ele>
        <time>2021-06-16T08:54:40.000Z</time>
      </trkpt>
      <trkpt lat="43.50335" lon="6.3526">
        <ele>311.2</ele>
        <time>2021-06-16T08:54:44.000Z</time>
      </trkpt>
      <trkpt lat="43.5033" lon="6.3526">
        <ele>311.2</ele>
        <time>2021-06-16T08:54:48.000Z</time>
      </trkpt>
      <trkpt lat="43.50325" lon="6.35259">
        <ele>311.2</ele>
        <time>2021-06-16T08:54:53.000Z</time>
      </trkpt>
      <trkpt lat="43.5032" lon="6.35258">
        <ele>311.2</ele>
        <time>2021-06-16T08:55:00.000Z</time>
      </trkpt>
      <trkpt lat="43.50314" lon="6.35258">
        <ele>311.2</ele>
        <time>2021-06-16T08:55:05.000Z</time>
      </trkpt>
      <trkpt lat="43.50309" lon="6.35258">
        <ele>311.2</ele>
        <time>2021-06-16T08:55:09.000Z</time>
      </trkpt>
      <trkpt lat="43.50304" lon="6.35258">
        <ele>311.2</ele>
        <time>2021-06-16T08:55:13.000Z</time>
      </trkpt>
      <trkpt lat="43.50299" lon="6.35258">
        <ele>311.2</ele>
        <time>2021-06-16T08:55:16.000Z</time>
      </trkpt>
      <trkpt lat="43.50294" lon="6.35258">
        <ele>311.2</ele>
        <time>2021-06-16T08:55:20.000Z</time>
      </trkpt>
      <trkpt lat="43.50289" lon="6.35257">
        <ele>311.2</ele>
        <time>2021-06-16T08:55:23.000Z</time>
      </trkpt>
      <trkpt lat="43.50284" lon="6.35257">
        <ele>311.1</ele>
        <time>2021-06-16T08:55:26.000Z</time>
      </trkpt>
      <trkpt lat="43.50279" lon="6.35255">
        <ele>310.8</ele>
        <time>2021-06-16T08:55:31.000Z</time>
      </trkpt>
      <trkpt lat="43.50274" lon="6.35254">
        <ele>310.6</ele>
        <time>2021-06-16T08:55:34.000Z</time>
      </trkpt>
      <trkpt lat="43.50268" lon="6.35254">
        <ele>310.4</ele>
        <time>2021-06-16T08:55:37.000Z</time>
      </trkpt>
      <trkpt lat="43.50264" lon="6.35253">
        <ele>310.2</ele>
        <time>2021-06-16T08:55:40.000Z</time>
      </trkpt>
      <trkpt lat="43.50258" lon="6.35252">
        <ele>309.9</ele>
        <time>2021-06-16T08:55:44.000Z</time>
      </trkpt>
      <trkpt lat="43.50253" lon="6.35251">
        <ele>309.3</ele>
        <time>2021-06-16T08:55:49.000Z</time>
      </trkpt>
      <trkpt lat="43.50249" lon="6.35254">
        <ele>309</ele>
        <time>2021-06-16T08:55:53.000Z</time>
      </trkpt>
      <trkpt lat="43.50246" lon="6.35261">
        <ele>308.4</ele>
        <time>2021-06-16T08:55:58.000Z</time>
      </trkpt>
      <trkpt lat="43.50243" lon="6.35265">
        <ele>307.9</ele>
        <time>2021-06-16T08:56:02.000Z</time>
      </trkpt>
      <trkpt lat="43.5024" lon="6.35271">
        <ele>307.3</ele>
        <time>2021-06-16T08:56:07.000Z</time>
      </trkpt>
      <trkpt lat="43.50239" lon="6.35278">
        <ele>306.9</ele>
        <time>2021-06-16T08:56:12.000Z</time>
      </trkpt>
      <trkpt lat="43.50239" lon="6.35285">
        <ele>306.5</ele>
        <time>2021-06-16T08:56:18.000Z</time>
      </trkpt>
      <trkpt lat="43.50239" lon="6.35293">
        <ele>306.3</ele>
        <time>2021-06-16T08:56:22.000Z</time>
      </trkpt>
      <trkpt lat="43.50238" lon="6.353">
        <ele>306.1</ele>
        <time>2021-06-16T08:56:26.000Z</time>
      </trkpt>
      <trkpt lat="43.50238" lon="6.35308">
        <ele>306</ele>
        <time>2021-06-16T08:56:30.000Z</time>
      </trkpt>
      <trkpt lat="43.50237" lon="6.35316">
        <ele>306</ele>
        <time>2021-06-16T08:56:35.000Z</time>
      </trkpt>
      <trkpt lat="43.50238" lon="6.35322">
        <ele>306.2</ele>
        <time>2021-06-16T08:56:39.000Z</time>
      </trkpt>
      <trkpt lat="43.50237" lon="6.35328">
        <ele>306.2</ele>
        <time>2021-06-16T08:56:43.000Z</time>
      </trkpt>
      <trkpt lat="43.50237" lon="6.35334">
        <ele>306.3</ele>
        <time>2021-06-16T08:56:48.000Z</time>
      </trkpt>
      <trkpt lat="43.50238" lon="6.35342">
        <ele>306.4</ele>
        <time>2021-06-16T08:56:52.000Z</time>
      </trkpt>
      <trkpt lat="43.50237" lon="6.35348">
        <ele>306.7</ele>
        <time>2021-06-16T08:56:56.000Z</time>
      </trkpt>
      <trkpt lat="43.50237" lon="6.35355">
        <ele>307</ele>
        <time>2021-06-16T08:57:01.000Z</time>
      </trkpt>
      <trkpt lat="43.50235" lon="6.35361">
        <ele>307.2</ele>
        <time>2021-06-16T08:57:06.000Z</time>
      </trkpt>
      <trkpt lat="43.50234" lon="6.35369">
        <ele>307.4</ele>
        <time>2021-06-16T08:57:10.000Z</time>
      </trkpt>
      <trkpt lat="43.50232" lon="6.35376">
        <ele>307.5</ele>
        <time>2021-06-16T08:57:14.000Z</time>
      </trkpt>
      <trkpt lat="43.50231" lon="6.35383">
        <ele>307.6</ele>
        <time>2021-06-16T08:57:18.000Z</time>
      </trkpt>
      <trkpt lat="43.5023" lon="6.3539">
        <ele>307.7</ele>
        <time>2021-06-16T08:57:22.000Z</time>
      </trkpt>
      <trkpt lat="43.5023" lon="6.35397">
        <ele>308</ele>
        <time>2021-06-16T08:57:27.000Z</time>
      </trkpt>
      <trkpt lat="43.50231" lon="6.35405">
        <ele>308.3</ele>
        <time>2021-06-16T08:57:31.000Z</time>
      </trkpt>
      <trkpt lat="43.50231" lon="6.35412">
        <ele>308.6</ele>
        <time>2021-06-16T08:57:35.000Z</time>
      </trkpt>
      <trkpt lat="43.50232" lon="6.35419">
        <ele>308.9</ele>
        <time>2021-06-16T08:57:40.000Z</time>
      </trkpt>
      <trkpt lat="43.50232" lon="6.35425">
        <ele>309.1</ele>
        <time>2021-06-16T08:57:45.000Z</time>
      </trkpt>
      <trkpt lat="43.50233" lon="6.35432">
        <ele>309.3</ele>
        <time>2021-06-16T08:57:50.000Z</time>
      </trkpt>
      <trkpt lat="43.50233" lon="6.3544">
        <ele>309.5</ele>
        <time>2021-06-16T08:57:55.000Z</time>
      </trkpt>
      <trkpt lat="43.50234" lon="6.35448">
        <ele>309.6</ele>
        <time>2021-06-16T08:57:59.000Z</time>
      </trkpt>
      <trkpt lat="43.50234" lon="6.35455">
        <ele>309.8</ele>
        <time>2021-06-16T08:58:04.000Z</time>
      </trkpt>
      <trkpt lat="43.50234" lon="6.35461">
        <ele>310</ele>
        <time>2021-06-16T08:58:09.000Z</time>
      </trkpt>
      <trkpt lat="43.50235" lon="6.35468">
        <ele>310.1</ele>
        <time>2021-06-16T08:58:14.000Z</time>
      </trkpt>
      <trkpt lat="43.50234" lon="6.35475">
        <ele>310.2</ele>
        <time>2021-06-16T08:58:18.000Z</time>
      </trkpt>
      <trkpt lat="43.50236" lon="6.35482">
        <ele>310.3</ele>
        <time>2021-06-16T08:58:22.000Z</time>
      </trkpt>
      <trkpt lat="43.50237" lon="6.35489">
        <ele>310.4</ele>
        <time>2021-06-16T08:58:26.000Z</time>
      </trkpt>
      <trkpt lat="43.50239" lon="6.35497">
        <ele>310.5</ele>
        <time>2021-06-16T08:58:30.000Z</time>
      </trkpt>
      <trkpt lat="43.50241" lon="6.35504">
        <ele>310.6</ele>
        <time>2021-06-16T08:58:34.000Z</time>
      </trkpt>
      <trkpt lat="43.50243" lon="6.3551">
        <ele>310.6</ele>
        <time>2021-06-16T08:58:38.000Z</time>
      </trkpt>
      <trkpt lat="43.50245" lon="6.35516">
        <ele>310.7</ele>
        <time>2021-06-16T08:58:46.000Z</time>
      </trkpt>
      <trkpt lat="43.50249" lon="6.3552">
        <ele>310.8</ele>
        <time>2021-06-16T08:59:04.000Z</time>
      </trkpt>
      <trkpt lat="43.50253" lon="6.35525">
        <ele>310.9</ele>
        <time>2021-06-16T08:59:14.000Z</time>
      </trkpt>
      <trkpt lat="43.5025" lon="6.3553">
        <ele>310.9</ele>
        <time>2021-06-16T08:59:30.000Z</time>
      </trkpt>
      <trkpt lat="43.5025" lon="6.35536">
        <ele>310.9</ele>
        <time>2021-06-16T08:59:42.000Z</time>
      </trkpt>
      <trkpt lat="43.50252" lon="6.35542">
        <ele>310.9</ele>
        <time>2021-06-16T09:00:01.000Z</time>
      </trkpt>
      <trkpt lat="43.50255" lon="6.35547">
        <ele>310.8</ele>
        <time>2021-06-16T09:00:13.000Z</time>
      </trkpt>
      <trkpt lat="43.50257" lon="6.35553">
        <ele>310.6</ele>
        <time>2021-06-16T09:00:28.000Z</time>
      </trkpt>
      <trkpt lat="43.50259" lon="6.35559">
        <ele>310.6</ele>
        <time>2021-06-16T09:00:47.000Z</time>
      </trkpt>
      <trkpt lat="43.50261" lon="6.35565">
        <ele>310.4</ele>
        <time>2021-06-16T09:00:55.000Z</time>
      </trkpt>
      <trkpt lat="43.5026" lon="6.35572">
        <ele>310.2</ele>
        <time>2021-06-16T09:01:13.000Z</time>
      </trkpt>
      <trkpt lat="43.5026" lon="6.35578">
        <ele>310.1</ele>
        <time>2021-06-16T09:01:20.000Z</time>
      </trkpt>
      <trkpt lat="43.5026" lon="6.35585">
        <ele>309.9</ele>
        <time>2021-06-16T09:01:26.000Z</time>
      </trkpt>
      <trkpt lat="43.5026" lon="6.35592">
        <ele>309.8</ele>
        <time>2021-06-16T09:01:34.000Z</time>
      </trkpt>
      <trkpt lat="43.50262" lon="6.35598">
        <ele>309.7</ele>
        <time>2021-06-16T09:01:39.000Z</time>
      </trkpt>
      <trkpt lat="43.50263" lon="6.35605">
        <ele>309.6</ele>
        <time>2021-06-16T09:01:44.000Z</time>
      </trkpt>
      <trkpt lat="43.50264" lon="6.35611">
        <ele>309.4</ele>
        <time>2021-06-16T09:01:50.000Z</time>
      </trkpt>
      <trkpt lat="43.50264" lon="6.35619">
        <ele>309.1</ele>
        <time>2021-06-16T09:01:55.000Z</time>
      </trkpt>
      <trkpt lat="43.50267" lon="6.35626">
        <ele>308.5</ele>
        <time>2021-06-16T09:02:01.000Z</time>
      </trkpt>
      <trkpt lat="43.50269" lon="6.35633">
        <ele>308.1</ele>
        <time>2021-06-16T09:02:05.000Z</time>
      </trkpt>
      <trkpt lat="43.5027" lon="6.35639">
        <ele>307.6</ele>
        <time>2021-06-16T09:02:09.000Z</time>
      </trkpt>
      <trkpt lat="43.50272" lon="6.35647">
        <ele>306.8</ele>
        <time>2021-06-16T09:02:15.000Z</time>
      </trkpt>
      <trkpt lat="43.50275" lon="6.35653">
        <ele>306.3</ele>
        <time>2021-06-16T09:02:19.000Z</time>
      </trkpt>
      <trkpt lat="43.50278" lon="6.35658">
        <ele>305.8</ele>
        <time>2021-06-16T09:02:24.000Z</time>
      </trkpt>
      <trkpt lat="43.50282" lon="6.35663">
        <ele>305.5</ele>
        <time>2021-06-16T09:02:29.000Z</time>
      </trkpt>
      <trkpt lat="43.50285" lon="6.35669">
        <ele>305.2</ele>
        <time>2021-06-16T09:02:33.000Z</time>
      </trkpt>
      <trkpt lat="43.50287" lon="6.35675">
        <ele>305</ele>
        <time>2021-06-16T09:02:39.000Z</time>
      </trkpt>
      <trkpt lat="43.50291" lon="6.35681">
        <ele>304.8</ele>
        <time>2021-06-16T09:02:44.000Z</time>
      </trkpt>
      <trkpt lat="43.50293" lon="6.35687">
        <ele>304.5</ele>
        <time>2021-06-16T09:02:49.000Z</time>
      </trkpt>
      <trkpt lat="43.50296" lon="6.35693">
        <ele>304.3</ele>
        <time>2021-06-16T09:02:53.000Z</time>
      </trkpt>
      <trkpt lat="43.50299" lon="6.35699">
        <ele>304</ele>
        <time>2021-06-16T09:02:57.000Z</time>
      </trkpt>
      <trkpt lat="43.50302" lon="6.35704">
        <ele>303.8</ele>
        <time>2021-06-16T09:03:00.000Z</time>
      </trkpt>
      <trkpt lat="43.50307" lon="6.35709">
        <ele>303.5</ele>
        <time>2021-06-16T09:03:04.000Z</time>
      </trkpt>
      <trkpt lat="43.50312" lon="6.35711">
        <ele>303.3</ele>
        <time>2021-06-16T09:03:08.000Z</time>
      </trkpt>
      <trkpt lat="43.50317" lon="6.35712">
        <ele>303.1</ele>
        <time>2021-06-16T09:03:12.000Z</time>
      </trkpt>
      <trkpt lat="43.50321" lon="6.35713">
        <ele>302.9</ele>
        <time>2021-06-16T09:03:17.000Z</time>
      </trkpt>
      <trkpt lat="43.50327" lon="6.35714">
        <ele>302.8</ele>
        <time>2021-06-16T09:03:22.000Z</time>
      </trkpt>
      <trkpt lat="43.50332" lon="6.35713">
        <ele>302.6</ele>
        <time>2021-06-16T09:03:28.000Z</time>
      </trkpt>
      <trkpt lat="43.50337" lon="6.35714">
        <ele>302.6</ele>
        <time>2021-06-16T09:03:35.000Z</time>
      </trkpt>
      <trkpt lat="43.50342" lon="6.35713">
        <ele>302.5</ele>
        <time>2021-06-16T09:03:40.000Z</time>
      </trkpt>
      <trkpt lat="43.50347" lon="6.35713">
        <ele>302.6</ele>
        <time>2021-06-16T09:03:45.000Z</time>
      </trkpt>
      <trkpt lat="43.50352" lon="6.35712">
        <ele>302.7</ele>
        <time>2021-06-16T09:03:50.000Z</time>
      </trkpt>
      <trkpt lat="43.50356" lon="6.3571">
        <ele>302.8</ele>
        <time>2021-06-16T09:03:55.000Z</time>
      </trkpt>
      <trkpt lat="43.50361" lon="6.35709">
        <ele>302.9</ele>
        <time>2021-06-16T09:04:00.000Z</time>
      </trkpt>
      <trkpt lat="43.50366" lon="6.35707">
        <ele>303</ele>
        <time>2021-06-16T09:04:05.000Z</time>
      </trkpt>
      <trkpt lat="43.50371" lon="6.35707">
        <ele>303</ele>
        <time>2021-06-16T09:04:10.000Z</time>
      </trkpt>
      <trkpt lat="43.50376" lon="6.35707">
        <ele>303</ele>
        <time>2021-06-16T09:04:14.000Z</time>
      </trkpt>
      <trkpt lat="43.5038" lon="6.35707">
        <ele>303</ele>
        <time>2021-06-16T09:04:19.000Z</time>
      </trkpt>
      <trkpt lat="43.50385" lon="6.35708">
        <ele>302.8</ele>
        <time>2021-06-16T09:04:24.000Z</time>
      </trkpt>
      <trkpt lat="43.50389" lon="6.3571">
        <ele>302.4</ele>
        <time>2021-06-16T09:04:36.000Z</time>
      </trkpt>
      <trkpt lat="43.50393" lon="6.35714">
        <ele>301.8</ele>
        <time>2021-06-16T09:05:01.000Z</time>
      </trkpt>
      <trkpt lat="43.50397" lon="6.35715">
        <ele>301.6</ele>
        <time>2021-06-16T09:05:18.000Z</time>
      </trkpt>
      <trkpt lat="43.50393" lon="6.35719">
        <ele>301.7</ele>
        <time>2021-06-16T09:06:42.000Z</time>
      </trkpt>
      <trkpt lat="43.5039" lon="6.35724">
        <ele>301.6</ele>
        <time>2021-06-16T09:06:49.000Z</time>
      </trkpt>
      <trkpt lat="43.50387" lon="6.35728">
        <ele>301.5</ele>
        <time>2021-06-16T09:06:58.000Z</time>
      </trkpt>
      <trkpt lat="43.50384" lon="6.35733">
        <ele>301.4</ele>
        <time>2021-06-16T09:07:04.000Z</time>
      </trkpt>
      <trkpt lat="43.5038" lon="6.35738">
        <ele>301.1</ele>
        <time>2021-06-16T09:07:10.000Z</time>
      </trkpt>
      <trkpt lat="43.50376" lon="6.35743">
        <ele>300.5</ele>
        <time>2021-06-16T09:07:17.000Z</time>
      </trkpt>
      <trkpt lat="43.50374" lon="6.35749">
        <ele>300.1</ele>
        <time>2021-06-16T09:07:23.000Z</time>
      </trkpt>
      <trkpt lat="43.5037" lon="6.35754">
        <ele>299.7</ele>
        <time>2021-06-16T09:07:28.000Z</time>
      </trkpt>
      <trkpt lat="43.50367" lon="6.3576">
        <ele>299.3</ele>
        <time>2021-06-16T09:07:33.000Z</time>
      </trkpt>
      <trkpt lat="43.50365" lon="6.35766">
        <ele>298.7</ele>
        <time>2021-06-16T09:07:39.000Z</time>
      </trkpt>
      <trkpt lat="43.50369" lon="6.35769">
        <ele>298</ele>
        <time>2021-06-16T09:07:46.000Z</time>
      </trkpt>
      <trkpt lat="43.50374" lon="6.3577">
        <ele>297.7</ele>
        <time>2021-06-16T09:07:52.000Z</time>
      </trkpt>
      <trkpt lat="43.50379" lon="6.35772">
        <ele>297.2</ele>
        <time>2021-06-16T09:08:03.000Z</time>
      </trkpt>
      <trkpt lat="43.50384" lon="6.35773">
        <ele>297</ele>
        <time>2021-06-16T09:08:08.000Z</time>
      </trkpt>
      <trkpt lat="43.50389" lon="6.35773">
        <ele>296.9</ele>
        <time>2021-06-16T09:08:12.000Z</time>
      </trkpt>
      <trkpt lat="43.50394" lon="6.35774">
        <ele>296.8</ele>
        <time>2021-06-16T09:08:17.000Z</time>
      </trkpt>
      <trkpt lat="43.50399" lon="6.35775">
        <ele>296.8</ele>
        <time>2021-06-16T09:08:22.000Z</time>
      </trkpt>
      <trkpt lat="43.50403" lon="6.35777">
        <ele>296.8</ele>
        <time>2021-06-16T09:08:27.000Z</time>
      </trkpt>
      <trkpt lat="43.50408" lon="6.3578">
        <ele>296.9</ele>
        <time>2021-06-16T09:08:33.000Z</time>
      </trkpt>
      <trkpt lat="43.50413" lon="6.35781">
        <ele>297.1</ele>
        <time>2021-06-16T09:08:40.000Z</time>
      </trkpt>
      <trkpt lat="43.50418" lon="6.35782">
        <ele>297.3</ele>
        <time>2021-06-16T09:08:45.000Z</time>
      </trkpt>
      <trkpt lat="43.50423" lon="6.35785">
        <ele>297.6</ele>
        <time>2021-06-16T09:08:50.000Z</time>
      </trkpt>
      <trkpt lat="43.50428" lon="6.35789">
        <ele>298.2</ele>
        <time>2021-06-16T09:08:56.000Z</time>
      </trkpt>
      <trkpt lat="43.50432" lon="6.35792">
        <ele>298.8</ele>
        <time>2021-06-16T09:09:01.000Z</time>
      </trkpt>
      <trkpt lat="43.50437" lon="6.35794">
        <ele>299.2</ele>
        <time>2021-06-16T09:09:05.000Z</time>
      </trkpt>
      <trkpt lat="43.50441" lon="6.35796">
        <ele>299.6</ele>
        <time>2021-06-16T09:09:09.000Z</time>
      </trkpt>
      <trkpt lat="43.50446" lon="6.35798">
        <ele>299.9</ele>
        <time>2021-06-16T09:09:14.000Z</time>
      </trkpt>
      <trkpt lat="43.5045" lon="6.358">
        <ele>300.4</ele>
        <time>2021-06-16T09:09:19.000Z</time>
      </trkpt>
      <trkpt lat="43.50455" lon="6.35803">
        <ele>300.7</ele>
        <time>2021-06-16T09:09:23.000Z</time>
      </trkpt>
      <trkpt lat="43.5046" lon="6.35805">
        <ele>301.1</ele>
        <time>2021-06-16T09:09:27.000Z</time>
      </trkpt>
      <trkpt lat="43.50464" lon="6.35809">
        <ele>301.5</ele>
        <time>2021-06-16T09:09:32.000Z</time>
      </trkpt>
      <trkpt lat="43.50469" lon="6.35811">
        <ele>301.8</ele>
        <time>2021-06-16T09:09:38.000Z</time>
      </trkpt>
      <trkpt lat="43.50473" lon="6.35813">
        <ele>302</ele>
        <time>2021-06-16T09:09:43.000Z</time>
      </trkpt>
      <trkpt lat="43.50478" lon="6.35814">
        <ele>302.2</ele>
        <time>2021-06-16T09:09:49.000Z</time>
      </trkpt>
      <trkpt lat="43.50483" lon="6.35816">
        <ele>302.2</ele>
        <time>2021-06-16T09:09:54.000Z</time>
      </trkpt>
      <trkpt lat="43.50488" lon="6.35819">
        <ele>302.2</ele>
        <time>2021-06-16T09:09:59.000Z</time>
      </trkpt>
      <trkpt lat="43.50493" lon="6.35821">
        <ele>302.2</ele>
        <time>2021-06-16T09:10:03.000Z</time>
      </trkpt>
      <trkpt lat="43.50498" lon="6.35824">
        <ele>302.1</ele>
        <time>2021-06-16T09:10:07.000Z</time>
      </trkpt>
      <trkpt lat="43.50503" lon="6.35827">
        <ele>302.1</ele>
        <time>2021-06-16T09:10:10.000Z</time>
      </trkpt>
      <trkpt lat="43.50508" lon="6.3583">
        <ele>302.1</ele>
        <time>2021-06-16T09:10:13.000Z</time>
      </trkpt>
      <trkpt lat="43.50513" lon="6.35832">
        <ele>302.1</ele>
        <time>2021-06-16T09:10:16.000Z</time>
      </trkpt>
      <trkpt lat="43.50518" lon="6.35836">
        <ele>302.1</ele>
        <time>2021-06-16T09:10:21.000Z</time>
      </trkpt>
      <trkpt lat="43.50523" lon="6.35837">
        <ele>302.1</ele>
        <time>2021-06-16T09:10:25.000Z</time>
      </trkpt>
      <trkpt lat="43.50528" lon="6.35839">
        <ele>302.1</ele>
        <time>2021-06-16T09:10:29.000Z</time>
      </trkpt>
      <trkpt lat="43.50533" lon="6.3584">
        <ele>301.9</ele>
        <time>2021-06-16T09:10:35.000Z</time>
      </trkpt>
      <trkpt lat="43.50538" lon="6.35842">
        <ele>301.4</ele>
        <time>2021-06-16T09:10:44.000Z</time>
      </trkpt>
      <trkpt lat="43.50542" lon="6.35843">
        <ele>300.9</ele>
        <time>2021-06-16T09:10:48.000Z</time>
      </trkpt>
      <trkpt lat="43.50547" lon="6.35842">
        <ele>300.6</ele>
        <time>2021-06-16T09:10:52.000Z</time>
      </trkpt>
      <trkpt lat="43.50552" lon="6.35844">
        <ele>300.2</ele>
        <time>2021-06-16T09:10:56.000Z</time>
      </trkpt>
      <trkpt lat="43.50557" lon="6.35846">
        <ele>299.7</ele>
        <time>2021-06-16T09:11:03.000Z</time>
      </trkpt>
      <trkpt lat="43.50561" lon="6.35843">
        <ele>299</ele>
        <time>2021-06-16T09:11:09.000Z</time>
      </trkpt>
      <trkpt lat="43.50565" lon="6.35842">
        <ele>298.4</ele>
        <time>2021-06-16T09:11:17.000Z</time>
      </trkpt>
      <trkpt lat="43.5057" lon="6.3584">
        <ele>297.9</ele>
        <time>2021-06-16T09:11:24.000Z</time>
      </trkpt>
      <trkpt lat="43.50574" lon="6.35839">
        <ele>297.5</ele>
        <time>2021-06-16T09:11:30.000Z</time>
      </trkpt>
      <trkpt lat="43.50578" lon="6.35834">
        <ele>297.4</ele>
        <time>2021-06-16T09:11:34.000Z</time>
      </trkpt>
      <trkpt lat="43.50582" lon="6.3583">
        <ele>297.1</ele>
        <time>2021-06-16T09:11:39.000Z</time>
      </trkpt>
      <trkpt lat="43.50587" lon="6.35827">
        <ele>297</ele>
        <time>2021-06-16T09:11:44.000Z</time>
      </trkpt>
      <trkpt lat="43.50592" lon="6.35826">
        <ele>296.8</ele>
        <time>2021-06-16T09:11:49.000Z</time>
      </trkpt>
      <trkpt lat="43.50597" lon="6.35823">
        <ele>296.5</ele>
        <time>2021-06-16T09:11:53.000Z</time>
      </trkpt>
      <trkpt lat="43.50601" lon="6.35821">
        <ele>296.3</ele>
        <time>2021-06-16T09:11:58.000Z</time>
      </trkpt>
      <trkpt lat="43.50607" lon="6.35823">
        <ele>296.4</ele>
        <time>2021-06-16T09:12:04.000Z</time>
      </trkpt>
      <trkpt lat="43.50612" lon="6.35825">
        <ele>296.5</ele>
        <time>2021-06-16T09:12:09.000Z</time>
      </trkpt>
      <trkpt lat="43.50617" lon="6.35827">
        <ele>296.5</ele>
        <time>2021-06-16T09:12:14.000Z</time>
      </trkpt>
      <trkpt lat="43.50622" lon="6.35829">
        <ele>296.7</ele>
        <time>2021-06-16T09:12:20.000Z</time>
      </trkpt>
      <trkpt lat="43.50626" lon="6.35831">
        <ele>297</ele>
        <time>2021-06-16T09:12:25.000Z</time>
      </trkpt>
      <trkpt lat="43.50631" lon="6.35833">
        <ele>297.3</ele>
        <time>2021-06-16T09:12:30.000Z</time>
      </trkpt>
      <trkpt lat="43.50636" lon="6.35835">
        <ele>297.6</ele>
        <time>2021-06-16T09:12:36.000Z</time>
      </trkpt>
      <trkpt lat="43.5064" lon="6.35837">
        <ele>297.8</ele>
        <time>2021-06-16T09:12:42.000Z</time>
      </trkpt>
      <trkpt lat="43.50645" lon="6.35839">
        <ele>298</ele>
        <time>2021-06-16T09:12:47.000Z</time>
      </trkpt>
      <trkpt lat="43.50649" lon="6.35843">
        <ele>298.2</ele>
        <time>2021-06-16T09:12:52.000Z</time>
      </trkpt>
      <trkpt lat="43.50653" lon="6.35847">
        <ele>298.6</ele>
        <time>2021-06-16T09:13:07.000Z</time>
      </trkpt>
      <trkpt lat="43.50655" lon="6.35853">
        <ele>298.7</ele>
        <time>2021-06-16T09:13:14.000Z</time>
      </trkpt>
      <trkpt lat="43.50657" lon="6.35859">
        <ele>298.6</ele>
        <time>2021-06-16T09:13:21.000Z</time>
      </trkpt>
      <trkpt lat="43.5066" lon="6.35864">
        <ele>298.4</ele>
        <time>2021-06-16T09:13:28.000Z</time>
      </trkpt>
      <trkpt lat="43.50665" lon="6.35864">
        <ele>298</ele>
        <time>2021-06-16T09:13:41.000Z</time>
      </trkpt>
      <trkpt lat="43.50665" lon="6.35871">
        <ele>297.6</ele>
        <time>2021-06-16T09:13:55.000Z</time>
      </trkpt>
      <trkpt lat="43.50667" lon="6.35877">
        <ele>297.4</ele>
        <time>2021-06-16T09:14:08.000Z</time>
      </trkpt>
      <trkpt lat="43.50671" lon="6.35881">
        <ele>296.7</ele>
        <time>2021-06-16T09:14:16.000Z</time>
      </trkpt>
      <trkpt lat="43.50673" lon="6.35888">
        <ele>296</ele>
        <time>2021-06-16T09:14:23.000Z</time>
      </trkpt>
      <trkpt lat="43.50675" lon="6.35894">
        <ele>295.3</ele>
        <time>2021-06-16T09:14:29.000Z</time>
      </trkpt>
      <trkpt lat="43.50677" lon="6.359">
        <ele>294.4</ele>
        <time>2021-06-16T09:14:36.000Z</time>
      </trkpt>
      <trkpt lat="43.50679" lon="6.35905">
        <ele>293.7</ele>
        <time>2021-06-16T09:14:42.000Z</time>
      </trkpt>
      <trkpt lat="43.50681" lon="6.35911">
        <ele>293.1</ele>
        <time>2021-06-16T09:14:50.000Z</time>
      </trkpt>
      <trkpt lat="43.50684" lon="6.35916">
        <ele>292.7</ele>
        <time>2021-06-16T09:14:59.000Z</time>
      </trkpt>
      <trkpt lat="43.50685" lon="6.35922">
        <ele>292.3</ele>
        <time>2021-06-16T09:15:06.000Z</time>
      </trkpt>
      <trkpt lat="43.50683" lon="6.35929">
        <ele>292</ele>
        <time>2021-06-16T09:15:13.000Z</time>
      </trkpt>
      <trkpt lat="43.50681" lon="6.35935">
        <ele>291.9</ele>
        <time>2021-06-16T09:15:18.000Z</time>
      </trkpt>
      <trkpt lat="43.50679" lon="6.3594">
        <ele>291.6</ele>
        <time>2021-06-16T09:15:26.000Z</time>
      </trkpt>
      <trkpt lat="43.50677" lon="6.35947">
        <ele>291.4</ele>
        <time>2021-06-16T09:15:38.000Z</time>
      </trkpt>
      <trkpt lat="43.50674" lon="6.35952">
        <ele>291.1</ele>
        <time>2021-06-16T09:15:43.000Z</time>
      </trkpt>
      <trkpt lat="43.5067" lon="6.35957">
        <ele>290.8</ele>
        <time>2021-06-16T09:15:48.000Z</time>
      </trkpt>
      <trkpt lat="43.50666" lon="6.35962">
        <ele>290.4</ele>
        <time>2021-06-16T09:15:53.000Z</time>
      </trkpt>
      <trkpt lat="43.50661" lon="6.35965">
        <ele>290.2</ele>
        <time>2021-06-16T09:15:58.000Z</time>
      </trkpt>
      <trkpt lat="43.50657" lon="6.35971">
        <ele>289.9</ele>
        <time>2021-06-16T09:16:03.000Z</time>
      </trkpt>
      <trkpt lat="43.50654" lon="6.35976">
        <ele>289.7</ele>
        <time>2021-06-16T09:16:07.000Z</time>
      </trkpt>
      <trkpt lat="43.50652" lon="6.35981">
        <ele>289.6</ele>
        <time>2021-06-16T09:16:11.000Z</time>
      </trkpt>
      <trkpt lat="43.5065" lon="6.35987">
        <ele>289.5</ele>
        <time>2021-06-16T09:16:15.000Z</time>
      </trkpt>
      <trkpt lat="43.50649" lon="6.35995">
        <ele>289.3</ele>
        <time>2021-06-16T09:16:20.000Z</time>
      </trkpt>
      <trkpt lat="43.50647" lon="6.36002">
        <ele>289.1</ele>
        <time>2021-06-16T09:16:24.000Z</time>
      </trkpt>
      <trkpt lat="43.50648" lon="6.35994">
        <ele>288.4</ele>
        <time>2021-06-16T09:17:12.000Z</time>
      </trkpt>
      <trkpt lat="43.5065" lon="6.35989">
        <ele>288.4</ele>
        <time>2021-06-16T09:17:18.000Z</time>
      </trkpt>
      <trkpt lat="43.50653" lon="6.35985">
        <ele>288.5</ele>
        <time>2021-06-16T09:17:23.000Z</time>
      </trkpt>
      <trkpt lat="43.50657" lon="6.35979">
        <ele>288.5</ele>
        <time>2021-06-16T09:17:28.000Z</time>
      </trkpt>
      <trkpt lat="43.5066" lon="6.35974">
        <ele>288.6</ele>
        <time>2021-06-16T09:17:33.000Z</time>
      </trkpt>
      <trkpt lat="43.50664" lon="6.35968">
        <ele>288.6</ele>
        <time>2021-06-16T09:17:38.000Z</time>
      </trkpt>
      <trkpt lat="43.50666" lon="6.35963">
        <ele>288.7</ele>
        <time>2021-06-16T09:17:42.000Z</time>
      </trkpt>
      <trkpt lat="43.5067" lon="6.35958">
        <ele>289</ele>
        <time>2021-06-16T09:17:47.000Z</time>
      </trkpt>
      <trkpt lat="43.50673" lon="6.35953">
        <ele>289.3</ele>
        <time>2021-06-16T09:17:52.000Z</time>
      </trkpt>
      <trkpt lat="43.50677" lon="6.35948">
        <ele>289.6</ele>
        <time>2021-06-16T09:17:57.000Z</time>
      </trkpt>
      <trkpt lat="43.50679" lon="6.35943">
        <ele>289.9</ele>
        <time>2021-06-16T09:18:02.000Z</time>
      </trkpt>
      <trkpt lat="43.50683" lon="6.35937">
        <ele>290.4</ele>
        <time>2021-06-16T09:18:08.000Z</time>
      </trkpt>
      <trkpt lat="43.50683" lon="6.35931">
        <ele>291</ele>
        <time>2021-06-16T09:18:13.000Z</time>
      </trkpt>
      <trkpt lat="43.50682" lon="6.35924">
        <ele>291.5</ele>
        <time>2021-06-16T09:18:20.000Z</time>
      </trkpt>
      <trkpt lat="43.5068" lon="6.35919">
        <ele>291.9</ele>
        <time>2021-06-16T09:18:29.000Z</time>
      </trkpt>
      <trkpt lat="43.50675" lon="6.35921">
        <ele>291.8</ele>
        <time>2021-06-16T09:18:39.000Z</time>
      </trkpt>
      <trkpt lat="43.50672" lon="6.35926">
        <ele>291.4</ele>
        <time>2021-06-16T09:18:47.000Z</time>
      </trkpt>
      <trkpt lat="43.50668" lon="6.3593">
        <ele>290</ele>
        <time>2021-06-16T09:18:55.000Z</time>
      </trkpt>
      <trkpt lat="43.50664" lon="6.35934">
        <ele>289.6</ele>
        <time>2021-06-16T09:18:59.000Z</time>
      </trkpt>
      <trkpt lat="43.5066" lon="6.35939">
        <ele>288.9</ele>
        <time>2021-06-16T09:19:06.000Z</time>
      </trkpt>
      <trkpt lat="43.50656" lon="6.35942">
        <ele>288.1</ele>
        <time>2021-06-16T09:19:12.000Z</time>
      </trkpt>
      <trkpt lat="43.50651" lon="6.35946">
        <ele>287.5</ele>
        <time>2021-06-16T09:19:17.000Z</time>
      </trkpt>
      <trkpt lat="43.50648" lon="6.3595">
        <ele>287.1</ele>
        <time>2021-06-16T09:19:21.000Z</time>
      </trkpt>
      <trkpt lat="43.50644" lon="6.35954">
        <ele>286.7</ele>
        <time>2021-06-16T09:19:25.000Z</time>
      </trkpt>
      <trkpt lat="43.50639" lon="6.35958">
        <ele>286.3</ele>
        <time>2021-06-16T09:19:29.000Z</time>
      </trkpt>
      <trkpt lat="43.50635" lon="6.35961">
        <ele>286</ele>
        <time>2021-06-16T09:19:33.000Z</time>
      </trkpt>
      <trkpt lat="43.50631" lon="6.35964">
        <ele>285.6</ele>
        <time>2021-06-16T09:19:37.000Z</time>
      </trkpt>
      <trkpt lat="43.50627" lon="6.35967">
        <ele>285.3</ele>
        <time>2021-06-16T09:19:41.000Z</time>
      </trkpt>
      <trkpt lat="43.50622" lon="6.35971">
        <ele>284.9</ele>
        <time>2021-06-16T09:19:46.000Z</time>
      </trkpt>
      <trkpt lat="43.50617" lon="6.35976">
        <ele>284.5</ele>
        <time>2021-06-16T09:19:51.000Z</time>
      </trkpt>
      <trkpt lat="43.50614" lon="6.35981">
        <ele>283.9</ele>
        <time>2021-06-16T09:19:55.000Z</time>
      </trkpt>
      <trkpt lat="43.5061" lon="6.35985">
        <ele>283</ele>
        <time>2021-06-16T09:20:00.000Z</time>
      </trkpt>
      <trkpt lat="43.50606" lon="6.35989">
        <ele>281.9</ele>
        <time>2021-06-16T09:20:06.000Z</time>
      </trkpt>
      <trkpt lat="43.50605" lon="6.35995">
        <ele>279.8</ele>
        <time>2021-06-16T09:20:24.000Z</time>
      </trkpt>
      <trkpt lat="43.50602" lon="6.36">
        <ele>279.4</ele>
        <time>2021-06-16T09:20:30.000Z</time>
      </trkpt>
      <trkpt lat="43.50601" lon="6.36007">
        <ele>278.5</ele>
        <time>2021-06-16T09:20:37.000Z</time>
      </trkpt>
      <trkpt lat="43.50599" lon="6.36013">
        <ele>277.6</ele>
        <time>2021-06-16T09:20:43.000Z</time>
      </trkpt>
      <trkpt lat="43.50596" lon="6.36019">
        <ele>277.1</ele>
        <time>2021-06-16T09:20:47.000Z</time>
      </trkpt>
      <trkpt lat="43.50594" lon="6.36024">
        <ele>276.4</ele>
        <time>2021-06-16T09:20:52.000Z</time>
      </trkpt>
      <trkpt lat="43.50592" lon="6.3603">
        <ele>275.9</ele>
        <time>2021-06-16T09:20:57.000Z</time>
      </trkpt>
      <trkpt lat="43.50589" lon="6.36035">
        <ele>275.4</ele>
        <time>2021-06-16T09:21:03.000Z</time>
      </trkpt>
      <trkpt lat="43.50586" lon="6.3604">
        <ele>275.1</ele>
        <time>2021-06-16T09:21:06.000Z</time>
      </trkpt>
      <trkpt lat="43.50582" lon="6.36043">
        <ele>274.8</ele>
        <time>2021-06-16T09:21:11.000Z</time>
      </trkpt>
      <trkpt lat="43.50577" lon="6.36047">
        <ele>274.4</ele>
        <time>2021-06-16T09:21:20.000Z</time>
      </trkpt>
      <trkpt lat="43.50573" lon="6.36051">
        <ele>273.9</ele>
        <time>2021-06-16T09:21:41.000Z</time>
      </trkpt>
      <trkpt lat="43.5057" lon="6.36055">
        <ele>273.7</ele>
        <time>2021-06-16T09:22:06.000Z</time>
      </trkpt>
      <trkpt lat="43.50567" lon="6.36061">
        <ele>273.6</ele>
        <time>2021-06-16T09:22:18.000Z</time>
      </trkpt>
      <trkpt lat="43.50564" lon="6.36066">
        <ele>273.1</ele>
        <time>2021-06-16T09:22:26.000Z</time>
      </trkpt>
      <trkpt lat="43.50561" lon="6.36071">
        <ele>272.9</ele>
        <time>2021-06-16T09:22:31.000Z</time>
      </trkpt>
      <trkpt lat="43.50558" lon="6.36076">
        <ele>272.7</ele>
        <time>2021-06-16T09:22:36.000Z</time>
      </trkpt>
      <trkpt lat="43.50554" lon="6.36082">
        <ele>272.5</ele>
        <time>2021-06-16T09:22:41.000Z</time>
      </trkpt>
      <trkpt lat="43.50551" lon="6.36088">
        <ele>272.2</ele>
        <time>2021-06-16T09:22:46.000Z</time>
      </trkpt>
      <trkpt lat="43.50547" lon="6.36092">
        <ele>272</ele>
        <time>2021-06-16T09:22:50.000Z</time>
      </trkpt>
      <trkpt lat="43.50543" lon="6.36097">
        <ele>271.9</ele>
        <time>2021-06-16T09:22:54.000Z</time>
      </trkpt>
      <trkpt lat="43.50538" lon="6.36102">
        <ele>271.7</ele>
        <time>2021-06-16T09:22:58.000Z</time>
      </trkpt>
      <trkpt lat="43.50535" lon="6.36107">
        <ele>271.5</ele>
        <time>2021-06-16T09:23:03.000Z</time>
      </trkpt>
      <trkpt lat="43.50531" lon="6.36112">
        <ele>271.1</ele>
        <time>2021-06-16T09:23:08.000Z</time>
      </trkpt>
      <trkpt lat="43.50528" lon="6.36116">
        <ele>270.9</ele>
        <time>2021-06-16T09:23:12.000Z</time>
      </trkpt>
      <trkpt lat="43.50525" lon="6.36121">
        <ele>270.7</ele>
        <time>2021-06-16T09:23:16.000Z</time>
      </trkpt>
      <trkpt lat="43.50521" lon="6.36126">
        <ele>270.5</ele>
        <time>2021-06-16T09:23:21.000Z</time>
      </trkpt>
      <trkpt lat="43.50517" lon="6.36131">
        <ele>270.4</ele>
        <time>2021-06-16T09:23:25.000Z</time>
      </trkpt>
      <trkpt lat="43.50514" lon="6.36136">
        <ele>270.2</ele>
        <time>2021-06-16T09:23:29.000Z</time>
      </trkpt>
      <trkpt lat="43.5051" lon="6.36141">
        <ele>270.1</ele>
        <time>2021-06-16T09:23:33.000Z</time>
      </trkpt>
      <trkpt lat="43.50506" lon="6.36147">
        <ele>269.9</ele>
        <time>2021-06-16T09:23:38.000Z</time>
      </trkpt>
      <trkpt lat="43.50503" lon="6.36152">
        <ele>269.8</ele>
        <time>2021-06-16T09:23:42.000Z</time>
      </trkpt>
      <trkpt lat="43.50501" lon="6.36157">
        <ele>269.5</ele>
        <time>2021-06-16T09:23:46.000Z</time>
      </trkpt>
      <trkpt lat="43.50498" lon="6.36162">
        <ele>269.2</ele>
        <time>2021-06-16T09:23:54.000Z</time>
      </trkpt>
      <trkpt lat="43.50495" lon="6.36167">
        <ele>268.9</ele>
        <time>2021-06-16T09:24:04.000Z</time>
      </trkpt>
      <trkpt lat="43.50492" lon="6.36173">
        <ele>268.7</ele>
        <time>2021-06-16T09:24:11.000Z</time>
      </trkpt>
      <trkpt lat="43.50489" lon="6.36179">
        <ele>268.3</ele>
        <time>2021-06-16T09:24:17.000Z</time>
      </trkpt>
      <trkpt lat="43.50487" lon="6.36186">
        <ele>267.9</ele>
        <time>2021-06-16T09:24:22.000Z</time>
      </trkpt>
      <trkpt lat="43.50485" lon="6.36192">
        <ele>267.7</ele>
        <time>2021-06-16T09:24:26.000Z</time>
      </trkpt>
      <trkpt lat="43.50483" lon="6.36198">
        <ele>267.5</ele>
        <time>2021-06-16T09:24:31.000Z</time>
      </trkpt>
      <trkpt lat="43.50481" lon="6.36204">
        <ele>267.3</ele>
        <time>2021-06-16T09:24:36.000Z</time>
      </trkpt>
      <trkpt lat="43.50478" lon="6.3621">
        <ele>267.1</ele>
        <time>2021-06-16T09:24:41.000Z</time>
      </trkpt>
      <trkpt lat="43.50475" lon="6.36216">
        <ele>266.9</ele>
        <time>2021-06-16T09:24:46.000Z</time>
      </trkpt>
      <trkpt lat="43.50472" lon="6.36222">
        <ele>266.7</ele>
        <time>2021-06-16T09:24:51.000Z</time>
      </trkpt>
      <trkpt lat="43.5047" lon="6.36228">
        <ele>266.6</ele>
        <time>2021-06-16T09:24:55.000Z</time>
      </trkpt>
      <trkpt lat="43.50467" lon="6.36234">
        <ele>266.2</ele>
        <time>2021-06-16T09:25:00.000Z</time>
      </trkpt>
      <trkpt lat="43.50465" lon="6.3624">
        <ele>265.9</ele>
        <time>2021-06-16T09:25:04.000Z</time>
      </trkpt>
      <trkpt lat="43.50461" lon="6.36246">
        <ele>265.7</ele>
        <time>2021-06-16T09:25:09.000Z</time>
      </trkpt>
      <trkpt lat="43.50458" lon="6.36252">
        <ele>265.5</ele>
        <time>2021-06-16T09:25:13.000Z</time>
      </trkpt>
      <trkpt lat="43.50456" lon="6.36258">
        <ele>265.4</ele>
        <time>2021-06-16T09:25:17.000Z</time>
      </trkpt>
      <trkpt lat="43.50454" lon="6.36264">
        <ele>265.2</ele>
        <time>2021-06-16T09:25:21.000Z</time>
      </trkpt>
      <trkpt lat="43.50451" lon="6.3627">
        <ele>265.1</ele>
        <time>2021-06-16T09:25:26.000Z</time>
      </trkpt>
      <trkpt lat="43.50448" lon="6.36275">
        <ele>264.9</ele>
        <time>2021-06-16T09:25:30.000Z</time>
      </trkpt>
      <trkpt lat="43.50445" lon="6.36281">
        <ele>264.8</ele>
        <time>2021-06-16T09:25:35.000Z</time>
      </trkpt>
      <trkpt lat="43.50444" lon="6.36287">
        <ele>264.3</ele>
        <time>2021-06-16T09:26:07.000Z</time>
      </trkpt>
      <trkpt lat="43.5044" lon="6.3629">
        <ele>264.2</ele>
        <time>2021-06-16T09:26:21.000Z</time>
      </trkpt>
      <trkpt lat="43.50435" lon="6.36292">
        <ele>264</ele>
        <time>2021-06-16T09:26:27.000Z</time>
      </trkpt>
      <trkpt lat="43.5043" lon="6.36294">
        <ele>263.9</ele>
        <time>2021-06-16T09:26:30.000Z</time>
      </trkpt>
      <trkpt lat="43.50424" lon="6.36296">
        <ele>263.7</ele>
        <time>2021-06-16T09:26:34.000Z</time>
      </trkpt>
      <trkpt lat="43.50419" lon="6.36298">
        <ele>263.6</ele>
        <time>2021-06-16T09:26:38.000Z</time>
      </trkpt>
      <trkpt lat="43.50414" lon="6.36299">
        <ele>263.4</ele>
        <time>2021-06-16T09:26:42.000Z</time>
      </trkpt>
      <trkpt lat="43.50409" lon="6.36301">
        <ele>263.3</ele>
        <time>2021-06-16T09:26:46.000Z</time>
      </trkpt>
      <trkpt lat="43.50405" lon="6.36302">
        <ele>263.2</ele>
        <time>2021-06-16T09:26:50.000Z</time>
      </trkpt>
      <trkpt lat="43.504" lon="6.36303">
        <ele>263.1</ele>
        <time>2021-06-16T09:26:54.000Z</time>
      </trkpt>
      <trkpt lat="43.50396" lon="6.36305">
        <ele>262.9</ele>
        <time>2021-06-16T09:26:58.000Z</time>
      </trkpt>
      <trkpt lat="43.50391" lon="6.36307">
        <ele>262.7</ele>
        <time>2021-06-16T09:27:02.000Z</time>
      </trkpt>
      <trkpt lat="43.50387" lon="6.36311">
        <ele>262.5</ele>
        <time>2021-06-16T09:27:06.000Z</time>
      </trkpt>
      <trkpt lat="43.50384" lon="6.36316">
        <ele>262.4</ele>
        <time>2021-06-16T09:27:11.000Z</time>
      </trkpt>
      <trkpt lat="43.50382" lon="6.36322">
        <ele>262.2</ele>
        <time>2021-06-16T09:27:15.000Z</time>
      </trkpt>
      <trkpt lat="43.5038" lon="6.36328">
        <ele>262</ele>
        <time>2021-06-16T09:27:19.000Z</time>
      </trkpt>
      <trkpt lat="43.50378" lon="6.36333">
        <ele>261.8</ele>
        <time>2021-06-16T09:27:23.000Z</time>
      </trkpt>
      <trkpt lat="43.50376" lon="6.36339">
        <ele>261.7</ele>
        <time>2021-06-16T09:27:27.000Z</time>
      </trkpt>
      <trkpt lat="43.50374" lon="6.36345">
        <ele>261.6</ele>
        <time>2021-06-16T09:27:31.000Z</time>
      </trkpt>
      <trkpt lat="43.50372" lon="6.36352">
        <ele>261.5</ele>
        <time>2021-06-16T09:27:35.000Z</time>
      </trkpt>
      <trkpt lat="43.5037" lon="6.36359">
        <ele>261.4</ele>
        <time>2021-06-16T09:27:39.000Z</time>
      </trkpt>
      <trkpt lat="43.50367" lon="6.36364">
        <ele>261.3</ele>
        <time>2021-06-16T09:27:44.000Z</time>
      </trkpt>
      <trkpt lat="43.50365" lon="6.3637">
        <ele>261.1</ele>
        <time>2021-06-16T09:27:48.000Z</time>
      </trkpt>
      <trkpt lat="43.50362" lon="6.36377">
        <ele>261</ele>
        <time>2021-06-16T09:27:53.000Z</time>
      </trkpt>
      <trkpt lat="43.50362" lon="6.36383">
        <ele>260.9</ele>
        <time>2021-06-16T09:27:57.000Z</time>
      </trkpt>
      <trkpt lat="43.50359" lon="6.36388">
        <ele>260.4</ele>
        <time>2021-06-16T09:28:02.000Z</time>
      </trkpt>
      <trkpt lat="43.50357" lon="6.36395">
        <ele>260</ele>
        <time>2021-06-16T09:28:08.000Z</time>
      </trkpt>
      <trkpt lat="43.50356" lon="6.36402">
        <ele>259.5</ele>
        <time>2021-06-16T09:28:15.000Z</time>
      </trkpt>
      <trkpt lat="43.50356" lon="6.36409">
        <ele>259.1</ele>
        <time>2021-06-16T09:28:21.000Z</time>
      </trkpt>
      <trkpt lat="43.50357" lon="6.36416">
        <ele>258.8</ele>
        <time>2021-06-16T09:28:26.000Z</time>
      </trkpt>
      <trkpt lat="43.50358" lon="6.36423">
        <ele>258.5</ele>
        <time>2021-06-16T09:28:31.000Z</time>
      </trkpt>
      <trkpt lat="43.50359" lon="6.3643">
        <ele>258.1</ele>
        <time>2021-06-16T09:28:36.000Z</time>
      </trkpt>
      <trkpt lat="43.50362" lon="6.36436">
        <ele>257.9</ele>
        <time>2021-06-16T09:28:40.000Z</time>
      </trkpt>
      <trkpt lat="43.50363" lon="6.36442">
        <ele>257.7</ele>
        <time>2021-06-16T09:28:44.000Z</time>
      </trkpt>
      <trkpt lat="43.50363" lon="6.36449">
        <ele>257.5</ele>
        <time>2021-06-16T09:28:48.000Z</time>
      </trkpt>
      <trkpt lat="43.50364" lon="6.36457">
        <ele>257.4</ele>
        <time>2021-06-16T09:28:52.000Z</time>
      </trkpt>
      <trkpt lat="43.50363" lon="6.36464">
        <ele>257.3</ele>
        <time>2021-06-16T09:28:56.000Z</time>
      </trkpt>
      <trkpt lat="43.50364" lon="6.36471">
        <ele>257.2</ele>
        <time>2021-06-16T09:29:00.000Z</time>
      </trkpt>
      <trkpt lat="43.50365" lon="6.36477">
        <ele>257</ele>
        <time>2021-06-16T09:29:04.000Z</time>
      </trkpt>
      <trkpt lat="43.50366" lon="6.36483">
        <ele>256.8</ele>
        <time>2021-06-16T09:29:08.000Z</time>
      </trkpt>
      <trkpt lat="43.50367" lon="6.3649">
        <ele>256.7</ele>
        <time>2021-06-16T09:29:12.000Z</time>
      </trkpt>
      <trkpt lat="43.50366" lon="6.36497">
        <ele>256.6</ele>
        <time>2021-06-16T09:29:17.000Z</time>
      </trkpt>
      <trkpt lat="43.50366" lon="6.36503">
        <ele>256.5</ele>
        <time>2021-06-16T09:29:21.000Z</time>
      </trkpt>
      <trkpt lat="43.50367" lon="6.3651">
        <ele>256.4</ele>
        <time>2021-06-16T09:29:26.000Z</time>
      </trkpt>
      <trkpt lat="43.50368" lon="6.36517">
        <ele>256.3</ele>
        <time>2021-06-16T09:29:30.000Z</time>
      </trkpt>
      <trkpt lat="43.5037" lon="6.36522">
        <ele>256.2</ele>
        <time>2021-06-16T09:29:36.000Z</time>
      </trkpt>
      <trkpt lat="43.50373" lon="6.36529">
        <ele>256.1</ele>
        <time>2021-06-16T09:29:41.000Z</time>
      </trkpt>
      <trkpt lat="43.50377" lon="6.36533">
        <ele>256.1</ele>
        <time>2021-06-16T09:29:46.000Z</time>
      </trkpt>
      <trkpt lat="43.50381" lon="6.36537">
        <ele>256.1</ele>
        <time>2021-06-16T09:29:51.000Z</time>
      </trkpt>
      <trkpt lat="43.50385" lon="6.36541">
        <ele>256.1</ele>
        <time>2021-06-16T09:29:57.000Z</time>
      </trkpt>
      <trkpt lat="43.50388" lon="6.36546">
        <ele>256.1</ele>
        <time>2021-06-16T09:30:03.000Z</time>
      </trkpt>
      <trkpt lat="43.50392" lon="6.36551">
        <ele>256.1</ele>
        <time>2021-06-16T09:30:08.000Z</time>
      </trkpt>
      <trkpt lat="43.50396" lon="6.36554">
        <ele>256.2</ele>
        <time>2021-06-16T09:30:13.000Z</time>
      </trkpt>
      <trkpt lat="43.50399" lon="6.36559">
        <ele>256.2</ele>
        <time>2021-06-16T09:30:17.000Z</time>
      </trkpt>
      <trkpt lat="43.50403" lon="6.36563">
        <ele>256.3</ele>
        <time>2021-06-16T09:30:22.000Z</time>
      </trkpt>
      <trkpt lat="43.50407" lon="6.36567">
        <ele>256.3</ele>
        <time>2021-06-16T09:30:27.000Z</time>
      </trkpt>
      <trkpt lat="43.5041" lon="6.36572">
        <ele>256.4</ele>
        <time>2021-06-16T09:30:32.000Z</time>
      </trkpt>
      <trkpt lat="43.50413" lon="6.36578">
        <ele>256.5</ele>
        <time>2021-06-16T09:30:37.000Z</time>
      </trkpt>
      <trkpt lat="43.50416" lon="6.36583">
        <ele>256.6</ele>
        <time>2021-06-16T09:30:43.000Z</time>
      </trkpt>
      <trkpt lat="43.50419" lon="6.36587">
        <ele>256.7</ele>
        <time>2021-06-16T09:30:51.000Z</time>
      </trkpt>
      <trkpt lat="43.50422" lon="6.36594">
        <ele>256.9</ele>
        <time>2021-06-16T09:30:56.000Z</time>
      </trkpt>
      <trkpt lat="43.50425" lon="6.36599">
        <ele>257</ele>
        <time>2021-06-16T09:31:01.000Z</time>
      </trkpt>
      <trkpt lat="43.50428" lon="6.36604">
        <ele>257.2</ele>
        <time>2021-06-16T09:31:06.000Z</time>
      </trkpt>
      <trkpt lat="43.50431" lon="6.3661">
        <ele>257.4</ele>
        <time>2021-06-16T09:31:11.000Z</time>
      </trkpt>
      <trkpt lat="43.50434" lon="6.36616">
        <ele>257.6</ele>
        <time>2021-06-16T09:31:15.000Z</time>
      </trkpt>
      <trkpt lat="43.50435" lon="6.36622">
        <ele>257.7</ele>
        <time>2021-06-16T09:31:19.000Z</time>
      </trkpt>
      <trkpt lat="43.50437" lon="6.36628">
        <ele>257.8</ele>
        <time>2021-06-16T09:31:23.000Z</time>
      </trkpt>
      <trkpt lat="43.50439" lon="6.36634">
        <ele>257.9</ele>
        <time>2021-06-16T09:31:27.000Z</time>
      </trkpt>
      <trkpt lat="43.5044" lon="6.36641">
        <ele>258</ele>
        <time>2021-06-16T09:31:32.000Z</time>
      </trkpt>
      <trkpt lat="43.50441" lon="6.36648">
        <ele>258.2</ele>
        <time>2021-06-16T09:31:37.000Z</time>
      </trkpt>
      <trkpt lat="43.50443" lon="6.36654">
        <ele>258.4</ele>
        <time>2021-06-16T09:31:41.000Z</time>
      </trkpt>
      <trkpt lat="43.50443" lon="6.36661">
        <ele>258.6</ele>
        <time>2021-06-16T09:31:45.000Z</time>
      </trkpt>
      <trkpt lat="43.50443" lon="6.36668">
        <ele>258.7</ele>
        <time>2021-06-16T09:31:50.000Z</time>
      </trkpt>
      <trkpt lat="43.50443" lon="6.36675">
        <ele>258.8</ele>
        <time>2021-06-16T09:31:55.000Z</time>
      </trkpt>
      <trkpt lat="43.50443" lon="6.36682">
        <ele>259</ele>
        <time>2021-06-16T09:31:59.000Z</time>
      </trkpt>
      <trkpt lat="43.50443" lon="6.36689">
        <ele>259.1</ele>
        <time>2021-06-16T09:32:03.000Z</time>
      </trkpt>
      <trkpt lat="43.50443" lon="6.36696">
        <ele>259.2</ele>
        <time>2021-06-16T09:32:08.000Z</time>
      </trkpt>
      <trkpt lat="43.50442" lon="6.36703">
        <ele>259.3</ele>
        <time>2021-06-16T09:32:13.000Z</time>
      </trkpt>
      <trkpt lat="43.50442" lon="6.36711">
        <ele>259.4</ele>
        <time>2021-06-16T09:32:18.000Z</time>
      </trkpt>
      <trkpt lat="43.50442" lon="6.36718">
        <ele>259.5</ele>
        <time>2021-06-16T09:32:22.000Z</time>
      </trkpt>
      <trkpt lat="43.50441" lon="6.36725">
        <ele>259.6</ele>
        <time>2021-06-16T09:32:27.000Z</time>
      </trkpt>
      <trkpt lat="43.5044" lon="6.36731">
        <ele>259.8</ele>
        <time>2021-06-16T09:32:31.000Z</time>
      </trkpt>
      <trkpt lat="43.50439" lon="6.36737">
        <ele>260</ele>
        <time>2021-06-16T09:32:36.000Z</time>
      </trkpt>
      <trkpt lat="43.50437" lon="6.36744">
        <ele>260.2</ele>
        <time>2021-06-16T09:32:41.000Z</time>
      </trkpt>
      <trkpt lat="43.50436" lon="6.3675">
        <ele>260.4</ele>
        <time>2021-06-16T09:32:45.000Z</time>
      </trkpt>
      <trkpt lat="43.50435" lon="6.36756">
        <ele>260.5</ele>
        <time>2021-06-16T09:32:49.000Z</time>
      </trkpt>
      <trkpt lat="43.50435" lon="6.36763">
        <ele>260.6</ele>
        <time>2021-06-16T09:32:53.000Z</time>
      </trkpt>
      <trkpt lat="43.50434" lon="6.36769">
        <ele>260.6</ele>
        <time>2021-06-16T09:32:57.000Z</time>
      </trkpt>
      <trkpt lat="43.50432" lon="6.36776">
        <ele>260.7</ele>
        <time>2021-06-16T09:33:01.000Z</time>
      </trkpt>
      <trkpt lat="43.50431" lon="6.36783">
        <ele>260.7</ele>
        <time>2021-06-16T09:33:06.000Z</time>
      </trkpt>
      <trkpt lat="43.50429" lon="6.36789">
        <ele>260.8</ele>
        <time>2021-06-16T09:33:10.000Z</time>
      </trkpt>
      <trkpt lat="43.50427" lon="6.36796">
        <ele>260.9</ele>
        <time>2021-06-16T09:33:14.000Z</time>
      </trkpt>
      <trkpt lat="43.50424" lon="6.36802">
        <ele>261</ele>
        <time>2021-06-16T09:33:20.000Z</time>
      </trkpt>
      <trkpt lat="43.50421" lon="6.36806">
        <ele>261.2</ele>
        <time>2021-06-16T09:33:23.000Z</time>
      </trkpt>
      <trkpt lat="43.50417" lon="6.36811">
        <ele>261.5</ele>
        <time>2021-06-16T09:33:28.000Z</time>
      </trkpt>
      <trkpt lat="43.50413" lon="6.36815">
        <ele>261.7</ele>
        <time>2021-06-16T09:33:32.000Z</time>
      </trkpt>
      <trkpt lat="43.5041" lon="6.36819">
        <ele>261.8</ele>
        <time>2021-06-16T09:33:37.000Z</time>
      </trkpt>
      <trkpt lat="43.50406" lon="6.36823">
        <ele>261.9</ele>
        <time>2021-06-16T09:33:40.000Z</time>
      </trkpt>
      <trkpt lat="43.50401" lon="6.36827">
        <ele>262.2</ele>
        <time>2021-06-16T09:33:45.000Z</time>
      </trkpt>
      <trkpt lat="43.50396" lon="6.36831">
        <ele>262.3</ele>
        <time>2021-06-16T09:33:49.000Z</time>
      </trkpt>
      <trkpt lat="43.50392" lon="6.36834">
        <ele>262.7</ele>
        <time>2021-06-16T09:33:53.000Z</time>
      </trkpt>
      <trkpt lat="43.50388" lon="6.3684">
        <ele>262.8</ele>
        <time>2021-06-16T09:33:57.000Z</time>
      </trkpt>
      <trkpt lat="43.50385" lon="6.36846">
        <ele>263</ele>
        <time>2021-06-16T09:34:01.000Z</time>
      </trkpt>
      <trkpt lat="43.50382" lon="6.36852">
        <ele>263.1</ele>
        <time>2021-06-16T09:34:05.000Z</time>
      </trkpt>
      <trkpt lat="43.50379" lon="6.36858">
        <ele>263.3</ele>
        <time>2021-06-16T09:34:09.000Z</time>
      </trkpt>
      <trkpt lat="43.50376" lon="6.36863">
        <ele>263.4</ele>
        <time>2021-06-16T09:34:13.000Z</time>
      </trkpt>
      <trkpt lat="43.50373" lon="6.36869">
        <ele>263.6</ele>
        <time>2021-06-16T09:34:17.000Z</time>
      </trkpt>
      <trkpt lat="43.5037" lon="6.36875">
        <ele>263.8</ele>
        <time>2021-06-16T09:34:22.000Z</time>
      </trkpt>
      <trkpt lat="43.50367" lon="6.36881">
        <ele>263.9</ele>
        <time>2021-06-16T09:34:27.000Z</time>
      </trkpt>
      <trkpt lat="43.50363" lon="6.36886">
        <ele>264</ele>
        <time>2021-06-16T09:34:32.000Z</time>
      </trkpt>
      <trkpt lat="43.50359" lon="6.3689">
        <ele>264.1</ele>
        <time>2021-06-16T09:34:37.000Z</time>
      </trkpt>
      <trkpt lat="43.50354" lon="6.36894">
        <ele>264.2</ele>
        <time>2021-06-16T09:34:42.000Z</time>
      </trkpt>
      <trkpt lat="43.5035" lon="6.36899">
        <ele>264.4</ele>
        <time>2021-06-16T09:34:47.000Z</time>
      </trkpt>
      <trkpt lat="43.50347" lon="6.36905">
        <ele>264.5</ele>
        <time>2021-06-16T09:34:51.000Z</time>
      </trkpt>
      <trkpt lat="43.50343" lon="6.3691">
        <ele>264.6</ele>
        <time>2021-06-16T09:34:56.000Z</time>
      </trkpt>
      <trkpt lat="43.50341" lon="6.36915">
        <ele>264.8</ele>
        <time>2021-06-16T09:35:02.000Z</time>
      </trkpt>
      <trkpt lat="43.50338" lon="6.36922">
        <ele>265</ele>
        <time>2021-06-16T09:35:07.000Z</time>
      </trkpt>
      <trkpt lat="43.50334" lon="6.36925">
        <ele>265.2</ele>
        <time>2021-06-16T09:35:11.000Z</time>
      </trkpt>
      <trkpt lat="43.50329" lon="6.3693">
        <ele>265.4</ele>
        <time>2021-06-16T09:35:15.000Z</time>
      </trkpt>
      <trkpt lat="43.50326" lon="6.36935">
        <ele>265.5</ele>
        <time>2021-06-16T09:35:19.000Z</time>
      </trkpt>
      <trkpt lat="43.50323" lon="6.3694">
        <ele>265.6</ele>
        <time>2021-06-16T09:35:23.000Z</time>
      </trkpt>
      <trkpt lat="43.5032" lon="6.36945">
        <ele>265.7</ele>
        <time>2021-06-16T09:35:27.000Z</time>
      </trkpt>
      <trkpt lat="43.50317" lon="6.36951">
        <ele>265.7</ele>
        <time>2021-06-16T09:35:31.000Z</time>
      </trkpt>
      <trkpt lat="43.50314" lon="6.36956">
        <ele>265.9</ele>
        <time>2021-06-16T09:35:35.000Z</time>
      </trkpt>
      <trkpt lat="43.50312" lon="6.36963">
        <ele>266</ele>
        <time>2021-06-16T09:35:40.000Z</time>
      </trkpt>
      <trkpt lat="43.50309" lon="6.36969">
        <ele>266.1</ele>
        <time>2021-06-16T09:35:44.000Z</time>
      </trkpt>
      <trkpt lat="43.50307" lon="6.36975">
        <ele>266.3</ele>
        <time>2021-06-16T09:35:48.000Z</time>
      </trkpt>
      <trkpt lat="43.50305" lon="6.36981">
        <ele>266.5</ele>
        <time>2021-06-16T09:35:53.000Z</time>
      </trkpt>
      <trkpt lat="43.50303" lon="6.36988">
        <ele>266.6</ele>
        <time>2021-06-16T09:35:58.000Z</time>
      </trkpt>
      <trkpt lat="43.50301" lon="6.36993">
        <ele>266.8</ele>
        <time>2021-06-16T09:36:04.000Z</time>
      </trkpt>
      <trkpt lat="43.50299" lon="6.37001">
        <ele>266.9</ele>
        <time>2021-06-16T09:36:10.000Z</time>
      </trkpt>
      <trkpt lat="43.50299" lon="6.37007">
        <ele>266.9</ele>
        <time>2021-06-16T09:36:14.000Z</time>
      </trkpt>
      <trkpt lat="43.50298" lon="6.37015">
        <ele>267</ele>
        <time>2021-06-16T09:36:19.000Z</time>
      </trkpt>
      <trkpt lat="43.50297" lon="6.37023">
        <ele>267.2</ele>
        <time>2021-06-16T09:36:24.000Z</time>
      </trkpt>
      <trkpt lat="43.50296" lon="6.37029">
        <ele>267.3</ele>
        <time>2021-06-16T09:36:28.000Z</time>
      </trkpt>
      <trkpt lat="43.50295" lon="6.37036">
        <ele>267.4</ele>
        <time>2021-06-16T09:36:32.000Z</time>
      </trkpt>
      <trkpt lat="43.50295" lon="6.37043">
        <ele>267.5</ele>
        <time>2021-06-16T09:36:36.000Z</time>
      </trkpt>
      <trkpt lat="43.50294" lon="6.37049">
        <ele>267.6</ele>
        <time>2021-06-16T09:36:41.000Z</time>
      </trkpt>
      <trkpt lat="43.50293" lon="6.37055">
        <ele>267.6</ele>
        <time>2021-06-16T09:36:46.000Z</time>
      </trkpt>
      <trkpt lat="43.50293" lon="6.37062">
        <ele>267.7</ele>
        <time>2021-06-16T09:36:50.000Z</time>
      </trkpt>
      <trkpt lat="43.50292" lon="6.37068">
        <ele>267.7</ele>
        <time>2021-06-16T09:36:55.000Z</time>
      </trkpt>
      <trkpt lat="43.50292" lon="6.37075">
        <ele>267.7</ele>
        <time>2021-06-16T09:37:00.000Z</time>
      </trkpt>
      <trkpt lat="43.5029" lon="6.37083">
        <ele>267.8</ele>
        <time>2021-06-16T09:37:05.000Z</time>
      </trkpt>
      <trkpt lat="43.5029" lon="6.37091">
        <ele>267.8</ele>
        <time>2021-06-16T09:37:09.000Z</time>
      </trkpt>
      <trkpt lat="43.50289" lon="6.37097">
        <ele>267.9</ele>
        <time>2021-06-16T09:37:13.000Z</time>
      </trkpt>
      <trkpt lat="43.50288" lon="6.37103">
        <ele>267.9</ele>
        <time>2021-06-16T09:37:17.000Z</time>
      </trkpt>
      <trkpt lat="43.50286" lon="6.3711">
        <ele>267.9</ele>
        <time>2021-06-16T09:37:21.000Z</time>
      </trkpt>
      <trkpt lat="43.50284" lon="6.37116">
        <ele>268</ele>
        <time>2021-06-16T09:37:25.000Z</time>
      </trkpt>
      <trkpt lat="43.50282" lon="6.37123">
        <ele>268.1</ele>
        <time>2021-06-16T09:37:30.000Z</time>
      </trkpt>
      <trkpt lat="43.50281" lon="6.3713">
        <ele>268.3</ele>
        <time>2021-06-16T09:37:34.000Z</time>
      </trkpt>
      <trkpt lat="43.50279" lon="6.37137">
        <ele>268.4</ele>
        <time>2021-06-16T09:37:38.000Z</time>
      </trkpt>
      <trkpt lat="43.50277" lon="6.37143">
        <ele>268.5</ele>
        <time>2021-06-16T09:37:42.000Z</time>
      </trkpt>
      <trkpt lat="43.50275" lon="6.3715">
        <ele>268.6</ele>
        <time>2021-06-16T09:37:46.000Z</time>
      </trkpt>
      <trkpt lat="43.50273" lon="6.37158">
        <ele>268.7</ele>
        <time>2021-06-16T09:37:50.000Z</time>
      </trkpt>
      <trkpt lat="43.5027" lon="6.37165">
        <ele>268.7</ele>
        <time>2021-06-16T09:37:54.000Z</time>
      </trkpt>
      <trkpt lat="43.50268" lon="6.37171">
        <ele>268.8</ele>
        <time>2021-06-16T09:37:58.000Z</time>
      </trkpt>
      <trkpt lat="43.50266" lon="6.37177">
        <ele>268.9</ele>
        <time>2021-06-16T09:38:03.000Z</time>
      </trkpt>
      <trkpt lat="43.50262" lon="6.37181">
        <ele>269</ele>
        <time>2021-06-16T09:38:08.000Z</time>
      </trkpt>
      <trkpt lat="43.5026" lon="6.37188">
        <ele>269.1</ele>
        <time>2021-06-16T09:38:14.000Z</time>
      </trkpt>
      <trkpt lat="43.50257" lon="6.37194">
        <ele>269.2</ele>
        <time>2021-06-16T09:38:18.000Z</time>
      </trkpt>
      <trkpt lat="43.50253" lon="6.37199">
        <ele>269.5</ele>
        <time>2021-06-16T09:38:23.000Z</time>
      </trkpt>
      <trkpt lat="43.50251" lon="6.37205">
        <ele>269.7</ele>
        <time>2021-06-16T09:38:27.000Z</time>
      </trkpt>
      <trkpt lat="43.50248" lon="6.3721">
        <ele>269.8</ele>
        <time>2021-06-16T09:38:32.000Z</time>
      </trkpt>
      <trkpt lat="43.50244" lon="6.37215">
        <ele>270</ele>
        <time>2021-06-16T09:38:37.000Z</time>
      </trkpt>
      <trkpt lat="43.5024" lon="6.37218">
        <ele>270</ele>
        <time>2021-06-16T09:38:41.000Z</time>
      </trkpt>
      <trkpt lat="43.50235" lon="6.37222">
        <ele>270.1</ele>
        <time>2021-06-16T09:38:45.000Z</time>
      </trkpt>
      <trkpt lat="43.5023" lon="6.37224">
        <ele>270.2</ele>
        <time>2021-06-16T09:38:50.000Z</time>
      </trkpt>
      <trkpt lat="43.50227" lon="6.37229">
        <ele>270.3</ele>
        <time>2021-06-16T09:38:56.000Z</time>
      </trkpt>
      <trkpt lat="43.50222" lon="6.37231">
        <ele>270.3</ele>
        <time>2021-06-16T09:39:00.000Z</time>
      </trkpt>
      <trkpt lat="43.50218" lon="6.37234">
        <ele>270.4</ele>
        <time>2021-06-16T09:39:04.000Z</time>
      </trkpt>
      <trkpt lat="43.50212" lon="6.37236">
        <ele>270.5</ele>
        <time>2021-06-16T09:39:09.000Z</time>
      </trkpt>
      <trkpt lat="43.50208" lon="6.37238">
        <ele>270.6</ele>
        <time>2021-06-16T09:39:13.000Z</time>
      </trkpt>
      <trkpt lat="43.50203" lon="6.37241">
        <ele>270.9</ele>
        <time>2021-06-16T09:39:18.000Z</time>
      </trkpt>
      <trkpt lat="43.50199" lon="6.37245">
        <ele>271.1</ele>
        <time>2021-06-16T09:39:23.000Z</time>
      </trkpt>
      <trkpt lat="43.50195" lon="6.37247">
        <ele>271.2</ele>
        <time>2021-06-16T09:39:27.000Z</time>
      </trkpt>
      <trkpt lat="43.50191" lon="6.37252">
        <ele>271.3</ele>
        <time>2021-06-16T09:39:32.000Z</time>
      </trkpt>
      <trkpt lat="43.50188" lon="6.37257">
        <ele>271.5</ele>
        <time>2021-06-16T09:39:37.000Z</time>
      </trkpt>
      <trkpt lat="43.50183" lon="6.3726">
        <ele>271.7</ele>
        <time>2021-06-16T09:39:42.000Z</time>
      </trkpt>
      <trkpt lat="43.50179" lon="6.37263">
        <ele>272</ele>
        <time>2021-06-16T09:39:47.000Z</time>
      </trkpt>
      <trkpt lat="43.50175" lon="6.37265">
        <ele>272.2</ele>
        <time>2021-06-16T09:39:52.000Z</time>
      </trkpt>
      <trkpt lat="43.5017" lon="6.37267">
        <ele>272.5</ele>
        <time>2021-06-16T09:39:56.000Z</time>
      </trkpt>
      <trkpt lat="43.50165" lon="6.3727">
        <ele>272.9</ele>
        <time>2021-06-16T09:40:02.000Z</time>
      </trkpt>
      <trkpt lat="43.5016" lon="6.37273">
        <ele>273.4</ele>
        <time>2021-06-16T09:40:07.000Z</time>
      </trkpt>
      <trkpt lat="43.50157" lon="6.37276">
        <ele>273.7</ele>
        <time>2021-06-16T09:40:12.000Z</time>
      </trkpt>
      <trkpt lat="43.50152" lon="6.37277">
        <ele>273.9</ele>
        <time>2021-06-16T09:40:15.000Z</time>
      </trkpt>
      <trkpt lat="43.50147" lon="6.37279">
        <ele>274</ele>
        <time>2021-06-16T09:40:18.000Z</time>
      </trkpt>
      <trkpt lat="43.50142" lon="6.37282">
        <ele>274.2</ele>
        <time>2021-06-16T09:40:22.000Z</time>
      </trkpt>
      <trkpt lat="43.50138" lon="6.37286">
        <ele>274.5</ele>
        <time>2021-06-16T09:40:26.000Z</time>
      </trkpt>
      <trkpt lat="43.50134" lon="6.37289">
        <ele>274.8</ele>
        <time>2021-06-16T09:40:30.000Z</time>
      </trkpt>
      <trkpt lat="43.50129" lon="6.37292">
        <ele>275.3</ele>
        <time>2021-06-16T09:40:35.000Z</time>
      </trkpt>
      <trkpt lat="43.50125" lon="6.37296">
        <ele>275.8</ele>
        <time>2021-06-16T09:40:41.000Z</time>
      </trkpt>
      <trkpt lat="43.50122" lon="6.37301">
        <ele>276.4</ele>
        <time>2021-06-16T09:40:46.000Z</time>
      </trkpt>
      <trkpt lat="43.50118" lon="6.37305">
        <ele>277</ele>
        <time>2021-06-16T09:40:51.000Z</time>
      </trkpt>
      <trkpt lat="43.50114" lon="6.37309">
        <ele>277.5</ele>
        <time>2021-06-16T09:40:56.000Z</time>
      </trkpt>
      <trkpt lat="43.50111" lon="6.37313">
        <ele>278.2</ele>
        <time>2021-06-16T09:41:01.000Z</time>
      </trkpt>
      <trkpt lat="43.50107" lon="6.37317">
        <ele>279.2</ele>
        <time>2021-06-16T09:41:08.000Z</time>
      </trkpt>
      <trkpt lat="43.50102" lon="6.37317">
        <ele>280.5</ele>
        <time>2021-06-16T09:41:16.000Z</time>
      </trkpt>
      <trkpt lat="43.50097" lon="6.37319">
        <ele>281.5</ele>
        <time>2021-06-16T09:41:22.000Z</time>
      </trkpt>
      <trkpt lat="43.50093" lon="6.37322">
        <ele>282.2</ele>
        <time>2021-06-16T09:41:28.000Z</time>
      </trkpt>
      <trkpt lat="43.50089" lon="6.37326">
        <ele>282.8</ele>
        <time>2021-06-16T09:41:34.000Z</time>
      </trkpt>
      <trkpt lat="43.50085" lon="6.37328">
        <ele>283.6</ele>
        <time>2021-06-16T09:41:41.000Z</time>
      </trkpt>
      <trkpt lat="43.50081" lon="6.37333">
        <ele>285.5</ele>
        <time>2021-06-16T09:42:16.000Z</time>
      </trkpt>
      <trkpt lat="43.5008" lon="6.37339">
        <ele>285.7</ele>
        <time>2021-06-16T09:42:27.000Z</time>
      </trkpt>
      <trkpt lat="43.50078" lon="6.37345">
        <ele>285.8</ele>
        <time>2021-06-16T09:42:49.000Z</time>
      </trkpt>
      <trkpt lat="43.50075" lon="6.3735">
        <ele>285.8</ele>
        <time>2021-06-16T09:42:55.000Z</time>
      </trkpt>
      <trkpt lat="43.50072" lon="6.37355">
        <ele>286</ele>
        <time>2021-06-16T09:43:00.000Z</time>
      </trkpt>
      <trkpt lat="43.50069" lon="6.37361">
        <ele>286.1</ele>
        <time>2021-06-16T09:43:07.000Z</time>
      </trkpt>
      <trkpt lat="43.50067" lon="6.37366">
        <ele>286.1</ele>
        <time>2021-06-16T09:43:12.000Z</time>
      </trkpt>
      <trkpt lat="43.50069" lon="6.37372">
        <ele>286</ele>
        <time>2021-06-16T09:43:54.000Z</time>
      </trkpt>
      <trkpt lat="43.50067" lon="6.37368">
        <ele>286.1</ele>
        <time>2021-06-16T09:44:19.000Z</time>
      </trkpt>
    </trkseg>
  </trk>
</gpx>